[[{"header":{"parameterUnit":"m.s-1","parameterCategory":1,"la1":30.6,"la2":28.766,"lo1":-90.7593,"lo2":-88.6598,"dy":0.0162,"dx":0.0183,"nx":116,"ny":114,"refTime":"2023-04-22T18:00:00:Z","depth":0,"parameterNumber":2,"parameterNumberName":"U-component_of_WINDS"},"data":[0.0,0.0,0.0,0.0,0.0,0.0,0.0,0.0,0.0,0.0,0.0,0.0,0.0,0.0,0.0,0.0,0.0,0.0,0.0,0.0,0.0,0.0,0.0,0.0,0.0,0.0,0.0,0.0,0.0,0.0,0.0,0.0,0.0,0.0,0.0,0.0,0.0,0.0,0.0,0.0,0.0,0.0,0.0,0.0,0.0,0.0,0.0,0.0,0.0,0.0,0.0,0.0,0.0,0.0,0.0,0.0,0.0,0.0,0.0,0.0,0.0,0.0,0.0,0.0,0.0,0.0,0.0,0.0,0.0,0.0,0.0,0.0,0.0,0.0,0.0,0.0,0.0,0.0,0.0,0.0,0.0,0.0,0.0,0.0,0.0,0.0,0.0,0.0,0.0,0.0,0.0,0.0,0.0,0.0,0.0,0.0,0.0,0.0,0.0,0.0,0.0,0.0,0.0,0.0,0.0,0.0,0.0,0.0,0.0,0.0,0.0,0.0,0.0,0.0,0.0,0.0,0.0,0.0,0.0,0.0,0.0,0.0,0.0,0.0,0.0,0.0,0.0,0.0,0.0,0.0,0.0,0.0,0.0,0.0,0.0,0.0,0.0,0.0,0.0,0.0,0.0,0.0,0.0,0.0,0.0,0.0,0.0,0.0,0.0,0.0,0.0,0.0,0.0,0.0,0.0,0.0,0.0,0.0,0.0,0.0,0.0,0.0,0.0,0.0,0.0,0.0,0.0,0.0,0.0,0.0,0.0,0.0,0.0,0.0,0.0,0.0,0.0,0.0,0.0,0.0,0.0,0.0,0.0,0.0,0.0,0.0,0.0,0.0,0.0,0.0,0.0,0.0,0.0,0.0,0.0,0.0,0.0,0.0,0.0,0.0,0.0,0.0,0.0,0.0,0.0,0.0,0.0,0.0,0.0,0.0,0.0,0.0,0.0,0.0,0.0,0.0,0.0,0.0,0.0,0.0,0.0,0.0,0.0,0.0,0.0,0.0,0.0,0.0,0.0,0.0,0.0,0.0,0.0,0.0,0.0,0.0,0.0,0.0,0.0,0.0,0.0,0.0,0.0,0.0,0.0,0.0,0.0,0.0,0.0,0.0,0.0,0.0,0.0,0.0,0.0,0.0,0.0,0.0,0.0,0.0,0.0,0.0,0.0,0.0,0.0,0.0,0.0,0.0,0.0,0.0,0.0,0.0,0.0,0.0,0.0,0.0,0.0,0.0,0.0,0.0,0.0,0.0,0.0,0.0,0.0,0.0,0.0,0.0,0.0,0.0,0.0,0.0,0.0,0.0,0.0,0.0,0.0,0.0,0.0,0.0,0.0,0.0,0.0,0.0,0.0,0.0,0.0,0.0,0.0,0.0,0.0,0.0,0.0,0.0,0.0,0.0,0.0,0.0,0.0,0.0,0.0,0.0,0.0,0.0,0.0,0.0,0.0,0.0,0.0,0.0,0.0,0.0,0.0,0.0,0.0,0.0,0.0,0.0,0.0,0.0,0.0,0.0,0.0,0.0,0.0,0.0,0.0,0.0,0.0,0.0,0.0,0.0,0.0,0.0,0.0,0.0,0.0,0.0,0.0,0.0,0.0,0.0,0.0,0.0,0.0,0.0,0.0,0.0,0.0,0.0,0.0,0.0,0.0,0.0,0.0,0.0,0.0,0.0,0.0,0.0,0.0,0.0,0.0,0.0,0.0,0.0,0.0,0.0,0.0,0.0,0.0,0.0,0.0,0.0,0.0,0.0,0.0,0.0,0.0,0.0,0.0,0.0,0.0,0.0,0.0,0.0,0.0,0.0,0.0,0.0,0.0,0.0,0.0,0.0,0.0,0.0,0.0,0.0,0.0,0.0,0.0,0.0,0.0,0.0,0.0,0.0,0.0,0.0,0.0,0.0,0.0,0.0,0.0,0.0,0.0,0.0,0.0,0.0,0.0,0.0,0.0,0.0,0.0,0.0,0.0,0.0,0.0,0.0,0.0,0.0,0.0,0.0,0.0,0.0,0.0,0.0,0.0,0.0,0.0,0.0,0.0,0.0,0.0,0.0,0.0,0.0,0.0,0.0,0.0,0.0,0.0,0.0,0.0,0.0,0.0,0.0,0.0,0.0,0.0,0.0,0.0,0.0,0.0,0.0,0.0,0.0,0.0,0.0,0.0,0.0,0.0,0.0,0.0,0.0,0.0,0.0,0.0,0.0,0.0,0.0,0.0,0.0,0.0,0.0,0.0,0.0,0.0,0.0,0.0,0.0,0.0,0.0,0.0,0.0,0.0,0.0,0.0,0.0,0.0,0.0,0.0,0.0,0.0,0.0,0.0,0.0,0.0,0.0,0.0,0.0,0.0,0.0,0.0,0.0,0.0,0.0,0.0,0.0,0.0,0.0,0.0,0.0,0.0,0.0,0.0,0.0,0.0,0.0,0.0,0.0,0.0,0.0,0.0,0.0,0.0,0.0,0.0,0.0,0.0,0.0,0.0,0.0,0.0,0.0,0.0,0.0,0.0,0.0,0.0,0.0,0.0,0.0,0.0,0.0,0.0,0.0,0.0,0.0,0.0,0.0,0.0,0.0,0.0,0.0,0.0,0.0,0.0,0.0,0.0,0.0,0.0,0.0,0.0,0.0,0.0,0.0,0.0,0.0,0.0,0.0,0.0,0.0,0.0,0.0,0.0,0.0,0.0,0.0,0.0,0.0,0.0,0.0,0.0,0.0,0.0,0.0,0.0,0.0,0.0,0.0,0.0,0.0,0.0,0.0,0.0,0.0,0.0,0.0,0.0,0.0,0.0,0.0,0.0,0.0,0.0,0.0,0.0,0.0,0.0,0.0,0.0,0.0,0.0,0.0,0.0,0.0,0.0,0.0,0.0,0.0,0.0,0.0,0.0,0.0,0.0,0.0,0.0,0.0,0.0,0.0,0.0,0.0,0.0,0.0,0.0,0.0,0.0,0.0,0.0,0.0,0.0,0.0,0.0,0.0,0.0,0.0,0.0,0.0,0.0,0.0,0.0,0.0,0.0,0.0,0.0,0.0,0.0,0.0,0.0,0.0,0.0,0.0,0.0,0.0,0.0,0.0,0.0,0.0,0.0,0.0,0.0,0.0,0.0,0.0,0.0,0.0,0.0,0.0,0.0,0.0,0.0,0.0,0.0,0.0,0.0,0.0,0.0,0.0,0.0,0.0,0.0,0.0,0.0,0.0,0.0,0.0,0.0,0.0,0.0,0.0,0.0,0.0,0.0,0.0,0.0,0.0,0.0,0.0,0.0,0.0,0.0,0.0,0.0,0.0,0.0,0.0,0.0,0.0,0.0,0.0,0.0,0.0,0.0,0.0,0.0,0.0,0.0,0.0,0.0,0.0,0.0,0.0,0.0,0.0,0.0,0.0,0.0,0.0,0.0,0.0,0.0,0.0,0.0,0.0,0.0,0.0,0.0,0.0,0.0,0.0,0.0,0.0,0.0,0.0,0.0,0.0,0.0,0.0,0.0,0.0,0.0,0.0,0.0,0.0,0.0,0.0,0.0,0.0,0.0,0.0,0.0,0.0,0.0,0.0,0.0,0.0,0.0,0.0,0.0,0.0,0.0,0.0,0.0,0.0,0.0,0.0,0.0,0.0,0.0,0.0,0.0,0.0,0.0,0.0,0.0,0.0,0.0,0.0,0.0,0.0,0.0,0.0,0.0,0.0,0.0,0.0,0.0,0.0,0.0,0.0,0.0,0.0,0.0,0.0,0.0,0.0,0.0,0.0,0.0,0.0,0.0,0.0,0.0,0.0,0.0,0.0,0.0,0.0,0.0,0.0,0.0,0.0,0.0,0.0,0.0,0.0,0.0,0.0,0.0,0.0,0.0,0.0,0.0,0.0,0.0,0.0,0.0,0.0,0.0,0.0,0.0,0.0,0.0,0.0,0.0,0.0,0.0,0.0,0.0,0.0,0.0,0.0,0.0,0.0,0.0,0.0,0.0,0.0,0.0,0.0,0.0,0.0,0.0,0.0,0.0,0.0,0.0,0.0,0.0,0.0,0.0,0.0,0.0,0.0,0.0,0.0,0.0,0.0,0.0,0.0,0.0,0.0,0.0,0.0,0.0,0.0,0.0,0.0,0.0,0.0,0.0,0.0,0.0,0.0,0.0,0.0,0.0,0.0,0.0,0.0,0.0,0.0,0.0,0.0,0.0,0.0,0.0,0.0,0.0,0.0,0.0,0.0,0.0,0.0,0.0,0.0,0.0,0.0,0.0,0.0,0.0,0.0,0.0,0.0,0.0,0.0,0.0,0.0,0.0,0.0,0.0,0.0,0.0,0.0,0.0,0.0,0.0,0.0,0.0,0.0,0.0,0.0,0.0,0.0,0.0,0.0,0.0,0.0,0.0,0.0,0.0,0.0,0.0,0.0,0.0,0.0,0.0,0.0,0.0,0.0,0.0,0.0,0.0,0.0,0.0,0.0,0.0,0.0,0.0,0.0,0.0,0.0,0.0,0.0,0.0,0.0,0.0,0.0,0.0,0.0,0.0,0.0,0.0,0.0,0.0,0.0,0.0,0.0,0.0,0.0,0.0,0.0,0.0,0.0,0.0,0.0,0.0,0.0,0.0,0.0,0.0,0.0,0.0,0.0,0.0,0.0,0.0,0.0,0.0,0.0,0.0,0.0,0.0,0.0,0.0,0.0,0.0,0.0,0.0,0.0,0.0,0.0,0.0,0.0,0.0,0.0,0.0,0.0,0.0,0.0,0.0,0.0,0.0,0.0,0.0,0.0,0.0,0.0,0.0,0.0,0.0,0.0,0.0,0.0,0.0,0.0,0.0,0.0,0.0,0.0,0.0,0.0,0.0,0.0,0.0,0.0,0.0,0.0,0.0,0.0,0.0,0.0,0.0,0.0,0.0,0.0,0.0,0.0,0.0,0.0,0.0,0.0,0.0,0.0,0.0,0.0,0.0,0.0,0.0,0.0,0.0,0.0,0.0,0.0,0.0,0.0,0.0,0.0,0.0,0.0,0.0,0.0,0.0,0.0,0.0,0.0,0.0,0.0,0.0,0.0,0.0,0.0,0.0,0.0,0.0,0.0,0.0,0.0,0.0,0.0,0.0,0.0,0.0,0.0,0.0,0.0,0.0,0.0,0.0,0.0,0.0,0.0,0.0,0.0,0.0,0.0,0.0,0.0,0.0,0.0,0.0,0.0,0.0,0.0,0.0,0.0,0.0,0.0,0.0,0.0,0.0,0.0,0.0,0.0,0.0,0.0,0.0,0.0,0.0,0.0,0.0,0.0,0.0,0.0,0.0,0.0,0.0,0.0,0.0,0.0,0.0,0.0,0.0,0.0,0.0,0.0,0.0,0.0,0.0,0.0,0.0,0.0,0.0,0.0,0.0,0.0,0.0,0.0,0.0,0.0,0.0,0.0,0.0,0.0,0.0,0.0,0.0,0.0,0.0,0.0,0.0,0.0,0.0,0.0,0.0,0.0,0.0,0.0,0.0,0.0,0.0,0.0,0.0,0.0,0.0,0.0,0.0,0.0,0.0,0.0,0.0,0.0,0.0,0.0,0.0,0.0,0.0,0.0,0.0,0.0,0.0,0.0,0.0,0.0,0.0,0.0,0.0,0.0,0.0,0.0,0.0,0.0,0.0,0.0,0.0,0.0,0.0,0.0,0.0,0.0,0.0,0.0,0.0,0.0,0.0,0.0,0.0,0.0,0.0,0.0,0.0,0.0,0.0,0.0,0.0,0.0,0.0,0.0,0.0,0.0,0.0,0.0,0.0,0.0,0.0,0.0,0.0,0.0,0.0,0.0,0.0,0.0,0.0,0.0,0.0,0.0,0.0,0.0,0.0,0.0,0.0,0.0,0.0,0.0,0.0,0.0,0.0,0.0,0.0,0.0,0.0,0.0,0.0,0.0,0.0,0.0,0.0,0.0,0.0,0.0,0.0,0.0,0.0,0.0,0.0,0.0,0.0,0.0,0.0,0.0,0.0,0.0,0.0,0.0,0.0,0.0,0.0,0.0,0.0,0.0,0.0,0.0,0.0,0.0,0.0,0.0,0.0,0.0,0.0,0.0,0.0,0.0,0.0,0.0,0.0,0.0,0.0,0.0,0.0,0.0,4.3667,4.252,0.0,0.0,0.0,0.0,0.0,0.0,0.0,0.0,0.0,0.0,0.0,0.0,0.0,0.0,0.0,0.0,0.0,0.0,0.0,0.0,0.0,0.0,0.0,0.0,0.0,0.0,0.0,0.0,0.0,0.0,0.0,0.0,0.0,0.0,0.0,0.0,0.0,0.0,3.3386,3.3791,3.3117,3.2902,3.3147,3.3792,0.0,0.0,0.0,0.0,0.0,0.0,0.0,0.0,0.0,0.0,0.0,0.0,0.0,0.0,0.0,0.0,0.0,0.0,0.0,0.0,0.0,0.0,0.0,0.0,0.0,0.0,0.0,0.0,0.0,0.0,0.0,0.0,0.0,0.0,0.0,0.0,0.0,0.0,0.0,0.0,0.0,0.0,0.0,0.0,0.0,0.0,0.0,0.0,0.0,0.0,0.0,0.0,0.0,0.0,0.0,0.0,0.0,0.0,0.0,0.0,0.0,0.0,0.0,0.0,0.0,0.0,0.0,0.0,0.0,0.0,4.368,4.2957,0.0,0.0,0.0,0.0,0.0,0.0,0.0,0.0,0.0,0.0,0.0,0.0,0.0,0.0,0.0,0.0,0.0,0.0,0.0,0.0,0.0,0.0,0.0,0.0,3.1038,3.1052,3.1042,0.0,0.0,0.0,0.0,0.0,0.0,0.0,0.0,0.0,0.0,3.218,3.3457,3.3639,3.2681,3.2098,3.2524,3.383,3.3303,0.0,0.0,0.0,0.0,0.0,0.0,0.0,0.0,0.0,0.0,0.0,0.0,0.0,0.0,0.0,0.0,0.0,0.0,0.0,0.0,0.0,0.0,0.0,0.0,0.0,0.0,0.0,0.0,0.0,0.0,0.0,0.0,0.0,0.0,0.0,0.0,0.0,0.0,0.0,0.0,0.0,0.0,0.0,0.0,0.0,0.0,0.0,0.0,0.0,0.0,0.0,0.0,0.0,0.0,0.0,0.0,0.0,0.0,0.0,0.0,0.0,0.0,0.0,4.5669,4.5289,4.5651,4.5673,4.5484,4.5092,4.388,4.3444,4.3328,4.0191,0.0,0.0,0.0,0.0,0.0,0.0,0.0,0.0,0.0,0.0,0.0,0.0,0.0,0.0,0.0,0.0,0.0,0.0,0.0,0.0,0.0,3.09,3.1235,3.1181,3.1171,3.1181,0.0,0.0,0.0,0.0,0.0,0.0,0.0,3.209,3.2019,3.1345,3.1558,3.1893,3.237,3.2045,3.2481,3.3519,3.2888,3.2554,3.2441,0.0,0.0,0.0,0.0,0.0,0.0,0.0,0.0,0.0,0.0,0.0,0.0,0.0,0.0,0.0,0.0,0.0,0.0,0.0,0.0,0.0,0.0,0.0,0.0,0.0,0.0,0.0,0.0,0.0,0.0,0.0,0.0,0.0,0.0,0.0,0.0,0.0,0.0,0.0,0.0,0.0,4.6107,4.5654,0.0,0.0,0.0,0.0,0.0,0.0,0.0,0.0,0.0,0.0,0.0,0.0,0.0,4.653,4.7394,4.6295,4.6224,4.7124,4.4839,4.4221,4.507,4.4286,4.435,4.5072,4.4557,0.0,4.2969,4.037,0.0,0.0,0.0,0.0,0.0,0.0,0.0,0.0,0.0,0.0,0.0,0.0,0.0,0.0,0.0,0.0,0.0,0.0,0.0,0.0,0.0,3.0861,3.1157,3.0455,3.1002,3.1337,3.1254,0.0,0.0,0.0,0.0,3.1322,3.1142,3.1715,3.1765,3.1266,3.0485,3.0703,3.1779,3.1391,3.1829,3.2914,3.2314,3.1993,3.1841,3.0491,0.0,0.0,0.0,0.0,0.0,0.0,0.0,0.0,0.0,0.0,0.0,0.0,0.0,0.0,0.0,0.0,0.0,0.0,0.0,0.0,0.0,0.0,0.0,0.0,0.0,0.0,0.0,0.0,0.0,0.0,0.0,0.0,0.0,0.0,0.0,0.0,0.0,0.0,0.0,4.626,4.6251,4.5367,4.4539,4.3814,0.0,0.0,0.0,0.0,0.0,0.0,0.0,0.0,0.0,4.1215,4.3187,4.4632,4.5459,4.5456,4.5974,4.696,4.5641,4.53,4.5835,4.5492,4.5214,4.5049,4.4857,4.4353,4.3482,4.1115,4.0167,3.9854,0.0,0.0,0.0,0.0,3.5566,3.6271,0.0,0.0,0.0,0.0,0.0,0.0,0.0,0.0,0.0,0.0,0.0,0.0,3.0191,3.0639,3.0789,3.0161,3.091,3.1346,3.1117,3.1306,0.0,0.0,0.0,3.1078,3.0733,3.0956,3.0803,3.025,2.9539,2.9853,3.1071,3.0758,3.1225,3.2312,3.1765,3.153,3.1513,2.998,2.8193,2.6159,0.0,0.0,0.0,0.0,0.0,0.0,0.0,0.0,0.0,0.0,0.0,0.0,0.0,0.0,0.0,0.0,0.0,0.0,0.0,0.0,0.0,0.0,0.0,0.0,0.0,0.0,0.0,0.0,0.0,0.0,0.0,0.0,0.0,0.0,0.0,0.0,0.0,4.6103,4.636,4.5138,4.4437,4.3843,0.0,0.0,0.0,0.0,0.0,0.0,3.8525,3.8296,3.8535,3.9412,4.1101,4.2538,4.3696,4.4195,4.5049,4.6221,4.5993,4.5917,4.5973,4.6165,4.5757,4.4875,4.4798,4.4539,4.3888,4.1457,4.093,4.1267,3.7666,3.6859,3.7642,3.6894,3.6816,3.7084,0.0,0.0,0.0,0.0,0.0,0.0,0.0,0.0,0.0,0.0,0.0,3.0377,3.0613,3.0079,3.0074,3.0972,3.1157,3.1021,3.0576,3.1009,3.0982,3.0283,3.0436,3.0539,3.0518,2.9537,2.8519,2.7413,2.8414,2.9357,3.016,3.0284,3.0909,3.1884,3.1232,3.1188,3.145,2.8971,2.6998,2.5407,2.3448,0.0,0.0,0.0,0.0,0.0,0.0,0.0,0.0,0.0,0.0,0.0,0.0,0.0,0.0,0.0,0.0,0.0,0.0,0.0,0.0,0.0,0.0,0.0,0.0,0.0,0.0,0.0,0.0,0.0,0.0,0.0,0.0,0.0,0.0,0.0,0.0,0.0,0.0,4.5138,4.4582,0.0,0.0,0.0,0.0,3.9926,3.9993,3.95,3.8109,3.8213,3.8069,3.763,3.8656,4.0202,4.2287,4.2088,4.2856,4.4618,4.4836,4.4846,4.4618,4.4856,4.4819,4.4511,4.4319,4.4153,4.3804,4.1012,4.0006,4.0147,3.8574,3.8127,3.8322,3.81,3.8134,3.8251,0.0,0.0,0.0,0.0,0.0,0.0,0.0,0.0,0.0,2.9589,3.0075,3.0055,2.8888,2.9932,3.0398,2.9685,3.0447,3.0587,2.97,2.9797,2.9794,2.9582,2.9002,2.8421,2.7858,2.7613,2.7338,2.7074,2.766,2.8491,2.9581,2.9589,3.0147,3.116,3.0615,3.0473,3.0534,2.9255,2.7401,2.5236,2.4315,2.2445,0.0,0.0,0.0,0.0,0.0,0.0,0.0,0.0,0.0,0.0,0.0,0.0,0.0,0.0,0.0,0.0,0.0,0.0,0.0,0.0,0.0,0.0,0.0,0.0,0.0,0.0,0.0,0.0,0.0,0.0,0.0,0.0,0.0,0.0,0.0,0.0,0.0,4.575,4.5514,0.0,4.4128,4.3107,4.1838,4.0172,3.9841,3.8912,3.7128,3.6946,3.6854,3.6786,3.8605,4.0083,4.1168,4.227,4.3108,4.3674,4.4593,4.4876,4.463,4.4984,4.5031,4.4706,4.4009,4.3674,4.3453,4.1446,4.0958,4.1209,3.8975,3.8294,3.8545,3.8581,3.881,3.917,0.0,0.0,0.0,0.0,0.0,0.0,0.0,0.0,2.937,2.8286,2.8999,2.9198,2.8118,2.9546,3.0171,2.9267,3.0056,3.0064,2.8886,2.8964,2.8919,2.8572,2.7816,2.6908,2.5918,2.641,2.6575,2.6345,2.7179,2.7962,2.8636,2.8872,2.9208,2.9689,2.9491,2.9242,2.8996,2.8906,2.7547,2.5396,2.4861,2.3095,2.0771,0.0,0.0,0.0,0.0,0.0,0.0,0.0,0.0,0.0,0.0,0.0,0.0,0.0,0.0,0.0,0.0,0.0,0.0,0.0,0.0,0.0,0.0,0.0,0.0,0.0,0.0,0.0,0.0,0.0,0.0,0.0,0.0,0.0,0.0,4.5946,4.6551,4.5651,4.5397,4.4999,4.423,4.3138,4.1888,4.0424,3.9947,3.9013,3.7443,3.6905,3.6664,3.6708,3.8618,3.9779,4.0002,4.1782,4.2563,4.246,4.3721,4.419,4.4021,4.4436,4.4518,4.4237,4.349,4.3084,4.2873,4.1709,4.1217,4.1079,3.9236,3.8702,3.8914,3.8895,3.9256,3.9873,0.0,0.0,0.0,0.0,0.0,0.0,0.0,2.8977,2.8287,2.7852,2.7573,2.7698,2.8469,2.8881,2.93,2.9816,3.0044,2.952,2.8074,2.8547,2.8387,2.7252,2.6887,2.6171,2.4931,2.6088,2.6146,2.504,2.7043,2.7764,2.7342,2.8113,2.8146,2.7561,2.7863,2.7623,2.6991,2.7825,2.73,2.5835,2.4973,2.3048,2.0683,0.0,0.0,0.0,0.0,0.0,0.0,0.0,0.0,0.0,0.0,0.0,0.0,0.0,0.0,0.0,0.0,0.0,0.0,0.0,0.0,0.0,0.0,0.0,0.0,0.0,0.0,0.0,0.0,0.0,0.0,0.0,0.0,0.0,4.451,4.4806,4.4901,4.4856,4.4225,4.3647,4.3162,4.2126,4.124,4.0577,4.0383,3.9858,3.8968,3.8128,3.7571,3.7311,3.8533,3.9116,3.8899,4.0463,4.118,4.101,4.2277,4.2799,4.2695,4.3134,4.3281,4.3107,4.2828,4.2462,4.2073,4.1633,4.0698,3.959,3.9366,3.9372,3.9468,3.899,3.954,4.0411,0.0,0.0,0.0,0.0,0.0,0.0,0.0,2.7175,2.6966,2.5677,2.6739,2.7651,2.7708,2.8471,2.8971,2.9018,2.882,2.8267,2.7265,2.6834,2.6122,2.5047,2.5169,2.5148,2.4839,2.6122,2.6535,2.6088,2.7454,2.7977,2.7688,2.8275,2.8585,2.8625,2.8259,2.8072,2.8014,2.7575,2.6832,2.5916,2.5849,2.4885,2.3453,0.0,0.0,0.0,0.0,0.0,0.0,0.0,0.0,0.0,0.0,0.0,0.0,0.0,0.0,0.0,0.0,0.0,0.0,0.0,0.0,0.0,0.0,0.0,0.0,0.0,0.0,0.0,0.0,0.0,0.0,0.0,4.2252,4.2523,4.3875,4.5003,4.5629,4.5466,4.4918,4.4177,4.3261,4.2189,4.091,3.9322,3.9361,3.876,3.719,3.6891,3.7098,3.7861,3.8748,3.9851,4.1197,4.2119,4.2652,4.2808,4.3944,4.4519,4.4542,4.4285,4.4106,4.3936,4.3079,4.2526,4.2262,4.2246,4.1262,3.9645,3.8778,3.8093,3.7702,3.8943,4.0555,4.2144,0.0,0.0,0.0,0.0,0.0,0.0,0.0,2.6088,2.5773,2.4878,2.6148,2.7145,2.721,2.8501,2.9081,2.8376,2.8358,2.7791,2.6441,2.5589,2.4733,2.3849,2.405,2.4368,2.475,2.6125,2.6914,2.7085,2.8437,2.8862,2.8349,2.8891,2.8913,2.8533,2.8336,2.795,2.7407,2.7319,2.6739,2.5905,2.6282,2.5579,2.4286,2.4406,2.5184,2.6398,2.745,2.926,3.1381,3.3011,0.0,0.0,0.0,0.0,0.0,0.0,0.0,0.0,0.0,0.0,0.0,0.0,0.0,0.0,0.0,0.0,0.0,0.0,0.0,0.0,0.0,0.0,0.0,0.0,4.2517,4.3083,4.3819,4.4663,4.5175,4.5038,4.4497,4.3841,4.3062,4.1909,4.0759,3.9613,3.9303,3.8779,3.799,3.7829,3.8205,3.9069,3.9871,4.0834,4.1977,4.271,4.3218,4.3495,4.4248,4.4706,4.4857,4.4669,4.4487,4.4394,4.3524,4.2961,4.2598,4.2149,4.1248,3.9989,0.0,0.0,0.0,0.0,4.0911,4.2603,0.0,0.0,0.0,0.0,0.0,0.0,0.0,2.5677,2.4999,2.5025,2.5918,2.6682,2.7024,2.8736,2.9265,2.7908,2.8166,2.7561,2.5548,2.4652,2.3949,2.3509,2.3631,2.4127,2.5009,2.6438,2.7486,2.8109,2.9662,3.004,2.9287,2.9807,2.9381,2.8257,2.8526,2.7758,2.64,2.7142,2.688,2.6012,2.659,2.5788,2.4263,2.5129,2.6023,2.7011,2.8132,2.974,3.1571,3.3125,0.0,0.0,0.0,0.0,0.0,0.0,0.0,0.0,0.0,0.0,0.0,0.0,0.0,0.0,0.0,0.0,0.0,0.0,0.0,0.0,0.0,0.0,0.0,0.0,4.322,4.4204,4.4186,4.4212,4.4166,4.411,4.3504,4.2916,4.2584,4.1391,4.0647,4.0634,3.9791,3.952,4.0024,3.9819,0.0,0.0,0.0,4.1855,4.2055,4.2878,4.3441,4.3822,4.4038,4.433,4.4604,4.4687,4.4746,4.47,4.416,4.3607,4.2999,4.1837,4.1013,4.0421,3.955,3.8811,3.8335,3.9312,4.0842,4.2307,0.0,0.0,0.0,0.0,0.0,0.0,0.0,2.6018,2.5946,2.5304,2.6996,2.8028,2.7451,2.828,2.8543,2.7728,2.7165,2.6136,2.451,2.3725,2.3514,2.3938,2.4644,2.5633,2.6914,2.8183,2.9027,2.9422,3.0174,3.0469,3.032,3.0747,3.0968,3.0911,2.9839,2.9267,2.8957,2.7828,2.7131,2.6885,2.7464,2.7222,2.6536,2.6385,2.7179,2.8483,2.926,3.0685,3.2405,3.3969,3.4702,3.5315,3.697,3.7855,0.0,0.0,0.0,0.0,0.0,0.0,0.0,0.0,0.0,0.0,0.0,0.0,0.0,0.0,0.0,0.0,0.0,0.0,0.0,4.2725,4.314,4.3577,4.4675,4.4821,4.4633,4.4163,4.2976,4.2088,4.1774,4.0814,4.0194,4.0137,3.9948,3.9859,3.9849,3.9668,3.9925,4.0783,4.1282,4.2193,4.3566,4.4111,4.482,4.5686,4.5735,0.0,4.6441,4.5833,4.5581,4.5521,4.4939,4.4073,4.3087,4.2992,4.1989,4.0389,3.9205,3.9049,3.9589,3.9892,4.0859,4.1987,0.0,0.0,0.0,0.0,0.0,0.0,0.0,2.5953,2.6155,2.562,2.7105,2.811,2.7877,2.851,2.8562,2.7543,2.6153,2.4997,2.4102,2.3714,2.373,2.4285,2.4921,2.6004,2.7515,2.8525,2.9446,3.0304,3.098,3.1242,3.1127,3.1572,3.1751,3.1624,3.1028,3.0567,3.0194,2.9326,2.8881,2.8787,2.8913,2.8962,2.8786,2.7621,2.7854,2.886,2.9457,3.081,3.2529,3.4042,3.4998,3.5793,3.7101,3.7808,3.8203,0.0,0.0,0.0,0.0,0.0,0.0,0.0,0.0,0.0,0.0,0.0,0.0,0.0,0.0,4.0308,4.039,0.0,4.096,4.2803,4.3323,4.3843,4.4853,4.4382,4.3816,4.3412,4.2631,4.1973,4.1597,4.0879,4.0432,4.0402,4.0222,4.0236,4.0448,4.0417,4.0799,4.1613,4.2143,4.2927,4.4001,4.4471,4.5188,4.6216,4.6216,4.6483,4.6973,4.6569,4.6391,4.6355,4.5588,4.4647,4.3651,4.2813,4.1794,4.0641,4.002,3.9881,4.0119,4.0489,4.1397,4.2326,0.0,0.0,0.0,0.0,0.0,0.0,0.0,2.637,2.6735,2.6564,2.7452,2.8186,2.8348,2.8896,2.8648,2.7104,2.5319,2.4195,2.3999,2.4108,2.442,2.4978,2.5719,2.6819,2.8349,2.9166,3.0185,3.1519,3.221,3.2466,3.2367,3.2921,3.2839,3.2219,3.2321,3.1895,3.1097,3.09,3.07,3.0537,3.0411,3.0463,3.042,2.889,2.8687,2.9247,2.9617,3.0864,3.2572,3.3763,3.4896,3.5968,3.6791,3.7645,3.8202,3.7644,3.782,0.0,0.0,0.0,0.0,0.0,0.0,0.0,0.0,4.0296,4.0116,3.9798,3.9764,3.991,4.0248,4.0593,4.1228,4.2509,4.3206,4.3804,4.4395,4.3551,4.2696,4.2366,4.2142,4.19,4.1621,4.1164,4.088,4.1008,4.0734,4.0764,4.1277,4.1403,4.185,4.2686,4.3176,4.3732,4.4303,4.4651,4.5233,4.597,4.6146,4.6377,4.6748,4.6938,4.7009,4.6962,4.5994,4.5076,4.4126,4.2502,4.1579,4.1194,4.1309,4.1047,4.0734,4.1244,4.2113,4.289,0.0,0.0,0.0,0.0,0.0,0.0,0.0,0.0,0.0,2.9151,2.9451,2.9469,2.8952,2.904,2.8233,2.5971,2.4756,2.4089,2.4014,2.4723,2.5633,2.6688,2.8413,2.9967,3.12,3.191,3.2868,3.4086,3.4346,3.4659,3.499,3.5578,3.5399,3.4502,3.4104,3.345,3.2539,3.1871,3.1414,3.1107,3.1281,3.1051,3.0578,3.023,3.0333,3.0672,3.0594,3.1615,3.3042,3.3255,3.4024,3.4998,3.5866,3.6654,3.7254,3.7122,3.7244,3.7344,3.7079,3.7267,3.7852,3.9219,3.9397,3.9401,0.0,4.0293,4.0116,3.9568,3.9697,4.0044,4.0561,4.021,4.0412,4.209,4.2091,4.2076,4.2622,4.2711,4.2362,4.1401,4.1088,4.1139,4.1555,4.1277,4.1262,4.1738,4.1594,4.1611,4.1949,4.1997,4.2558,4.3796,4.3878,4.4404,4.5423,4.5371,4.5251,4.5138,4.5852,4.6094,4.5963,4.6688,4.7009,4.6926,4.5938,4.4987,4.4038,4.3067,4.2451,4.2177,4.2677,4.2687,4.2414,4.2285,4.2753,4.3415,0.0,0.0,0.0,0.0,0.0,0.0,0.0,0.0,0.0,0.0,3.006,3.0348,2.9226,2.881,2.8233,2.7369,2.5694,2.5159,2.6259,2.6497,2.726,2.8753,2.9911,3.1114,3.2373,3.2784,3.3478,3.4431,3.4817,3.5143,3.5519,3.5965,3.601,3.5666,3.5427,3.4816,3.396,3.3093,3.2744,3.2677,3.2109,3.1751,3.1542,3.1696,3.1395,3.0871,3.0231,3.0732,0.0,3.2599,3.3957,3.5381,3.5553,3.6357,3.7078,3.6434,3.6367,3.6456,3.6348,3.6637,3.7077,3.7651,3.8216,3.8639,3.8659,3.9198,3.9546,3.9129,3.9624,4.0176,4.0315,4.0392,4.0771,4.1674,4.1762,4.1911,4.2479,4.2183,4.1912,4.2021,4.1835,4.1611,4.1321,4.1173,4.1256,4.1702,4.1768,4.1975,4.2437,4.2635,4.3299,4.456,4.4188,4.4356,4.5052,4.4875,4.4877,4.5057,4.583,4.6306,4.6498,4.6866,4.6893,4.6719,4.5869,4.5188,4.4624,4.3793,4.3302,4.31,4.3121,4.3514,4.3989,4.3188,4.3009,4.3116,0.0,0.0,0.0,0.0,0.0,0.0,0.0,0.0,0.0,0.0,3.0889,3.1014,2.9801,2.9081,2.8628,2.8479,2.706,2.6693,2.7953,2.8354,2.9152,3.0592,3.147,3.2461,3.3594,3.4003,3.4573,3.5285,3.567,3.6019,3.6315,3.6589,3.6609,3.6376,3.6148,3.5556,3.4688,3.3873,3.3573,3.3641,3.2995,3.2636,3.2517,3.2804,3.2164,3.104,3.0404,3.0747,3.1585,3.209,3.3899,3.5793,3.4921,3.5605,3.6549,3.563,3.526,3.5143,3.5122,3.5354,3.5692,3.6315,3.7161,3.7781,3.7627,3.8257,3.8759,3.8532,3.9224,3.9871,3.9836,4.0363,4.0928,4.1285,4.1613,4.206,4.2714,4.2198,4.1996,4.2686,4.2442,4.1992,4.1436,4.1512,4.169,4.1939,4.2086,4.2437,4.3018,4.3244,4.4026,4.5488,4.4604,4.4682,4.5752,4.5011,4.4773,4.5092,4.5619,4.6023,4.6355,4.6795,4.6836,4.6566,4.6283,4.5752,4.5055,4.4718,4.4354,4.3975,4.3734,4.4284,4.5121,4.3999,4.3611,4.3597,0.0,0.0,0.0,0.0,0.0,0.0,0.0,0.0,0.0,0.0,0.0,0.0,0.0,3.026,2.9463,2.8485,2.8639,2.8619,2.8207,3.0008,3.1367,3.2023,3.3439,3.4591,3.5385,3.6322,3.7004,3.7496,3.7721,3.7878,3.8029,3.8157,3.7749,3.6862,3.6204,3.5313,3.4291,3.3815,3.3538,3.3452,3.3876,3.3733,3.3277,3.3343,3.2585,3.1503,3.1734,3.2571,3.3369,3.1862,3.3528,3.589,3.3672,3.4027,3.5184,3.4682,3.391,3.319,3.317,3.3059,3.3424,3.556,3.6247,3.6624,3.7667,3.79,3.7883,3.7674,3.8272,3.8899,3.9112,3.978,4.0471,4.0958,4.152,4.2194,4.2993,4.2942,4.2868,4.2902,4.228,4.1867,4.2061,4.2521,4.2851,4.2851,4.2868,4.3186,4.392,4.3781,4.4658,4.6775,4.532,4.5781,4.8458,4.6398,4.5242,4.4985,4.5009,4.4905,4.4738,4.6284,4.6836,4.6637,4.7404,4.675,4.5154,4.6008,4.5709,4.4788,4.4888,4.5209,4.5485,4.4684,4.4845,4.5533,0.0,0.0,0.0,0.0,0.0,0.0,0.0,0.0,0.0,0.0,0.0,0.0,0.0,0.0,0.0,0.0,2.9609,2.9907,3.0613,3.1398,3.2278,3.3245,3.4415,3.5464,3.6412,3.6821,3.7338,3.7923,3.8034,3.8508,3.9293,3.9252,3.9332,3.9459,3.8412,3.7439,3.6439,3.4763,3.4472,3.5001,3.3637,3.3755,3.4663,3.4423,3.39,3.3299,0.0,3.2568,3.1467,3.155,3.2441,3.3376,3.2598,3.3533,3.4763,3.3844,3.299,3.2326,3.2098,3.1976,3.2335,3.4184,3.5012,3.5599,3.6505,3.7336,3.798,3.8325,3.8932,3.9508,3.9847,4.0889,4.1716,4.1745,4.2705,4.3436,4.3199,4.4161,4.4297,4.2751,4.4234,4.4752,4.3202,4.2555,4.2281,4.2364,4.2712,4.3235,4.3952,4.4698,4.593,4.7714,4.6517,4.6525,4.7981,4.6653,4.6217,4.6612,4.6955,4.6812,4.6212,4.6748,4.6836,4.6637,4.7439,4.7412,4.6827,4.7643,4.7537,4.6782,4.655,4.6504,4.6521,4.5805,4.6021,4.6522,0.0,0.0,0.0,0.0,0.0,0.0,0.0,0.0,0.0,0.0,0.0,0.0,0.0,0.0,0.0,0.0,0.0,3.2112,3.3099,3.3503,3.4155,3.5157,3.6031,3.6869,3.7752,3.8048,3.8436,3.8979,3.9056,3.9591,4.0589,4.0426,4.0588,4.089,3.985,3.8886,3.7908,3.6032,3.5703,3.6309,3.4689,3.4757,3.5754,3.5413,3.4788,0.0,3.439,3.2848,3.0792,3.1441,3.1994,3.2295,3.1727,3.2328,3.3044,3.2102,3.1484,3.1039,3.0782,3.0948,3.1591,3.3198,3.4254,3.5163,3.6256,3.724,3.8117,3.8881,3.9341,3.9809,4.0655,4.1457,4.2177,4.2759,4.3805,4.4613,4.4837,4.5553,4.557,4.4249,4.5457,4.5862,4.4445,4.3715,4.3182,4.2861,4.3401,4.4086,4.4874,4.566,4.6881,4.8592,4.7423,4.7316,4.8513,4.7458,4.7151,4.7548,4.7702,4.7509,4.7009,4.7009,4.7037,4.7157,4.7876,4.8169,4.8178,4.8955,4.8851,4.8158,4.796,4.7745,4.7439,4.6941,4.7104,4.7431,0.0,0.0,0.0,0.0,0.0,0.0,0.0,0.0,0.0,0.0,0.0,0.0,0.0,0.0,0.0,0.0,0.0,0.0,3.5397,3.608,3.6774,3.7495,3.8115,3.8726,3.9325,3.9906,4.0302,4.0518,4.0661,4.1087,4.1833,4.1677,4.1506,4.1274,4.0522,3.9656,3.8673,3.7503,3.7168,3.7423,3.6939,3.673,3.6639,3.6376,3.5351,3.4152,3.4763,3.3446,3.1429,3.1539,3.2089,3.242,3.0984,3.0427,3.0215,2.9636,2.9498,2.9466,2.9328,3.0032,3.1164,3.2782,3.4002,3.5257,3.7002,3.772,3.832,3.9298,3.9498,3.9913,4.1407,4.1511,4.2011,4.3932,4.4812,4.5878,4.7688,4.7193,4.6798,4.7114,4.6043,4.5439,4.5808,4.5888,4.5495,4.4449,4.5041,4.58,4.6649,4.6732,4.7619,4.9539,4.809,4.8214,5.0031,4.8834,4.8111,4.79,4.7381,4.7116,4.708,4.7009,4.7321,4.7962,4.8562,4.8879,4.901,4.9741,4.9574,4.8879,4.9038,4.8751,4.8255,4.7987,4.8105,4.8279,0.0,0.0,0.0,0.0,0.0,0.0,0.0,0.0,0.0,0.0,0.0,0.0,0.0,0.0,0.0,0.0,0.0,0.0,3.5824,3.6787,3.7532,3.7858,3.8493,3.9097,3.959,3.9992,4.032,4.0572,4.0926,4.1432,4.21,4.1878,4.2171,4.2864,4.1655,4.1007,4.0683,3.9342,3.9036,3.9324,3.7836,3.8021,3.9061,3.7866,3.6979,3.6273,3.5241,3.3525,3.1738,3.1534,3.0668,2.9701,2.9662,2.9529,2.9399,2.9296,2.9326,2.9344,2.9252,2.9816,3.1078,3.3814,3.4585,3.5402,3.8236,3.9303,3.969,3.972,4.0778,4.1599,4.1374,4.2799,4.4204,4.4691,4.698,4.8561,4.8389,4.9542,4.9776,4.7982,4.8523,4.8384,4.6797,4.7119,4.7238,4.6712,4.7211,4.763,4.7862,4.8481,4.9437,5.0716,4.9566,4.9531,5.0824,5.0349,4.9921,4.9516,4.8971,4.8425,4.7877,4.7259,4.7047,4.7133,4.7807,4.8112,4.8147,4.8891,4.8914,4.8482,4.8611,4.8494,4.828,4.8229,4.8475,4.879,0.0,0.0,0.0,0.0,0.0,0.0,0.0,0.0,0.0,0.0,0.0,0.0,0.0,0.0,0.0,0.0,0.0,0.0,0.0,3.7665,3.8406,3.9235,3.9708,4.0195,4.074,4.1242,4.1717,4.215,4.2321,4.283,4.3606,4.3114,4.3283,4.3946,4.3131,4.2511,4.2046,4.1004,4.0447,0.0,0.0,3.8669,3.904,3.7976,3.6884,3.5769,3.4901,3.2814,3.0361,2.9768,2.8912,2.8212,2.8396,2.8327,2.8249,2.8585,2.8879,2.9193,2.9626,3.0531,3.1985,3.4644,3.5591,3.6514,3.9051,4.0106,4.0576,4.0641,4.182,4.2718,4.2208,4.3745,4.5161,4.5434,4.7765,4.9468,4.9448,5.0439,5.0727,4.9441,4.933,4.8928,4.7914,4.8379,4.862,4.8437,4.8434,4.8649,4.9203,4.9842,5.0535,5.128,5.0537,5.0376,5.0939,5.0871,5.0792,5.0804,5.0123,4.9412,4.8639,4.7866,4.7474,4.744,4.7701,4.803,4.8433,4.8725,4.8924,4.9021,4.8969,4.8965,4.9003,4.8885,4.8904,4.8987,0.0,0.0,0.0,0.0,0.0,0.0,0.0,0.0,0.0,0.0,0.0,0.0,0.0,0.0,0.0,0.0,0.0,0.0,0.0,0.0,0.0,4.0848,4.114,4.156,4.22,4.2846,4.3503,4.415,4.4065,4.4423,4.519,4.4466,4.4219,4.4421,4.4199,4.3644,4.2783,4.2189,4.1339,4.0309,3.9614,3.8791,3.7899,0.0,3.5906,3.4086,3.3681,3.1291,2.8168,2.7176,2.7058,2.7309,2.7143,2.7078,2.7148,2.7763,2.8486,2.9308,3.0244,3.1709,3.345,3.5445,3.6853,3.8222,3.9915,4.0789,4.1381,4.1901,4.2867,4.359,4.3578,4.4574,4.5642,4.6375,4.8073,4.9684,5.0776,5.0851,5.0827,5.0992,4.9497,4.8526,4.885,4.9322,4.9619,4.9573,4.9102,4.9292,5.041,5.0891,5.1198,5.1351,5.1165,5.0965,5.0789,5.0789,5.107,5.1647,5.0875,5.0078,4.9221,4.8508,4.8128,4.795,4.7736,4.8078,4.8814,4.8569,4.8934,4.9578,4.9353,4.941,4.9629,4.9451,4.9112,4.8683,0.0,0.0,0.0,0.0,0.0,0.0,0.0,0.0,0.0,0.0,3.7151,3.7038,0.0,0.0,0.0,0.0,0.0,0.0,0.0,0.0,0.0,0.0,4.1424,4.2018,4.2741,4.3044,4.3586,4.4349,4.4245,4.4208,4.4249,4.3481,4.3234,4.3404,4.2903,4.2533,4.2252,4.1499,4.1021,4.0573,3.9164,3.8498,3.8187,3.7075,0.0,0.0,3.0723,2.8389,2.66,2.5378,2.5368,2.582,2.5644,2.635,2.7284,2.752,2.8767,3.0194,3.0876,3.27,3.4885,3.6729,3.82,3.9807,4.1897,4.2686,4.3085,4.3495,4.444,4.5173,4.5075,4.5805,4.69,4.8269,4.9835,5.1309,5.2507,5.2733,5.2522,5.1749,5.1039,5.0001,4.8332,4.9134,4.9634,4.936,4.9638,5.0117,5.0775,5.1473,5.1622,5.1172,5.1679,5.1607,5.0824,5.0789,5.1066,5.1531,5.0825,4.9944,4.8965,4.8318,4.7607,4.6873,4.6719,4.6741,4.6859,4.6858,4.7293,4.8003,4.8071,4.8151,4.8293,4.8735,4.8179,4.72,0.0,0.0,0.0,0.0,0.0,0.0,0.0,3.7063,3.7159,3.8167,3.8071,3.7562,3.6601,3.7107,3.7247,0.0,0.0,0.0,0.0,0.0,0.0,0.0,0.0,0.0,4.2421,4.2894,4.3458,4.4074,0.0,4.4336,4.4446,4.3703,4.3287,4.3116,4.2455,4.1807,4.1186,4.0631,3.9877,3.8978,3.8272,3.7578,3.6851,0.0,0.0,0.0,2.9274,2.7265,2.5957,2.5761,2.5832,2.5926,2.569,2.6694,2.8082,2.8641,2.9958,3.1524,3.2818,3.4494,3.6487,3.9137,4.0319,4.1438,4.3735,4.3839,4.3665,4.4342,4.5249,4.5864,4.5678,4.7,4.8103,4.8172,4.9982,5.1479,5.1691,5.2063,5.2334,5.2471,5.1395,5.0204,4.9119,4.9939,5.0176,4.9359,5.0035,5.0766,5.1455,5.1881,5.1783,5.1134,5.1369,5.1286,5.0789,5.0721,5.0991,5.1607,5.129,5.061,4.9593,4.8739,4.8395,4.8371,4.7686,4.7719,4.8197,4.7699,4.7626,4.7802,4.7326,4.7566,4.818,4.8186,4.8103,4.8007,0.0,0.0,0.0,0.0,0.0,0.0,0.0,3.7729,3.7839,3.9172,3.8779,3.8189,3.7587,3.7587,3.747,0.0,0.0,0.0,0.0,0.0,0.0,0.0,0.0,0.0,0.0,0.0,0.0,4.3991,4.4041,0.0,0.0,0.0,0.0,0.0,4.1861,4.0958,3.9971,3.9521,3.8592,0.0,0.0,3.6431,3.5295,0.0,0.0,0.0,0.0,2.6975,2.5971,2.6553,2.6913,2.7105,2.6909,2.8053,2.9546,3.0064,3.1667,3.3599,3.5108,3.6788,3.8811,4.1802,4.2815,4.3554,4.5336,4.4859,4.4276,4.5144,4.5822,4.6364,4.6689,4.8133,4.9017,4.8196,4.9785,5.1049,5.0853,5.1219,5.1803,5.2588,5.1493,5.0403,4.97,5.0609,5.0681,4.9386,5.0262,5.1126,5.176,5.1871,5.1675,5.1089,5.101,5.089,5.0749,5.0708,5.1039,5.167,5.1645,5.1129,5.0173,4.9321,4.9257,4.9697,4.8741,4.8833,4.9555,4.8728,4.8351,4.8153,4.7238,4.7461,4.8264,4.8088,4.8326,4.8852,0.0,0.0,0.0,0.0,0.0,0.0,0.0,3.7966,3.8294,3.9345,3.9056,3.9196,4.0289,3.978,3.8757,0.0,0.0,0.0,0.0,0.0,0.0,0.0,0.0,0.0,0.0,0.0,0.0,4.4704,4.376,0.0,0.0,0.0,0.0,0.0,0.0,3.9626,3.8947,3.7894,0.0,0.0,0.0,0.0,0.0,0.0,0.0,0.0,0.0,2.7167,2.6773,2.6672,2.7885,2.9483,2.9596,3.0825,3.2053,3.1171,3.3848,3.7104,3.7161,3.9686,4.2728,4.4253,4.5586,4.6524,4.65,4.6118,4.5924,4.6508,4.6552,4.7093,4.914,4.916,4.9164,5.0133,5.0072,5.0334,5.175,5.1886,5.1711,5.1422,5.2059,5.1558,4.9056,5.0373,5.0798,4.9323,5.0388,5.1119,5.1188,5.1083,5.0974,5.0905,5.1139,5.1063,5.0612,5.0927,5.1207,5.1518,5.1402,5.0848,4.9928,4.9831,4.9366,4.8652,4.853,4.8578,4.8696,4.8303,4.8355,4.8686,4.8288,4.805,4.8056,4.9062,4.8839,4.81,0.0,0.0,0.0,0.0,0.0,0.0,3.8959,3.8638,3.8889,4.0529,4.0497,4.0593,4.1339,4.0911,4.0409,4.0014,0.0,0.0,0.0,0.0,0.0,0.0,0.0,0.0,0.0,0.0,4.2129,4.3042,4.3443,0.0,0.0,0.0,0.0,0.0,0.0,3.8631,3.7488,3.6762,0.0,0.0,0.0,0.0,0.0,0.0,0.0,0.0,0.0,0.0,2.793,2.8686,3.0159,3.1788,3.2395,3.4193,3.576,3.4087,3.5683,3.8324,3.9734,4.2139,4.4803,4.7289,4.768,4.7788,4.8884,4.7452,4.6318,4.7931,4.7706,4.7923,5.0157,5.0319,4.9934,4.9318,4.9778,5.0007,4.9309,4.9819,5.0599,5.1503,5.1925,5.1844,5.1126,5.1539,5.1451,5.0418,5.2077,5.2548,5.1168,5.1825,5.1977,5.1408,5.1679,5.1671,5.1256,5.1021,5.1092,5.1492,5.1158,5.0756,5.0306,4.9641,4.9713,5.0334,4.9845,5.001,5.06,4.9811,4.9208,4.8706,4.7932,4.802,4.86,4.8829,4.9361,5.0002,0.0,0.0,0.0,0.0,0.0,3.8773,3.9802,3.9439,3.9818,4.1996,4.1803,4.1755,4.2561,4.2027,4.191,4.2607,4.1554,0.0,0.0,0.0,0.0,0.0,0.0,0.0,0.0,0.0,4.1565,4.1878,4.2709,4.2886,0.0,0.0,4.105,3.9441,0.0,0.0,0.0,0.0,0.0,0.0,0.0,0.0,0.0,0.0,0.0,0.0,0.0,0.0,0.0,0.0,0.0,3.3171,3.4028,3.5987,3.7731,3.6307,3.7839,4.037,4.2058,4.4628,4.745,5.0089,4.9846,4.9309,5.0582,4.8644,4.6981,4.8317,4.8092,4.8334,5.0394,5.0678,5.0194,4.8921,4.938,4.9541,4.8486,4.8983,5.0173,5.212,5.2264,5.2369,5.2864,5.2888,5.2651,5.2134,5.3742,5.3936,5.2066,5.2803,5.259,5.111,5.1393,5.1473,5.1311,5.1056,5.1132,5.1492,5.0999,5.0681,5.0585,4.9681,4.9929,5.1084,5.0493,5.0676,5.1305,5.05,4.9827,4.9266,4.8382,4.8693,4.9648,4.9534,5.0337,5.1608,0.0,0.0,0.0,0.0,0.0,0.0,4.0206,4.0303,4.1165,4.357,4.2654,4.2526,4.4444,4.3495,4.317,4.4376,4.2581,0.0,0.0,0.0,0.0,0.0,0.0,0.0,0.0,0.0,4.1538,4.1778,4.143,4.1355,4.1585,3.9935,3.8877,3.8387,0.0,0.0,0.0,0.0,0.0,0.0,0.0,0.0,0.0,0.0,0.0,0.0,0.0,0.0,0.0,0.0,0.0,0.0,0.0,3.5482,3.7053,3.7228,4.0489,4.4025,4.3975,4.7335,5.1138,5.2436,5.2267,5.161,5.1129,4.969,4.821,4.731,4.7429,4.8241,4.9985,4.9928,4.9618,4.9693,4.8921,4.888,5.0542,5.0327,5.086,5.311,5.3393,5.3463,5.3665,5.4191,5.4478,5.4494,5.5058,5.4982,5.4013,5.3782,5.2404,4.9622,4.9893,5.0208,5.0432,5.1021,5.1363,5.1492,5.0905,5.0598,5.0585,5.0108,4.9878,4.9913,4.9927,4.9927,4.9898,4.9619,4.9915,5.0552,5.0208,5.0507,5.122,5.1631,5.1883,5.2202,0.0,0.0,0.0,0.0,0.0,0.0,0.0,4.1183,4.178,4.3064,4.3535,4.3809,4.3929,4.3558,4.3423,4.3706,4.2518,0.0,0.0,0.0,0.0,0.0,0.0,0.0,0.0,0.0,4.0057,4.0854,4.0915,4.0952,4.0965,3.9971,3.8991,3.8046,3.7721,3.7103,0.0,0.0,0.0,0.0,0.0,0.0,3.095,0.0,0.0,0.0,0.0,0.0,0.0,0.0,0.0,0.0,0.0,0.0,0.0,3.9365,4.1223,4.3383,4.4517,4.7231,5.0039,5.1362,5.1048,5.0456,5.0562,4.9651,4.8759,4.8753,4.9352,5.0139,5.0987,5.1089,5.0899,5.058,5.0147,5.0048,5.0471,5.0543,5.1118,5.272,5.4099,5.4725,5.429,5.5363,5.5839,5.5272,5.6279,5.6334,5.5016,5.5161,5.4074,5.1479,5.0872,5.0971,5.1755,5.147,5.1417,5.17,5.0934,5.0322,4.9854,4.9693,4.9619,4.9634,4.9825,4.9913,4.9918,5.0138,5.0378,5.0605,5.0803,5.1238,5.1815,5.1782,5.2469,5.3411,0.0,0.0,0.0,0.0,0.0,0.0,0.0,4.2879,4.3221,4.3915,4.4405,4.4637,4.4441,4.4296,4.4254,4.4379,4.3626,0.0,0.0,0.0,0.0,0.0,0.0,0.0,3.9074,3.9744,4.0262,4.0592,4.0583,4.0554,4.0464,3.9179,3.8238,3.7614,3.7038,3.655,0.0,0.0,0.0,0.0,0.0,0.0,3.0913,0.0,0.0,0.0,0.0,0.0,0.0,0.0,0.0,0.0,0.0,0.0,0.0,0.0,4.2077,4.3839,4.4959,4.7566,5.0156,5.1051,5.0722,5.0217,5.0378,4.9455,4.863,4.8967,4.9232,4.9758,5.0857,5.0705,5.049,5.0813,5.0612,5.0628,5.1106,5.1331,5.183,5.2909,5.4532,5.5306,5.4547,5.615,5.7012,5.6513,5.7397,5.7432,5.6233,5.5741,5.4771,5.3213,5.2235,5.2041,5.2586,5.2149,5.1868,5.1773,5.1035,5.0249,4.952,4.9672,4.9578,4.9339,5.0066,5.0245,0.0,5.0577,5.0995,5.1251,5.1454,5.1949,5.2489,5.2302,5.2889,5.3802,0.0,0.0,0.0,0.0,0.0,0.0,0.0,4.4984,4.5209,4.5668,4.5167,4.5002,4.5582,4.539,4.5385,4.5888,0.0,0.0,0.0,0.0,0.0,0.0,0.0,0.0,3.9691,4.115,4.1557,4.0811,4.0324,4.0035,3.9914,3.7756,3.6872,3.7097,3.6095,3.5717,0.0,0.0,0.0,0.0,0.0,0.0,0.0,0.0,0.0,0.0,0.0,0.0,0.0,0.0,0.0,0.0,0.0,0.0,0.0,0.0,0.0,0.0,0.0,4.8214,5.1076,5.1162,5.0884,5.0558,5.0279,4.9122,0.0,4.8238,4.7745,4.7902,4.9891,4.9225,4.8938,5.0579,5.0488,5.0763,5.2265,5.2577,5.2874,5.3586,5.4815,5.534,5.4651,5.6547,5.7823,5.7823,5.8135,5.8012,5.7345,5.562,5.4651,5.4652,5.3871,5.3268,5.2965,5.2881,5.2532,5.1863,5.1218,5.048,4.9645,5.002,4.9796,4.9221,5.0592,5.0811,5.0236,5.0964,5.1674,5.2301,5.2202,5.2589,5.3127,5.299,5.3178,5.3635,0.0,0.0,0.0,0.0,0.0,0.0,0.0,0.0,0.0,0.0,4.53,4.5185,4.4209,4.4775,4.5158,0.0,0.0,0.0,0.0,0.0,0.0,0.0,0.0,0.0,4.039,4.0185,4.0035,3.9919,3.9173,3.8773,3.8715,3.7555,3.6905,3.6736,3.6329,3.5332,0.0,0.0,0.0,0.0,0.0,0.0,0.0,0.0,0.0,0.0,3.3223,3.3679,0.0,0.0,0.0,0.0,0.0,0.0,0.0,0.0,4.3972,4.605,4.6193,0.0,4.945,4.9098,4.8922,4.8783,0.0,4.8706,4.8641,4.7974,4.8996,4.9937,4.9718,4.9583,4.9859,5.088,5.0743,5.0927,5.2245,5.3214,5.3933,5.4265,5.5062,5.5513,5.5375,5.626,5.683,5.683,5.6696,5.649,5.6337,5.5737,5.5296,5.4991,5.4783,5.4383,5.3738,5.2885,5.2509,5.2623,5.2179,5.1531,5.0805,5.0911,5.0829,5.0694,5.1066,5.11,5.0998,5.1758,5.2082,5.2185,5.2724,5.2873,5.2781,5.3145,5.399,5.4971,0.0,0.0,0.0,0.0,0.0,0.0,0.0,0.0,0.0,0.0,0.0,4.5165,4.4776,4.5169,0.0,0.0,0.0,0.0,0.0,0.0,0.0,0.0,0.0,4.1249,4.0896,4.0224,3.987,3.9835,3.8767,3.8219,3.8053,3.697,3.6462,3.643,3.5853,3.4785,0.0,0.0,0.0,0.0,3.0378,0.0,0.0,0.0,0.0,0.0,3.3517,3.3928,0.0,3.5599,3.6299,3.6947,0.0,0.0,0.0,0.0,4.4565,4.6307,4.6959,4.787,4.8569,4.83,4.8197,4.8098,4.7978,4.827,4.8547,4.8544,4.9115,4.9793,5.031,5.0117,5.0235,5.1218,5.1468,5.1933,5.3203,5.3182,5.3431,5.4504,5.4611,5.472,5.5065,5.5642,5.599,5.599,5.5979,5.5996,5.5996,5.5482,5.5262,5.5366,5.4703,5.4325,5.4223,5.3473,5.2984,5.2757,5.2431,5.1846,5.1007,5.1474,5.1507,5.1138,5.1912,5.2063,5.1742,5.2536,5.2741,5.264,5.2925,5.2868,5.2641,5.2922,5.3972,5.5315,0.0,0.0,0.0,0.0,0.0,0.0,0.0,0.0,0.0,0.0,0.0,0.0,0.0,0.0,0.0,0.0,0.0,0.0,0.0,0.0,0.0,0.0,4.1661,4.1209,4.1209,4.0579,4.0195,4.0095,3.886,3.808,3.7728,3.6536,3.6051,3.6114,3.5168,3.4288,0.0,0.0,0.0,0.0,2.9944,0.0,0.0,0.0,0.0,0.0,0.0,0.0,0.0,3.6396,3.6915,3.7177,3.8976,0.0,0.0,0.0,0.0,0.0,4.7379,4.7968,4.8274,4.8194,4.8078,4.7911,4.785,4.7829,4.8102,4.9018,4.8615,4.8687,5.0751,5.0223,4.9881,5.1016,5.1733,5.269,5.4246,5.3115,5.2791,5.4548,5.414,5.3927,5.4412,5.4906,5.5186,5.5153,5.5451,5.5604,5.5604,5.4872,5.4735,5.5327,5.4143,5.3751,5.4287,5.4045,5.3458,5.2545,5.2517,5.1932,5.0977,5.2032,5.2082,5.1461,5.2876,5.3095,5.2503,5.3196,5.3348,5.3093,5.2955,5.2764,5.2571,5.2746,5.3838,5.5345,0.0,0.0,0.0,0.0,0.0,0.0,0.0,0.0,0.0,0.0,0.0,0.0,0.0,0.0,0.0,0.0,0.0,0.0,0.0,0.0,0.0,4.2956,4.1798,4.1209,4.1209,4.0501,4.0117,4.0108,3.9269,3.8425,3.7615,3.7333,3.663,3.5498,3.4838,3.4048,3.3195,3.2155,0.0,0.0,2.9806,0.0,0.0,0.0,0.0,0.0,0.0,0.0,0.0,3.5994,3.6958,3.786,3.9241,0.0,0.0,0.0,0.0,0.0,4.6659,4.7741,4.8685,4.8154,4.7907,4.7689,4.7439,4.7472,4.7604,4.7855,4.7902,4.8243,4.9197,4.839,4.7877,4.8674,4.9564,5.1116,5.3848,5.419,5.4226,5.4516,5.4977,5.5001,5.4306,5.4229,5.4135,5.397,5.3906,5.3856,5.3856,5.3737,5.3721,5.3839,5.3619,5.3467,5.3399,5.3517,5.3144,5.2333,5.3027,5.2875,5.2082,5.2943,5.323,5.3146,5.3399,5.3332,5.3078,5.3382,5.3178,5.2712,5.2851,5.2694,5.2533,5.3399,5.4701,5.6353,0.0,0.0,0.0,0.0,0.0,0.0,0.0,0.0,0.0,0.0,0.0,0.0,0.0,0.0,0.0,0.0,0.0,0.0,0.0,0.0,4.3644,4.267,4.1249,4.0321,4.0015,3.9009,3.8423,3.8379,3.7873,3.7383,3.6899,3.6674,3.6028,3.5062,3.446,3.3578,3.2553,3.1622,3.0762,0.0,0.0,0.0,0.0,0.0,0.0,0.0,0.0,0.0,0.0,0.0,3.6711,3.7965,3.9042,0.0,0.0,0.0,0.0,0.0,4.556,4.6544,4.7317,4.6845,4.732,4.7712,4.6929,4.6799,4.6943,4.7363,4.7696,4.8176,4.8957,4.9227,4.957,5.0336,5.041,5.1195,5.3445,5.3093,5.3074,5.4365,5.4346,5.4251,5.4189,5.4338,5.4379,5.4295,5.4161,5.4093,5.4093,5.3721,5.3518,5.3518,5.3518,5.3399,5.3196,5.296,5.2775,5.2606,5.3129,5.3078,5.2657,5.3214,5.3653,5.3939,5.3939,5.4123,5.4357,5.3952,5.3775,5.3705,5.2994,5.2998,5.349,5.4461,5.5524,5.6757,0.0,0.0,0.0,0.0,0.0,0.0,0.0,0.0,0.0,0.0,0.0,0.0,0.0,0.0,0.0,0.0,0.0,0.0,0.0,4.4783,4.3565,4.2564,4.0755,3.9587,3.9146,3.7814,3.7296,3.7693,3.7109,3.6745,3.6517,3.6044,3.5453,3.4769,3.4193,3.3253,3.2027,3.1174,3.0433,0.0,0.0,0.0,0.0,0.0,0.0,0.0,0.0,0.0,0.0,0.0,0.0,0.0,0.0,0.0,0.0,4.2372,4.3138,4.3698,4.4416,4.5265,4.5862,4.5242,4.6424,4.7417,4.6384,4.6274,4.6515,4.7043,4.7472,4.7976,4.8607,4.9637,5.0677,5.1664,5.1424,5.167,5.318,5.2537,5.253,5.4232,5.3976,5.383,5.4282,5.4616,5.4856,5.5009,5.4923,5.4769,5.46,5.4059,5.3687,5.3518,5.3433,5.3331,5.3127,5.2674,5.2522,5.2687,5.2892,5.2909,5.2773,5.3281,5.3805,5.4375,5.434,5.4591,5.5008,5.4312,5.4182,5.4349,5.3288,5.3402,5.4325,5.5311,5.6103,5.6887,0.0,0.0,0.0,0.0,0.0,0.0,0.0,0.0,0.0,0.0,0.0,0.0,0.0,0.0,0.0,0.0,0.0,0.0,0.0,4.4763,4.4038,4.3157,4.0762,3.9489,3.9556,3.7995,3.8127,4.005,3.86,3.7638,3.7211,3.6394,3.5554,3.4769,3.4235,3.33,3.2027,3.1174,3.0538,3.008,3.0067,0.0,0.0,0.0,0.0,0.0,0.0,0.0,0.0,0.0,0.0,0.0,0.0,0.0,4.0766,4.1494,4.2489,4.3337,4.3419,4.4378,4.5105,4.3955,4.5103,4.6349,4.579,4.6122,4.6602,4.6655,4.6902,4.7189,4.7307,4.7777,4.864,5.01,5.0971,5.1913,5.3213,5.4227,5.4662,5.4276,5.4807,5.5104,5.477,5.4788,5.5043,5.5599,5.5631,5.5327,5.4651,5.455,5.4194,5.3518,5.3331,5.3127,5.2921,5.2871,5.2604,5.2152,5.2302,5.2368,5.2368,5.3162,5.389,5.4583,5.4359,5.4218,5.411,5.4042,5.381,5.3518,5.3584,5.387,5.434,5.5467,5.6217,5.6822,0.0,0.0,0.0,0.0,0.0,0.0,0.0,0.0,0.0,0.0,0.0,0.0,0.0,0.0,0.0,0.0,0.0,0.0,0.0,4.4662,4.3628,4.2191,4.0315,3.9502,3.9971,3.7759,3.7331,3.8752,3.8275,3.7828,3.74,3.6502,3.5408,3.4218,3.3732,3.273,3.1378,3.0881,3.0557,3.0369,3.0701,0.0,0.0,0.0,0.0,0.0,0.0,0.0,0.0,0.0,3.6816,3.8163,3.918,3.9995,4.0732,4.1491,4.2396,4.3047,4.241,4.3592,4.4502,4.2493,4.352,0.0,4.4507,4.497,4.5461,4.5376,4.5729,4.6372,4.746,4.8252,4.9156,5.0298,5.1463,5.2414,5.3129,5.367,5.4072,5.4209,5.4269,5.4258,5.4142,5.4466,5.4787,5.5006,5.5006,5.4905,5.46,5.416,5.3788,5.3518,5.3416,5.3246,5.2903,5.2656,5.2556,5.2604,5.232,5.2218,5.23,5.2604,5.3349,5.441,5.4218,5.4526,5.5147,5.4552,5.4505,5.4744,5.4719,5.4501,5.4239,5.4466,5.523,5.6269,0.0,0.0,0.0,0.0,0.0,0.0,0.0,0.0,0.0,0.0,0.0,0.0,0.0,0.0,0.0,0.0,0.0,0.0,4.4907,4.4097,4.2996,4.1579,4.0307,3.9972,4.0684,3.8818,3.815,3.8836,3.8827,3.8398,3.753,3.6762,3.5484,3.379,3.3345,3.2307,3.0925,3.0732,3.0616,3.0599,3.133,3.1835,0.0,0.0,0.0,0.0,0.0,0.0,0.0,0.0,3.6748,3.8092,3.9451,4.0226,4.0834,4.1893,4.2262,4.2158,4.1511,4.2139,4.2582,4.0822,0.0,4.2771,4.2916,4.3854,4.4637,4.4602,4.4898,4.5692,4.7458,4.8386,4.9177,5.0183,5.1607,5.2731,5.306,5.3365,5.3733,5.4094,5.3882,5.3752,5.3974,5.4381,5.4719,5.4938,5.4938,5.4837,5.46,5.4126,5.3754,5.3518,5.3433,5.328,5.299,5.2708,5.2724,5.299,5.2438,5.232,5.2589,5.2589,5.3163,5.4184,5.399,5.4531,5.5484,5.48,5.4939,5.5573,5.5199,5.476,5.4278,5.4192,5.4769,5.5649,0.0,0.0,0.0,0.0,0.0,0.0,0.0,0.0,0.0,0.0,0.0,0.0,0.0,0.0,0.0,0.0,0.0,0.0,4.3791,4.305,4.2277,4.1534,4.0928,4.0975,4.1794,4.1344,4.1106,4.1123,4.062,3.943,3.7588,3.7233,3.5839,3.3585,3.3169,3.2185,3.0806,3.0806,3.0731,3.0701,3.1841,3.2452,3.2881,0.0,0.0,0.0,0.0,0.0,0.0,0.0,3.6929,3.7931,4.0408,4.0954,4.1001,4.259,4.1886,4.059,4.0741,3.9947,3.9059,3.8847,3.9156,3.9819,4.1027,4.2902,4.4432,4.4577,4.4613,4.5192,4.7147,4.7731,4.8278,4.9423,5.1276,5.2731,5.3043,5.3617,5.3997,5.3997,5.3816,5.394,5.4533,5.4583,5.4905,5.5631,5.5665,5.5378,5.4651,5.4583,5.4262,5.3518,5.3314,5.3196,5.3196,5.3196,5.3196,5.3196,5.2589,5.2622,5.3196,5.3196,5.3496,5.3975,5.3779,5.4123,5.477,5.4549,5.4939,5.5535,5.4773,5.4475,5.4531,5.4935,5.508,5.508,0.0,0.0,0.0,0.0,0.0,0.0,0.0,0.0,0.0,0.0,0.0,0.0,0.0,0.0,0.0,0.0,0.0,0.0,4.3841,4.349,4.288,4.1773,4.1581,4.1995,4.296,4.2671,4.2402,4.2217,4.0618,3.9245,3.8121,3.6671,3.4937,3.301,3.2648,3.1863,3.0791,3.0461,3.0675,3.1324,3.2384,3.308,3.3696,0.0,0.0,0.0,0.0,0.0,0.0,0.0,0.0,0.0,3.942,3.9908,4.0172,4.0637,4.0286,3.9572,3.8765,3.8742,3.8753,3.7902,3.8946,4.0299,4.0738,4.1937,4.322,4.4018,4.5264,4.638,4.6914,4.8225,4.9429,5.0048,5.1731,5.2888,5.2783,5.3466,5.3948,5.3816,5.3668,5.3636,5.3822,5.3822,5.3923,5.4143,5.4143,5.4059,5.3856,5.3822,5.3721,5.3518,5.3433,5.3348,5.3196,5.3348,5.3348,5.3196,5.3163,5.2876,5.2438,5.2438,5.2638,5.3027,5.2957,5.3267,5.3805,5.3732,5.4144,5.474,5.4011,5.3713,5.3665,5.3346,5.3515,5.3896,0.0,0.0,0.0,0.0,0.0,0.0,0.0,0.0,0.0,0.0,0.0,0.0,0.0,0.0,0.0,0.0,0.0,0.0,0.0,4.383,4.3071,4.1453,4.2222,4.298,4.3519,4.3287,4.2966,4.259,4.0591,3.8992,3.7695,3.6137,3.4423,3.2584,3.2171,3.1523,3.0687,3.0431,3.0694,3.142,3.2776,3.3592,3.4195,0.0,0.0,0.0,0.0,0.0,0.0,0.0,0.0,0.0,3.8878,3.9123,3.918,3.9733,3.8964,3.7908,3.7949,3.7963,3.7835,3.7302,3.8554,4.01,4.0905,4.2096,4.3262,4.4081,4.5443,4.6617,4.7007,4.8482,4.9807,5.0209,5.1669,5.2732,5.2626,5.3298,5.3767,5.3717,5.3584,5.3518,5.3518,5.3518,5.3518,5.3518,5.3518,5.3484,5.3382,5.3484,5.345,5.3382,5.3484,5.3433,5.3331,5.3433,5.3433,5.3331,5.3433,5.3112,5.2421,5.2421,5.245,5.2533,5.2782,5.3093,5.3415,5.3713,5.4276,5.4839,5.3813,5.3581,5.3746,5.3036,5.3069,5.343,0.0,0.0,0.0,0.0,0.0,0.0,0.0,0.0,0.0,0.0,0.0,0.0,0.0,0.0,0.0,0.0,0.0,0.0,0.0,4.4116,4.3092,4.1087,4.2907,4.3893,4.3756,4.3365,4.2814,4.2101,4.0366,3.8585,3.667,3.5588,3.4071,3.2199,3.1709,3.1131,3.0598,3.0568,3.0762,3.1191,3.2976,3.3863,3.4386,3.628,0.0,0.0,0.0,0.0,0.0,0.0,0.0,0.0,3.8466,3.836,3.8029,3.9254,3.7731,3.5997,3.7654,3.7297,3.6579,3.7035,3.8207,3.9712,4.1538,4.2969,4.4042,4.4478,4.5393,4.6418,4.7377,4.8713,4.9754,5.0043,5.1313,5.2297,5.2455,5.3026,5.35,5.3667,5.3584,5.3518,5.3518,5.3518,5.3484,5.3416,5.345,5.3382,5.3129,5.3366,5.3416,5.3213,5.3399,5.3518,5.3518,5.3518,5.3518,5.3518,5.3467,5.328,5.2903,5.2903,5.2727,5.2424,5.3036,5.3316,5.3349,5.4111,5.4806,5.527,5.4011,5.3879,5.4309,5.3647,5.3382,5.3427,0.0,0.0,0.0,0.0,0.0,0.0,0.0,0.0,0.0,0.0,0.0,0.0,0.0,0.0,0.0,0.0,0.0,0.0,0.0,4.4692,4.4061,4.2536,4.3772,4.4609,4.4768,4.3636,4.195,3.972,3.8811,3.7765,3.658,3.4568,3.2895,3.1524,3.1394,3.1073,3.0583,3.0432,3.0748,3.1468,3.2288,3.315,3.4079,3.5048,3.5883,0.0,0.0,0.0,0.0,0.0,0.0,0.0,3.6954,3.6791,3.6699,3.6163,3.5627,3.5139,3.507,3.528,3.5821,3.7158,3.9363,4.1509,4.2704,4.322,4.3596,4.4167,4.6116,4.7774,4.8004,4.9563,5.0653,5.0177,5.1067,5.176,5.1584,5.2387,5.3086,5.35,5.3534,5.3518,5.3518,5.3518,5.3247,5.2604,5.3145,5.3196,5.2521,5.3129,5.3501,5.3433,5.3501,5.3518,5.3518,5.3518,5.3518,5.3518,5.3348,5.3127,5.2903,5.2903,5.2727,5.2424,5.2557,5.2623,5.269,5.3349,5.3713,5.3912,5.4144,5.4011,5.3614,5.3448,5.3306,5.3159,0.0,0.0,0.0,0.0,0.0,0.0,0.0,0.0,0.0,0.0,0.0,0.0,0.0,0.0,0.0,0.0,0.0,0.0,0.0,0.0,4.5533,4.4429,4.4403,4.4209,4.3768,4.2919,4.1281,3.8814,3.7478,3.6244,3.5059,3.3616,3.2393,3.1394,3.1486,3.1189,3.0583,3.0492,3.0821,3.1497,3.2316,3.3083,3.3917,3.4801,3.5542,3.6077,3.5796,0.0,0.0,0.0,0.0,0.0,0.0,0.0,3.5087,3.4669,3.4433,3.4381,3.4766,3.5592,3.6917,3.9244,4.0936,4.2275,4.3101,4.3527,4.3907,4.451,4.6024,4.7357,4.7739,4.9089,5.0034,4.9645,5.0353,5.0907,5.0752,5.1479,5.2259,5.2858,5.2942,5.3078,5.345,5.3518,5.3348,5.2909,5.3585,5.3619,5.2657,5.3399,5.3854,5.3734,5.3483,5.3568,5.4025,5.3568,5.3365,5.3348,5.3144,5.2955,5.2746,5.2676,5.2569,5.2391,5.2391,5.2391,5.2491,5.35,5.3945,5.4011,5.4646,5.4698,5.439,5.3855,5.3649,5.3644,0.0,0.0,0.0,0.0,0.0,0.0,0.0,0.0,0.0,0.0,0.0,0.0,0.0,0.0,0.0,0.0,0.0,0.0,0.0,0.0,0.0,4.5755,4.4608,4.3394,4.2146,4.1867,4.0588,3.8297,3.6496,3.4885,3.3446,3.2912,3.2317,3.1663,3.1748,3.1373,3.0743,3.0731,3.097,3.1468,3.2471,3.3187,3.3702,3.4628,3.5152,3.5358,3.5385,3.5122,3.489,3.5308,0.0,0.0,0.0,0.0,3.3664,3.3889,3.3922,3.4135,3.5338,3.6841,3.8782,4.1561,4.2442,4.2765,4.32,4.3862,4.4511,4.5011,4.5784,4.6604,4.7353,4.8311,4.9012,4.9012,4.9556,5.0056,5.027,5.086,5.1554,5.2401,5.2503,5.2773,5.345,5.345,5.3399,5.3264,5.3957,5.3955,5.3006,5.3732,5.4137,5.4098,5.3565,5.3601,5.4363,5.3601,5.3179,5.3144,5.2938,5.2746,5.2553,5.2445,5.2458,5.259,5.2723,5.269,5.269,5.4078,5.4607,5.4556,5.5226,5.5509,5.544,5.4465,5.4178,5.432,0.0,0.0,0.0,0.0,0.0,0.0,0.0,0.0,0.0,0.0,0.0,0.0,0.0,0.0,0.0,0.0,0.0,0.0,4.6589,0.0,0.0,4.4621,4.3827,4.2808,4.1455,4.1187,3.9705,3.7044,3.6132,3.4979,3.3651,3.2901,3.2464,3.2333,3.1805,3.1467,3.1367,3.1249,3.1379,3.1696,3.2269,3.2757,3.3199,3.3361,3.3765,3.4323,3.4492,3.4683,3.4898,3.4832,3.4225,0.0,0.0,0.0,3.3232,3.3095,3.4168,3.5402,3.5431,3.773,4.0411,4.1718,4.3031,4.3896,4.3389,4.4225,4.5064,4.5105,4.6118,4.7176,4.7798,4.8523,4.9012,4.9012,4.9248,4.9809,5.0984,5.1311,5.1937,5.3196,5.3348,5.3382,5.3484,5.3348,5.2994,5.2337,5.296,5.3314,5.3161,5.345,5.3872,5.4497,5.3839,5.3416,5.3398,5.328,5.311,5.2938,5.2729,5.2587,5.2427,5.2409,5.2723,5.3283,5.3945,5.3846,5.3382,5.4839,5.5071,5.4622,5.5787,5.5861,5.5301,5.4971,5.4776,5.4639,0.0,0.0,0.0,0.0,0.0,0.0,0.0,0.0,0.0,0.0,0.0,0.0,0.0,0.0,0.0,5.0777,4.9231,4.7705,4.6568,4.4869,4.4021,4.4288,4.3411,4.2347,4.1105,4.0564,3.9117,3.6685,3.5639,3.4881,3.4363,3.3538,3.2983,3.2595,3.2225,3.1999,3.1866,3.1486,3.1668,3.2216,3.2341,3.2891,3.3603,3.3159,3.3414,3.3945,3.3652,3.3478,3.3377,3.319,3.289,3.2661,3.2907,0.0,0.0,0.0,3.4982,3.65,3.7568,3.9207,4.0924,4.2241,4.3068,4.3598,4.3754,4.4507,4.5241,4.5541,4.6329,4.7065,4.7343,4.7605,4.7961,4.8364,4.8868,4.9526,5.0469,5.1044,5.1704,5.2706,5.2841,5.301,5.345,5.3331,5.3061,5.2741,5.3295,5.3593,5.3488,5.3558,5.3962,5.47,5.3576,5.3191,5.3646,5.3121,5.2764,5.2622,5.2932,5.281,5.2424,5.2771,5.3135,5.3415,5.3746,5.3945,5.4111,5.5024,5.525,5.5014,5.5758,5.5929,5.5712,5.5357,5.5257,5.5355,0.0,0.0,0.0,0.0,0.0,0.0,0.0,0.0,0.0,0.0,0.0,0.0,0.0,0.0,0.0,0.0,4.9019,4.7452,4.5898,4.4789,4.4042,4.3665,4.3039,4.196,4.045,3.9889,3.8538,3.6452,3.5401,3.498,3.509,3.4408,3.3868,3.3445,3.3122,3.2868,3.2627,3.2288,3.2474,3.3017,3.3031,3.3429,3.4004,3.3564,3.3696,3.4014,3.3218,3.269,3.2337,3.1755,3.1619,3.1821,3.2537,3.3367,0.0,0.0,0.0,3.7335,3.9189,4.0262,4.112,4.2406,4.316,4.3688,4.4112,4.5072,4.5932,4.6231,4.6948,4.7498,4.7498,4.7171,4.7119,4.7896,4.8387,4.9076,5.0253,5.0794,5.1441,5.2486,5.2604,5.2824,5.3382,5.3415,5.3295,5.3075,5.3758,5.4151,5.4007,5.3825,5.4128,5.4862,5.3443,5.3096,5.3921,5.3356,5.293,5.2656,5.3169,5.3036,5.2424,5.2904,5.3217,5.3415,5.378,5.4276,5.4821,5.5377,5.5466,5.5328,5.5652,5.5886,5.5966,5.5552,5.5544,5.5763,0.0,0.0,0.0,0.0,0.0,0.0,0.0,0.0,0.0,0.0,0.0,0.0,5.1819,5.1545,5.0788,4.9171,4.8168,4.664,4.4268,4.4997,4.4521,4.2318,4.265,0.0,3.9139,3.906,3.8056,3.6023,3.5595,3.5453,3.5643,3.5289,3.5289,3.5517,3.4668,3.4151,3.3926,3.4277,3.4318,3.4145,3.4583,3.4427,3.399,3.4566,3.4729,3.4525,3.3399,3.2981,3.27,3.119,3.0746,3.1096,3.2462,3.3061,3.3626,0.0,0.0,0.0,3.9174,4.0291,4.123,4.1892,4.3576,4.4922,4.4319,4.614,4.7773,4.7148,4.8182,4.9186,4.9186,4.7939,4.7119,4.7896,4.769,4.8377,5.0899,5.0943,5.1413,5.3213,5.345,5.3382,5.323,5.3662,5.3585,5.2708,5.3956,5.4755,5.4755,5.4251,5.4307,5.5062,5.3656,5.3133,5.3707,5.4155,5.4063,5.3349,5.3382,5.3036,5.2391,5.2424,5.2804,5.3482,5.4872,5.5502,5.5582,5.6117,5.5927,5.5328,5.5652,5.5819,5.5766,5.5491,5.5409,5.5507,0.0,0.0,0.0,0.0,0.0,0.0,0.0,0.0,0.0,0.0,0.0,0.0,0.0,5.006,4.9835,4.9268,4.8501,4.6814,4.3881,4.4344,4.392,4.2044,4.1825,4.0897,3.9027,3.8575,3.7522,3.58,3.5672,3.5704,3.5894,3.5736,3.5621,3.5554,3.4881,3.4666,3.4756,3.4471,3.4467,3.4678,3.4736,3.4889,3.5015,3.4757,3.4677,3.4592,3.3758,3.3034,3.2447,3.2288,3.2364,3.2777,3.3785,3.4823,3.5863,3.704,3.8048,3.8923,3.9635,4.0554,4.1577,4.2659,4.3601,4.4433,4.5177,4.6089,4.6811,4.7103,4.758,4.8,4.8121,4.8021,4.8165,4.8916,4.8601,4.8875,5.049,5.0727,5.1178,5.2554,5.2739,5.2842,5.3179,5.3242,5.3318,5.329,5.3663,5.4122,5.4586,5.3996,5.3733,5.3999,5.3085,5.2884,5.3491,5.4181,5.4376,5.4111,5.4111,5.3713,5.3036,5.259,5.2771,5.3448,5.4326,5.4981,5.5443,5.6007,5.5962,5.5627,5.5568,5.5564,5.5523,5.5299,5.5216,5.5313,0.0,0.0,0.0,0.0,0.0,0.0,0.0,0.0,0.0,0.0,0.0,0.0,0.0,0.0,4.9119,4.8848,4.8386,4.6875,4.3941,4.4255,4.3763,4.2031,4.1551,4.0558,3.8929,3.8235,3.7301,3.6146,3.584,3.5911,3.632,3.6211,3.6137,3.6056,3.5707,3.5554,3.5554,3.5309,3.5184,3.5109,3.5059,3.5032,3.5017,3.4744,3.4768,3.4836,3.3658,3.3064,3.2774,3.2607,3.2749,3.3197,3.4605,3.6223,3.7735,3.8328,3.9017,3.9637,3.9997,4.0739,4.1735,4.2952,4.3521,4.4185,4.5758,4.6266,4.6711,4.7785,4.8038,4.8222,4.8604,4.8508,4.8441,4.8728,4.8487,4.866,4.9792,5.0093,5.0609,5.1794,5.1928,5.2133,5.269,5.2838,5.2999,5.3252,5.3805,5.4243,5.4475,5.4045,5.3548,5.3069,5.2837,5.2937,5.3382,5.4376,5.474,5.4508,5.474,5.4343,5.3382,5.2882,5.2912,5.3339,5.386,5.4547,5.5347,5.5811,5.5906,5.5766,5.5491,5.5348,5.5266,5.5155,5.5051,5.5085,0.0,0.0,0.0,0.0,0.0,0.0,0.0,0.0,0.0,4.9366,0.0,0.0,0.0,0.0,0.0,4.773,4.7659,4.667,4.4315,4.4655,4.4071,4.2147,4.1862,4.0777,3.8749,3.8026,3.7476,3.6973,3.6162,3.6179,3.6984,3.68,3.6907,3.7193,3.7178,3.6846,3.6335,3.6913,3.6534,3.5507,3.5653,3.4872,3.3802,3.4583,3.5091,3.5119,3.3056,3.2999,3.3711,3.2111,3.1677,3.2245,3.4792,3.7069,3.8852,3.9035,3.9493,3.9942,0.0,0.0,0.0,4.2612,4.335,4.4302,4.5932,4.6724,4.7593,4.9204,4.9658,5.001,5.0768,4.9274,4.777,4.7253,4.7151,4.7583,4.8862,4.9028,4.9543,5.0969,5.1151,5.1325,5.1732,5.2401,5.2713,5.2427,5.4309,5.5185,5.4475,5.439,5.378,5.2407,5.3018,5.3382,5.3382,5.4854,5.5218,5.4523,5.5251,5.4821,5.3397,5.3251,5.314,5.3118,5.3672,5.4432,5.5309,5.5652,5.5819,5.5746,5.5523,5.5246,5.5093,5.5093,5.4948,5.4888,0.0,0.0,0.0,0.0,0.0,0.0,4.7362,4.7553,4.7527,0.0,0.0,0.0,4.741,4.7876,4.777,4.6781,4.6675,4.5723,4.3493,4.3504,4.2905,4.1306,4.0484,3.9551,3.851,3.7923,3.7278,3.658,3.6626,3.6677,3.6785,3.7104,3.7346,3.7389,3.7014,3.6693,3.646,3.6457,3.6131,3.5637,3.5434,3.4784,3.3935,3.4167,3.3819,3.3117,3.2518,3.2546,3.2838,3.2809,3.3456,3.461,3.6753,3.8079,3.8889,3.9217,3.9796,4.0449,4.0975,0.0,0.0,0.0,0.0,0.0,4.559,4.5761,4.6076,4.7748,4.7358,4.7144,4.8564,4.7505,4.6449,4.6585,4.6159,4.6208,4.7356,4.752,4.8147,4.9853,5.0183,5.047,5.0978,5.1078,5.1474,5.2343,5.281,5.3001,5.2788,5.2116,5.1813,5.1977,5.2616,5.3052,5.3251,5.4533,5.5158,5.508,5.5158,5.4687,5.3748,5.3184,5.2885,5.2899,5.3463,5.4124,5.4901,5.5533,5.5685,5.5503,5.5278,5.5155,5.5072,5.4707,5.456,5.4528,0.0,0.0,0.0,0.0,0.0,4.5191,4.5573,4.5954,4.6032,0.0,0.0,0.0,4.6699,4.6819,4.6812,4.6648,4.6153,4.5128,4.3492,4.2638,4.1715,4.0624,3.9727,3.902,3.8453,3.7814,3.7348,3.7121,3.7047,3.7014,3.7029,3.7361,3.7391,3.715,3.6831,3.6352,3.5769,3.5513,3.5172,3.4801,3.4493,3.3801,3.2992,3.2951,3.2808,3.2538,3.2128,3.2755,3.3726,3.3411,3.4185,3.5477,3.6364,3.7452,3.8416,3.8531,3.9747,4.1052,4.1003,4.1927,4.3034,4.3629,0.0,0.0,4.5226,4.5066,4.5211,4.7193,4.6765,4.6433,4.7655,4.6679,4.5675,4.5503,4.4834,4.4751,4.604,4.6156,4.6729,4.8407,4.8636,4.8989,4.9943,4.9942,5.0371,5.1615,5.1867,5.1977,5.1962,5.1755,5.1518,5.1354,5.2286,5.2735,5.262,5.3902,5.4604,5.4739,5.4919,5.4776,5.4317,5.3501,5.3136,5.315,5.3363,5.3903,5.4617,5.5332,5.5503,5.5278,5.5155,5.4989,5.477,5.4518,5.4348,5.4263,0.0,0.0,0.0,4.3077,4.3615,4.4001,4.4089,4.503,4.5471,0.0,4.4935,4.5374,4.5762,4.5638,4.5844,4.6674,4.5625,4.4532,4.3661,4.1906,4.0612,4.004,3.9372,3.8852,3.8557,3.7765,3.7613,3.818,3.7421,3.7211,3.7495,3.748,3.718,3.6708,3.6616,3.5881,3.4701,3.4312,3.3842,3.3363,3.3144,3.244,3.149,3.1511,3.2023,3.2633,3.1876,3.3238,3.5264,3.4102,3.456,3.553,3.5094,3.6317,3.7866,3.7801,3.9651,4.1579,4.0924,4.233,4.3871,4.342,4.3425,0.0,4.4724,4.4558,4.4831,4.698,4.6911,4.6628,4.7358,4.6238,4.4989,4.4292,4.3499,4.3501,4.4998,4.5097,4.5504,4.6855,4.6989,4.7438,4.8646,4.8861,4.9387,5.0487,5.1237,5.1678,5.1739,5.238,5.2118,5.079,5.2113,5.2557,5.1874,5.3245,5.3965,5.3984,5.4717,5.4979,5.4763,5.3929,5.3474,5.3389,5.3207,5.3517,5.4261,5.494,5.5161,5.5093,5.5072,5.477,5.4412,5.4391,5.4242,5.4103,0.0,0.0,4.0406,4.0521,4.132,4.2149,4.2685,4.3569,4.4089,4.3909,4.4394,4.4901,4.5303,4.5103,4.4843,4.4543,4.3671,4.2695,4.1704,4.0786,4.0003,3.9419,3.8739,3.8557,3.8962,3.815,3.7983,3.8575,3.7793,3.7436,3.7495,3.7329,3.7074,3.6677,3.5975,3.5175,3.4346,3.3416,3.2575,3.1929,3.2191,3.1692,3.0846,3.1315,3.1319,3.1168,3.1951,3.2876,3.4029,3.5722,3.6266,3.6429,3.7606,3.8156,3.8587,3.9733,4.0636,4.1625,4.3056,4.3588,4.3795,4.396,4.4147,0.0,4.401,4.4104,4.4505,4.5553,4.4474,4.3944,4.5834,4.4388,4.3184,4.3922,4.3749,4.3832,4.4707,4.4919,4.5245,4.5844,4.6731,4.7143,4.6732,4.7356,4.8374,4.9715,5.0358,5.0866,5.1285,5.1461,5.1396,5.1104,5.2481,5.2928,5.2351,5.3662,5.4377,5.4555,5.506,5.4752,5.3629,5.3271,5.2785,5.2217,5.2022,5.236,5.3086,5.3772,5.4443,5.5072,5.4938,5.4676,5.4391,5.4221,5.4146,5.4103,0.0,3.9001,3.951,3.951,4.002,4.0558,4.0906,4.1448,4.1793,4.1773,4.2553,4.3379,4.4004,4.3854,4.3603,4.329,4.209,4.1143,4.0639,3.9697,3.9007,3.8715,3.8376,3.8482,3.9071,3.8619,3.8601,3.91,3.8638,3.8166,3.776,3.7779,3.723,3.6188,3.5598,3.4825,3.3906,3.3065,3.2174,3.1384,3.1668,3.1384,3.081,3.1275,3.1443,3.1518,3.2463,3.3595,3.4856,3.6353,3.6762,3.674,3.695,3.7625,3.8399,3.8719,4.0185,4.1868,4.2413,4.3554,4.4484,4.4054,4.4169,0.0,0.0,4.3555,4.3742,4.4509,4.3961,4.3556,4.4218,4.3604,4.2913,4.2697,4.2735,4.3007,4.3581,4.4064,4.4579,4.5184,4.5652,4.5931,4.6052,4.6493,4.7388,4.8951,4.996,5.0462,5.0368,5.0722,5.076,5.0518,5.1888,5.2314,5.1699,5.3045,5.3696,5.3696,5.3951,5.3858,5.3484,5.2664,5.2111,5.1738,5.164,5.2017,5.2753,5.3405,5.4333,5.524,5.4783,5.4465,5.4221,5.4146,5.4103,5.4103,3.6849,3.7773,3.8439,3.8439,3.8808,3.913,3.913,3.9538,3.987,3.9901,4.093,4.187,4.2504,4.2452,4.2273,4.2023,4.0591,3.9683,3.9609,3.8652,3.8089,3.8127,3.8221,3.8557,3.918,3.8968,3.9051,3.9507,3.9175,3.8634,3.7915,3.802,3.7171,3.5551,3.523,3.4387,3.3166,3.2783,3.2049,3.1155,3.1498,3.1315,3.0877,3.1372,3.1896,3.2507,3.3415,3.4794,3.6278,3.6912,3.715,3.7054,3.6314,3.7134,3.8311,3.7949,4.0001,4.2351,4.1956,4.3599,4.5162,4.4155,4.4025,4.3981,0.0,0.0,0.0,4.3681,4.379,4.3591,4.2996,4.3002,4.2668,4.1448,4.1582,4.2022,4.2486,4.3151,4.3762,4.4225,4.4338,4.4642,4.52,4.5792,4.6692,4.8108,4.9528,5.0089,4.9515,5.0301,5.0499,4.9971,5.1193,5.1559,5.1064,5.2286,5.2946,5.2893,5.3053,5.3245,5.3469,5.2277,5.1605,5.135,5.1291,5.1686,5.242,5.3091,5.4019,5.5016,5.455,5.4359,5.4292,5.4092,5.406,5.4103,3.4583,3.533,3.5648,3.5648,3.6845,3.7834,3.7834,3.8807,3.9742,4.0256,4.0897,4.1384,4.146,4.1296,4.0823,3.9934,3.8969,3.8281,3.7902,3.7749,3.7758,3.7929,3.8288,3.8815,3.9625,3.8986,3.8931,3.9507,3.8469,3.7839,3.7547,3.7032,3.6183,3.5056,3.4611,3.3438,3.1764,3.2169,3.1788,3.1001,3.1801,3.1523,3.0753,3.1738,3.2514,3.3322,3.507,3.6215,3.7069,3.8231,3.8271,3.7962,3.8966,3.9194,3.9353,4.0744,4.2003,4.326,4.487,4.5144,4.4893,4.4634,4.4288,4.3752,4.2752,0.0,4.3714,4.3127,0.0,4.2365,4.2833,0.0,0.0,4.1099,4.1421,4.1808,4.2348,4.2904,4.2947,4.2072,4.3469,4.3994,4.2757,4.4956,4.666,4.7215,4.8568,4.9419,4.9484,5.0608,5.0988,5.0531,5.1236,5.1588,5.1524,5.2325,5.3009,5.3597,5.4269,5.3949,5.2797,5.2455,5.161,5.0432,5.0216,5.0517,5.1265,5.191,5.268,5.3418,5.4137,5.4644,5.4913,5.4118,5.3962,5.4038,3.3102,3.3614,0.0,3.4269,3.4984,3.562,3.5986,3.6872,3.8156,3.9875,4.0293,4.0518,4.074,4.0595,3.9947,3.8684,3.8121,3.7796,3.7625,3.7605,3.7644,3.772,3.7891,3.8352,3.9162,3.8756,3.8823,3.939,3.879,3.8079,3.727,3.7055,3.6163,3.4741,3.4225,3.3555,3.28,3.3029,3.2659,3.199,3.3329,3.3147,3.2089,3.2541,3.3367,3.436,3.5467,3.6551,3.7597,3.801,3.8527,3.8966,3.8749,3.9316,4.0069,4.0071,4.1336,4.2965,4.3763,4.4108,4.4289,4.4353,4.3774,4.3119,4.2894,4.2864,4.2847,4.2668,0.0,0.0,0.0,0.0,0.0,0.0,4.0982,4.1148,4.1272,4.1358,4.1791,4.2828,4.3238,4.3178,4.2491,4.4449,4.5828,4.6046,4.7669,4.8656,4.8798,4.9644,5.0096,5.001,5.0414,5.06,5.06,5.1451,5.198,5.2134,5.2431,5.2272,5.17,5.1187,5.064,5.007,4.9951,5.0563,5.1606,5.1891,5.2881,5.4239,5.4242,5.4347,5.447,5.397,5.4106,5.4411,3.1159,0.0,0.0,3.2833,3.3197,3.372,3.4501,3.5349,3.6703,3.89,3.9341,3.952,3.9779,3.9708,3.9108,3.7691,3.7452,3.7375,3.7433,3.7452,3.7471,3.7529,3.7615,3.7976,3.8631,3.849,3.862,3.8994,3.8646,3.792,3.6881,3.6689,3.5778,3.4286,3.3863,3.3592,3.3394,3.3658,3.345,3.3094,3.4439,3.4537,3.3842,3.3862,3.4444,3.5365,3.6062,3.6975,3.7942,3.8137,3.8815,3.9416,3.8664,3.9367,4.0294,3.9613,4.0942,4.2731,4.327,4.3589,4.3849,4.4263,4.3456,4.26,4.2809,4.2604,4.243,4.2591,4.2639,0.0,0.0,0.0,4.1513,4.0511,0.0,4.0379,4.027,4.0057,4.0631,4.2582,4.2525,4.2401,4.2609,4.3903,4.4881,4.5252,4.6586,4.7635,4.8171,4.8787,4.925,4.9533,4.983,5.0016,5.0016,5.0701,5.1089,5.1177,5.1198,5.1123,5.0963,5.0437,5.0216,5.0216,5.0216,5.108,5.2586,5.2586,5.3576,5.5039,5.4512,5.4175,5.3974,5.3758,5.4016,5.4294,2.8325,3.0086,3.1466,3.0891,3.154,3.2559,3.374,3.4767,3.5894,3.7215,3.801,3.8389,3.8279,3.8457,3.8058,3.6828,3.6741,3.6792,3.6998,3.7017,3.7095,3.7289,3.7692,3.7995,3.8221,3.8221,3.8221,3.824,3.7462,3.6814,3.6306,3.5454,3.4529,3.3509,3.3444,3.3081,3.2613,3.3507,3.3894,3.3897,3.4474,3.5102,3.5707,3.5785,3.5876,3.6133,3.7374,3.7858,3.8074,3.9311,3.9388,3.9022,3.9556,3.9781,3.995,4.0463,4.1618,4.3126,4.4971,4.459,4.383,4.4805,4.3734,4.2319,4.2023,4.2586,4.3181,4.3181,4.3693,4.3866,4.2997,4.2164,4.1269,0.0,3.9742,0.0,0.0,3.9502,3.9618,4.0084,4.091,4.177,4.2609,4.3209,4.405,4.52,4.5309,4.6059,4.7822,4.8427,4.8914,4.9311,4.9935,5.0278,5.0278,5.031,5.0788,5.1685,5.1675,5.1422,5.0994,5.0963,5.0963,5.0963,5.0963,5.2133,5.404,5.404,5.4429,5.507,5.4873,5.4376,5.3767,5.3518,5.3431,5.3365,2.8124,0.0,2.9851,2.972,3.0419,3.1374,3.2581,3.3386,3.4585,3.6674,3.6883,3.7073,3.7731,3.7753,3.7321,3.6385,3.6425,3.6544,3.6595,3.6595,3.6634,3.6693,3.6831,3.6998,3.7211,3.6755,3.6618,3.6727,3.6044,3.546,3.5032,3.4605,3.4064,3.3423,3.3625,3.3629,3.3507,3.4525,3.4753,3.4522,3.539,3.6709,3.8033,3.7449,3.7254,3.736,3.8265,3.8291,3.8082,3.918,3.9242,3.8974,3.9404,3.9943,4.035,4.0175,4.0971,4.2223,4.3314,4.2913,4.2495,4.3728,4.2694,4.1616,4.2599,4.2619,4.2721,4.3568,4.3585,4.328,4.2687,4.2103,4.1593,0.0,0.0,3.9665,0.0,3.916,3.896,3.952,4.1027,4.1694,4.0986,4.2243,4.2853,4.223,4.3943,4.5081,4.5304,4.7173,4.815,4.7978,4.8749,4.9264,4.946,4.9573,4.982,5.01,5.012,5.0097,5.0079,5.0583,5.0853,5.1026,5.1448,5.2586,5.4103,5.4103,5.4767,5.5756,5.5062,5.4549,5.4121,5.3463,5.3468,5.3867,2.761,2.8143,2.8658,2.8782,2.9568,3.0452,3.1324,3.2409,3.3776,3.5609,3.6025,3.6389,3.7052,3.7103,3.6817,3.6173,3.6226,3.6408,3.6709,3.6515,3.6488,3.6709,3.6296,3.6118,3.623,3.5839,3.5675,3.5812,3.5497,3.5189,3.485,3.437,3.4028,3.3864,3.3888,3.4123,3.4525,3.5413,3.5707,3.5649,3.6781,3.8111,3.9442,3.9119,3.88,3.8574,3.8691,3.8547,3.8391,3.9236,3.918,3.885,3.9383,4.0019,4.0503,4.0111,4.0935,4.2122,4.2947,4.2726,4.2545,4.37,4.2916,4.2124,4.3116,4.3134,4.3134,4.3903,4.401,4.3653,4.2628,4.2448,4.2088,0.0,0.0,3.965,0.0,3.8391,3.831,3.9192,4.1,4.1766,4.0771,4.1918,4.2455,4.1752,4.293,4.3936,4.4498,4.635,4.7325,4.719,4.8284,4.8911,4.9088,4.9089,4.9232,4.9563,4.9314,4.9311,4.9513,5.0064,5.0636,5.1272,5.1786,5.2913,5.4482,5.4735,5.5241,5.5756,5.5256,5.4657,5.3979,5.3321,5.3245,5.3505,2.6803,2.7394,2.7997,2.8143,2.9084,2.9872,3.0117,3.1911,3.3438,3.4058,3.5335,3.6195,3.6195,3.6429,3.6423,3.604,3.6026,3.6325,3.7064,3.6608,3.6553,3.7111,3.6001,3.5358,3.5358,3.5436,3.5468,3.5468,3.5765,3.5837,3.5616,3.4681,3.4376,3.4678,3.4176,3.455,3.5577,3.6106,3.6693,3.7322,3.8489,3.9311,3.9959,4.0616,4.0451,3.9746,3.8929,3.8768,3.9058,3.9655,3.9264,3.8727,3.9571,4.0124,4.0427,4.0356,4.1396,4.2803,4.3873,4.3861,4.3741,4.4641,4.4291,4.3671,4.3474,4.389,4.4306,4.4156,4.4778,4.4791,4.2847,4.3014,4.2616,4.0148,0.0,3.9419,3.7713,3.7322,3.7692,3.895,4.0677,4.1749,4.1755,4.2181,4.2728,4.3409,4.2239,4.2621,4.5206,4.5972,4.6521,4.7003,4.848,4.9258,4.931,4.8827,4.9057,4.9915,4.9316,4.9129,4.9322,4.9555,5.0409,5.1738,5.2009,5.3239,5.5197,5.5873,5.5778,5.5238,5.5368,5.4594,5.3334,5.3144,5.2743,5.2352,2.6895,2.7806,2.8559,2.9065,2.9388,2.9847,3.0637,3.1694,3.2616,3.324,3.4145,3.4781,3.4883,3.4944,3.4805,3.4356,3.4771,3.4927,3.4648,3.4953,3.4968,3.4648,3.4677,3.4727,3.4727,3.4988,3.5028,3.4828,3.4962,3.4903,3.4655,3.4597,3.462,3.4703,3.4979,3.5461,3.6129,3.6678,3.7652,3.8919,3.9241,4.0049,4.1018,4.0554,4.0491,4.0608,4.0606,4.0309,4.0024,4.0463,4.0154,3.9701,4.0228,4.0686,4.1068,4.1046,4.1677,4.2532,4.3322,4.3086,4.2896,4.3952,4.356,4.3118,4.3882,4.3821,4.3747,4.4334,4.4042,4.3382,4.2493,4.1736,4.0956,4.0144,3.9383,3.8511,3.7361,3.7413,3.796,3.9049,3.9513,3.9792,3.9876,4.0935,4.1178,4.0063,4.0863,4.197,4.318,4.545,4.686,4.722,4.824,4.888,4.9083,4.9106,4.8988,4.8735,4.9272,4.9614,4.9854,5.0382,5.1224,5.2268,5.3014,5.4222,5.5606,5.5468,5.5882,5.6532,5.518,5.3934,5.2877,5.281,5.2473,5.2246,2.6591,2.7512,2.8544,2.9503,2.9625,2.9869,3.0733,3.1717,3.2385,3.2468,3.3028,3.3415,3.3336,3.3588,3.3824,3.3866,3.434,3.4571,3.4439,3.4659,3.4637,3.4291,3.4246,3.4246,3.4246,3.4797,3.4888,3.4502,3.5136,3.5307,3.5036,3.4835,3.5088,3.5752,3.5688,3.6315,3.7379,3.8181,3.9186,4.0203,3.9907,4.0267,0.0,4.0391,4.0436,4.0801,4.0935,4.0658,4.0203,4.0426,4.0399,4.0316,4.0926,4.1259,4.1517,4.206,4.2587,4.3178,4.4025,4.3872,4.3624,4.4282,4.3827,4.3417,4.4132,4.401,4.3857,4.4263,4.3689,4.2886,4.2068,4.1261,4.0378,3.9294,3.8299,3.742,3.6871,3.7126,3.7798,3.8934,3.893,3.8796,3.8742,3.9397,3.9665,3.9342,3.9967,4.1022,4.2579,4.4835,4.6395,4.7114,4.7973,4.8673,4.9268,4.9183,4.9173,4.9157,4.9705,5.0091,5.0335,5.0812,5.1446,5.2259,5.3215,5.4298,5.5359,5.5633,5.5889,5.5988,5.4452,5.3374,5.2737,5.3014,5.2841,5.2579,2.649,2.7281,2.8477,2.9703,2.9943,3.0146,3.0726,3.1868,3.2472,3.2021,3.2377,3.2491,3.2035,3.2539,3.3139,3.3652,3.4038,3.4444,3.4882,3.4827,3.474,3.4673,3.4183,3.3888,3.3865,3.4748,3.4944,3.4459,3.5697,3.616,3.5884,3.5318,3.5765,3.7013,3.6409,3.714,3.8903,4.0024,4.0737,4.1059,4.054,4.0268,4.021,4.0268,4.0405,4.0558,4.0722,4.0579,4.0283,4.0228,4.0354,4.0722,4.1475,4.1608,4.1755,4.2955,4.3624,4.418,4.5132,4.5161,4.4939,4.4848,4.4352,4.3924,4.417,4.4147,4.4059,4.3918,4.3518,4.2811,4.158,4.0969,4.0042,3.8226,3.7133,3.65,3.6471,3.6879,3.7591,3.8559,3.8518,0.0,3.7903,3.7913,3.846,3.9686,3.9296,4.0138,4.2721,4.4227,4.5636,4.7037,4.7859,4.876,4.9787,4.9398,4.9609,5.0398,5.042,5.0572,5.082,5.1015,5.1472,5.2144,5.3099,5.4005,5.4925,5.5848,5.5581,5.4464,5.3503,5.2953,5.2768,5.333,5.3308,5.3095,2.8386,2.9204,2.9708,3.0005,3.073,3.1322,3.142,3.1908,3.242,3.2761,3.3254,3.3244,3.2402,3.2428,3.2266,3.1596,3.2445,3.2826,3.238,3.343,3.3744,3.2981,3.3598,3.3909,3.3744,3.4703,3.5066,3.4727,3.5429,3.5622,3.538,3.6045,3.6516,3.6779,3.7258,3.8172,3.9438,4.0514,4.1017,4.1086,4.0978,4.0648,4.0241,4.0757,4.0671,4.0391,4.1397,4.1809,4.1827,4.1311,4.1068,4.102,4.1175,4.1397,4.1719,4.2514,4.3573,4.4528,4.4709,4.4721,4.4549,4.4036,4.3538,4.3301,4.3711,4.337,4.3051,4.3378,4.2957,4.2278,4.1313,3.9545,3.8186,3.8088,3.729,3.6736,3.6861,3.7712,3.8175,3.7701,3.7422,3.7118,3.6656,3.7538,3.8128,3.804,3.874,4.0138,4.2385,4.3853,4.5629,4.7913,4.8488,4.9461,5.0917,5.0509,5.0517,5.0885,5.1056,5.1277,5.1528,5.1572,5.1942,5.2642,5.3568,5.4386,5.5021,5.4838,5.4224,5.3375,5.3184,5.2953,5.2684,5.2595,5.2742,5.3155,2.9784,2.9806,2.9715,3.026,3.0764,3.1202,3.1597,3.204,3.2293,3.2128,3.2318,3.2044,3.1005,3.1239,3.1475,3.1552,3.2202,3.2578,3.2512,3.3434,3.3672,3.2959,3.3743,3.4149,3.4076,3.4943,3.5405,3.5428,3.5644,3.5805,3.5929,3.6278,3.6716,3.7293,3.8826,3.9803,4.038,4.121,4.1385,4.1059,4.0757,4.0268,3.978,4.0404,4.0648,4.0757,4.1327,4.1995,4.2525,4.1926,4.1855,4.2049,4.2074,4.1988,4.2138,4.3532,4.4182,4.4667,4.5717,4.549,4.4879,4.4599,4.3847,4.3195,4.3427,4.3258,4.3068,4.325,4.2551,4.1381,3.9727,3.8611,3.7732,3.7249,3.6903,3.6874,3.7307,3.8095,3.8395,3.7838,3.7674,3.7272,3.6398,3.714,3.7316,3.6407,3.7892,3.9569,4.1274,4.3227,4.5425,4.7917,4.8456,4.9416,5.0988,5.0564,5.0766,5.1516,5.1599,5.1848,5.2236,5.2236,5.2368,5.276,5.3551,5.4127,5.4543,5.4338,5.3937,5.3402,5.3032,5.2788,5.2715,5.2795,5.2878,5.3102,3.0517,3.007,2.9717,3.0478,3.0684,3.0914,3.1471,3.2138,3.2335,3.1664,3.1499,3.1061,2.9962,3.0443,3.1113,3.1808,3.2252,3.2675,3.3096,3.3684,3.3872,3.3543,3.419,3.4622,3.4741,3.5544,3.6015,3.6151,3.6199,3.642,3.669,3.6644,3.722,3.8301,4.004,4.0932,4.1113,4.1625,4.1462,4.0865,4.0377,3.9916,3.9563,4.016,4.0784,4.1303,4.1439,4.2086,4.2819,4.2358,4.2412,4.2746,4.2962,4.2701,4.2716,4.4654,4.4979,4.5038,4.6471,4.6112,4.5214,4.4945,4.3967,4.313,4.326,4.322,4.31,4.31,4.1976,4.0423,3.8525,3.8067,3.7689,3.6755,3.6791,3.726,3.8051,3.8693,3.8871,3.8319,3.8276,3.7668,3.6137,3.6626,3.6453,3.5114,3.6972,3.8842,4.0484,4.2479,4.4857,4.7635,4.8365,4.9468,5.1001,5.0587,5.1012,5.2214,5.2063,5.2254,5.2676,5.2676,5.2676,5.2737,5.3414,5.3805,5.3987,5.3987,5.3812,5.3445,5.3045,5.2891,5.2961,5.3377,5.342,5.3284,3.0139,3.0521,3.0704,3.0601,3.096,3.1189,3.108,3.209,3.2746,3.2424,3.2379,3.1987,3.0973,3.1365,3.1526,3.1135,3.1964,3.254,3.2562,3.3315,3.3904,3.4274,3.4847,3.536,3.5836,3.6644,3.6899,3.6625,3.7157,3.7308,3.7073,3.772,3.8717,3.9956,3.9941,4.0364,4.1086,4.1168,4.0838,4.0268,4.0214,4.0183,4.016,4.0784,4.1408,4.2005,4.2548,4.2792,4.2873,4.2819,4.2493,4.2178,4.287,4.3082,4.3404,4.4873,4.5677,4.6006,4.5583,4.5394,4.5005,4.3788,4.297,4.2631,4.319,4.288,4.25,4.25,4.0984,3.9547,3.9165,3.8102,3.7346,3.7546,3.7739,3.8299,3.9522,4.0282,4.0191,3.8806,3.8644,3.7692,3.5163,3.5859,3.5927,3.4578,3.6032,3.8166,4.0985,4.1649,4.3634,4.7318,4.8735,5.0147,5.1689,5.1327,5.1703,5.2882,5.2275,5.2254,5.2676,5.2676,5.2676,5.2737,5.3414,5.3714,5.3737,5.3737,5.3375,5.2829,5.3383,5.3599,5.3668,5.4135,5.4121,5.3951,3.141,3.1538,3.1535,3.1459,3.1892,3.2234,3.2153,3.2944,3.333,3.2581,3.2513,3.2237,3.1547,3.1663,3.1824,3.1892,3.2283,3.2766,3.3361,3.3843,3.4418,3.5086,3.5183,3.5531,3.6208,3.66,3.6899,3.716,3.7382,3.7451,3.7451,3.7093,3.7429,3.8375,4.0087,4.0864,4.085,4.104,4.0951,4.073,4.0373,4.021,4.0318,4.1272,4.2005,4.2575,4.2792,4.3142,4.3386,4.3033,4.3023,4.3187,4.3104,4.3697,4.4509,4.5102,4.5781,4.6241,4.5971,4.5603,4.5065,4.4117,4.3399,4.312,4.3758,4.3399,4.294,4.294,4.1204,3.9524,3.9049,3.8512,3.8328,3.8863,3.9298,3.9818,4.0574,4.0566,3.9884,3.8299,3.7903,3.689,3.4774,3.5835,3.6489,3.6114,3.712,3.8259,3.9464,4.1033,4.3306,4.6381,4.7938,4.9457,5.0999,5.1137,5.1513,5.2157,5.2054,5.2155,5.2465,5.2631,5.2676,5.2706,5.2983,5.3106,5.3106,5.3106,5.2922,5.279,5.3445,5.3691,5.376,5.4227,5.4552,5.4775,3.2084,3.2243,3.2336,3.2335,3.2753,3.3079,3.3118,3.3683,3.3765,3.2735,3.2946,3.281,3.1893,3.2054,3.2375,3.272,3.2881,3.3224,3.3958,3.4259,3.465,3.5205,3.5373,3.5698,3.6259,3.6551,3.6898,3.7282,3.7556,3.7657,3.7591,3.7289,3.7495,3.8241,4.0861,4.1761,4.1339,4.1555,4.1412,4.1059,4.0648,4.0567,4.0811,4.1679,4.2358,4.2925,4.3115,4.3332,4.3519,4.3494,4.3875,4.4246,4.3799,4.452,4.5537,4.5811,4.6232,4.654,4.636,4.5813,4.5185,4.4706,4.3938,4.3489,4.4147,4.3788,4.313,4.2585,4.086,3.9196,3.8478,3.8683,3.9049,3.9396,4.0187,4.1018,4.1664,4.1028,4.0019,3.8734,3.7915,3.6733,3.4823,3.5935,3.6885,3.7068,3.7979,3.8653,3.8989,4.0971,4.3153,4.5522,4.7754,4.9298,5.0206,5.0881,5.1393,5.1718,5.1903,5.2132,5.2419,5.2608,5.2676,5.2676,5.2676,5.2676,5.2676,5.2676,5.2676,5.2768,5.366,5.3999,5.4068,5.4842,5.5337,5.5584,3.1537,3.242,3.3109,3.3168,3.3376,3.3558,3.3659,3.4103,3.4032,3.3035,3.3988,3.4004,3.2008,3.2697,3.3269,3.3294,3.3706,3.3981,3.4004,3.4259,3.4411,3.4411,3.5437,3.5979,3.6002,3.6767,3.7023,3.6724,3.7836,3.803,3.7449,3.8883,4.0039,4.0925,4.2339,4.2923,4.2873,4.2873,4.2195,4.1086,4.1086,4.1462,4.1978,4.2005,4.2358,4.2979,4.3576,4.3413,4.3103,4.4429,4.4969,4.5104,4.5075,4.5582,4.6329,4.7062,4.7279,4.716,4.648,4.5813,4.5304,4.5274,4.4296,4.3489,4.4147,4.3788,4.2773,4.092,3.9449,3.8244,3.7383,3.8349,3.9136,3.8711,4.0066,4.1625,4.2901,4.1987,4.1068,4.0723,3.9298,3.7538,3.5381,3.6159,3.6791,3.6791,3.8046,3.9259,4.0312,4.1589,4.3085,4.486,4.8533,5.0147,4.9522,5.0643,5.1463,5.2002,5.2002,5.2254,5.2676,5.2676,5.2676,5.2676,5.2676,5.2676,5.2676,5.2676,5.2676,5.2829,5.4183,5.4706,5.486,5.6262,5.6609,5.6397,3.2476,3.3034,3.3374,3.3382,3.4052,3.4497,3.421,3.4735,3.4906,3.4291,3.4549,3.4555,3.3938,3.4119,3.4326,3.4326,3.4463,3.4693,3.5014,3.5116,3.5386,3.5918,3.5819,3.6152,3.7073,3.6976,3.704,3.7237,3.7787,3.7866,3.7592,3.9519,4.0414,4.0512,4.2612,4.3439,4.3251,4.3448,4.3305,4.2952,4.2952,4.306,4.3278,4.3687,4.3959,4.4094,4.3875,4.3685,4.359,4.4093,4.4344,4.4577,4.5557,4.6351,4.6915,4.6685,4.6929,4.716,4.648,4.6151,4.5873,4.5394,4.4975,4.4736,4.4945,4.3914,4.2403,4.077,3.9495,3.8777,3.9059,3.9349,3.9972,4.1196,4.2032,4.2479,4.2268,4.1349,4.0086,3.8364,3.7318,3.6274,3.5034,3.6235,3.7068,3.7068,3.8543,3.9471,3.9646,4.1534,4.3287,4.4705,4.7463,4.9534,5.0849,5.1089,5.1509,5.2124,5.2053,5.2254,5.2676,5.2676,5.2676,5.2676,5.2676,5.2676,5.2676,5.2676,5.2676,5.2829,5.4183,5.4706,5.486,5.6293,5.6737,5.6664,3.2795,3.3402,3.3805,3.3542,3.4374,3.4962,3.4706,3.5207,3.5474,3.5103,3.5244,3.529,3.5083,3.5244,3.5267,3.5083,3.506,3.5198,3.547,3.5626,3.5775,3.5971,3.6025,3.6263,3.6685,3.6567,3.658,3.6788,3.7562,3.7922,3.7959,4.0266,4.1204,4.1091,4.3299,4.4264,4.4221,4.4397,4.4364,4.4146,4.4146,4.4146,4.4174,4.4284,4.4339,4.4312,4.3929,4.3827,4.3949,4.4549,4.4817,4.5085,4.6256,4.7109,4.7549,4.6869,4.6958,4.7219,4.6779,4.648,4.6271,4.6082,4.5484,4.4835,4.4514,4.3214,4.1831,4.092,4.0081,3.9613,3.9944,4.0272,4.0871,4.2021,4.2699,4.2737,4.17,4.0681,3.9347,3.7419,3.6483,3.5834,3.5424,3.6579,3.7442,3.7665,3.9231,4.0187,4.0247,4.2421,4.4015,4.4809,4.7821,4.9993,5.1114,5.1679,5.2085,5.236,5.2213,5.2314,5.2676,5.2676,5.2676,5.2676,5.2676,5.2676,5.2676,5.2676,5.2676,5.2799,5.3906,5.4491,5.4829,5.5985,5.657,5.681,3.27,3.3573,3.4268,3.3741,3.4415,3.5046,3.5174,3.5568,3.5809,3.5627,3.6071,3.6213,3.5699,3.6121,3.6213,3.5699,3.5585,3.5566,3.5566,3.5855,3.5697,3.4949,3.6077,3.6284,3.5318,3.574,3.5868,3.5655,3.7228,3.8183,3.8546,4.1015,4.2294,4.2469,4.4301,4.5276,4.5587,4.5641,4.5343,4.4827,4.4827,4.48,4.4691,4.4146,4.3875,4.3818,4.3868,4.3922,4.4218,4.5562,4.6073,4.6277,4.7062,4.7728,4.8087,4.7489,4.7339,4.7369,4.7309,4.6839,4.651,4.71,4.5702,4.4026,4.3209,4.2016,4.1117,4.1245,4.0972,4.0621,4.0188,4.104,4.1773,4.1617,4.2317,4.2492,4.1347,4.011,3.8859,3.758,3.664,3.6228,3.6456,3.7221,3.7941,3.8514,4.0027,4.1199,4.1864,4.4018,4.5237,4.5148,4.9243,5.1198,5.0661,5.2299,5.293,5.256,5.236,5.2419,5.2676,5.2676,5.2676,5.2676,5.2676,5.2676,5.2676,5.2676,5.2676,5.279,5.3445,5.4122,5.4799,5.5468,5.617,5.681,3.3988,3.3988,3.4175,3.4851,3.5156,3.5461,3.5954,3.642,3.6695,3.6663,3.7127,3.7407,3.7265,3.7356,3.7379,3.7265,3.653,3.6121,3.6121,3.6175,3.6156,3.596,3.6058,3.6191,3.634,3.6074,3.5998,3.6125,3.7537,3.8629,3.9429,4.1271,4.258,4.3484,4.459,4.5276,4.5614,4.6101,4.621,4.6074,4.6074,4.5803,4.537,4.5232,4.4608,4.3868,4.4431,4.4355,4.4205,4.5671,4.5835,4.5632,4.6913,4.7429,4.7519,4.7369,4.7668,4.7938,4.7429,4.7189,4.698,4.6629,4.4962,4.3387,4.3325,4.1992,4.0802,4.0852,4.1016,4.1112,4.1001,4.1613,4.2435,4.3387,4.3138,4.2406,4.1195,4.0214,3.891,3.7046,3.7047,3.7253,3.7307,3.8288,3.8969,3.9112,4.0395,4.1674,4.2718,4.5342,4.6746,4.6686,4.9317,5.1235,5.2264,5.2401,5.2341,5.2122,5.2086,5.2269,5.2676,5.2676,5.2676,5.2676,5.2676,5.2676,5.2676,5.2676,5.2676,5.279,5.3445,5.4122,5.4799,5.5468,5.617,5.6693,3.4441,3.4469,3.4674,3.5413,3.5541,3.5736,3.6346,3.6657,3.6959,3.7328,3.7609,3.7701,3.7471,3.7448,3.7356,3.7132,3.6805,3.6622,3.6622,3.6419,3.6305,3.6305,3.6271,3.6329,3.6499,3.6584,3.7068,3.7952,3.8858,3.9729,4.0639,4.2161,4.2995,4.3298,4.4127,4.4705,4.5026,4.5507,4.5857,4.6101,4.6101,4.6074,4.5993,4.5695,4.5017,4.4248,4.4737,4.4737,4.4666,4.5814,4.616,4.6275,4.706,4.7519,4.7698,4.7399,4.7758,4.8169,4.7489,4.7309,4.7048,4.5985,4.4299,4.2967,4.3161,4.2071,4.1175,4.1787,4.2122,4.2289,4.2126,4.2496,4.3053,4.3891,4.3183,4.2111,4.0845,4.0065,3.8944,3.7071,3.7392,3.7919,3.8332,3.9169,3.9727,3.9841,4.1238,4.2656,4.3992,4.6357,4.7793,4.8005,5.0502,5.227,5.3228,5.2995,5.2718,5.2457,5.2238,5.2337,5.2676,5.2676,5.2676,5.2676,5.2676,5.2676,5.2676,5.2676,5.2676,5.2737,5.3106,5.3845,5.4737,5.5106,5.5684,5.6231,3.4812,3.5102,3.5457,3.5916,3.5995,3.6194,3.6816,3.69,3.7121,3.7718,3.7862,3.7724,3.7168,3.7191,3.7081,3.6695,3.6943,3.7053,3.6892,3.6507,3.6305,3.6305,3.6591,3.6638,3.6419,3.7284,3.838,3.9665,4.0266,4.0889,4.1531,4.289,4.3191,4.2637,4.3444,4.3968,4.4251,4.4563,4.5044,4.5587,4.5587,4.5911,4.6318,4.5803,4.5234,4.4763,4.5104,4.5232,4.5362,4.623,4.6867,4.7309,4.7309,4.7758,4.8169,4.7489,4.7758,4.8169,4.7489,4.7198,4.6783,4.548,4.3954,4.2849,4.3097,4.2307,4.186,4.3122,4.3505,4.352,4.3268,4.3462,4.3753,4.3902,4.3069,4.191,4.0672,3.9984,3.9107,3.7596,3.7998,3.8674,3.9422,3.9982,4.0513,4.0907,4.2193,4.3677,4.5358,4.7298,4.8677,4.9357,5.2013,5.3507,5.3769,5.3554,5.3252,5.2891,5.249,5.2419,5.2676,5.2676,5.2676,5.2676,5.2676,5.2676,5.2676,5.2676,5.2676,5.2706,5.2799,5.3599,5.4706,5.4829,5.5199,5.5684,3.6347,3.6085,3.6179,3.713,3.7314,3.7517,3.82,3.8286,3.8177,3.7839,3.8183,3.8252,3.7724,3.8068,3.8321,3.8258,3.7885,3.7311,3.6465,3.635,3.6305,3.6305,3.6718,3.6948,3.6892,3.824,3.8801,3.8567,4.0071,4.0769,4.0645,4.1809,4.2404,4.255,4.3429,4.3823,4.3907,4.4474,4.5044,4.5587,4.5587,4.5641,4.5723,4.5641,4.5234,4.4868,4.6183,4.6305,4.6096,4.7517,4.767,4.7309,4.7309,4.7758,4.8169,4.7489,4.7758,4.8169,4.7489,4.674,4.6142,4.5892,4.4516,4.3316,4.3753,4.3148,4.2639,4.3202,4.3735,4.4015,4.3743,4.4196,4.4581,4.4553,4.3774,4.2693,4.1466,4.0742,3.9878,3.8616,3.9454,4.0184,4.0312,4.0999,4.1883,4.2948,4.2799,4.3828,4.6489,4.811,4.967,5.1233,5.2658,5.3475,5.3651,5.3062,5.2628,5.2414,5.2314,5.2419,5.2676,5.2676,5.2676,5.2676,5.2676,5.2676,5.2676,5.2676,5.2676,5.2737,5.3322,5.4029,5.4768,5.5345,5.5592,5.5622,3.7352,3.7265,3.7328,3.8021,3.803,3.8147,3.8641,3.867,3.8596,3.8596,3.8826,3.878,3.8304,3.8436,3.8459,3.8183,3.793,3.7614,3.7155,3.7109,3.7109,3.7109,3.7311,3.7788,3.8545,3.8974,3.9644,4.0572,4.1267,4.1517,4.1386,4.2345,4.256,4.2119,4.2952,4.3421,4.3622,4.4045,4.4746,4.5587,4.5587,4.5803,4.6074,4.6074,4.5505,4.4893,4.6417,4.6343,4.5769,4.7244,4.7549,4.7309,4.7309,4.7519,4.7698,4.7399,4.7519,4.7698,4.7399,4.6658,4.5878,4.5416,4.4293,4.3407,4.3704,4.3466,4.3394,4.4126,4.4767,4.5178,4.5062,4.529,4.5427,4.5172,4.3831,4.2555,4.176,4.098,4.0357,4.0148,4.0714,4.1209,4.1414,4.1999,4.2579,4.2977,4.3327,4.4492,4.6788,4.8463,5.0246,5.2111,5.3257,5.3769,5.3598,5.3077,5.2639,5.2306,5.2442,5.2586,5.2676,5.2676,5.2676,5.2676,5.2676,5.2676,5.2676,5.2676,5.2676,5.279,5.3445,5.4122,5.4799,5.5468,5.5684,5.5592,3.8117,3.8182,3.8231,3.8702,3.8548,3.8515,3.8934,3.8791,3.8738,3.9101,3.9147,3.8941,3.8459,3.8533,3.8413,3.7999,3.7976,3.8097,3.8327,3.835,3.8235,3.8005,3.8412,3.9218,4.0425,4.0527,4.1278,4.2721,4.2773,4.2683,4.2498,4.3108,4.302,4.2292,4.2939,4.3298,4.3523,4.3857,4.4529,4.5397,4.5533,4.5966,4.6509,4.6509,4.5938,4.5302,4.6647,4.641,4.562,4.7066,4.7475,4.7402,4.7317,4.7429,4.7489,4.7369,4.7146,4.7035,4.7163,4.6691,4.597,4.5232,4.4467,4.3934,4.4102,4.413,4.4345,4.5143,4.5815,4.6193,4.6003,4.5928,4.5709,4.5247,4.3533,4.2195,4.1909,4.1261,4.0984,4.1455,4.1801,4.2162,4.2649,4.3052,4.3431,4.3687,4.4279,4.5452,4.7436,4.8978,5.0837,5.3126,5.3719,5.386,5.3664,5.3061,5.2649,5.2397,5.2608,5.2676,5.2676,5.2676,5.2676,5.2676,5.2676,5.2676,5.2676,5.2676,5.2676,5.2768,5.3599,5.4245,5.4799,5.5653,5.5862,5.5622,3.8653,3.8392,3.8371,3.9206,3.8913,3.8795,3.9447,3.9114,3.8755,3.8659,3.8642,3.8464,3.7936,3.8298,3.8573,3.8527,3.8527,3.8947,3.9866,3.9912,3.9521,3.8602,4.0258,4.149,4.2126,4.3788,4.4235,4.333,4.4129,4.4096,4.3307,4.3385,4.3616,4.4023,4.4074,4.3981,4.3823,4.4393,4.4691,4.4827,4.537,4.5966,4.6509,4.6509,4.6454,4.65,4.7461,4.7202,4.6571,4.7806,4.8074,4.78,4.7423,4.7728,4.8087,4.7489,4.6731,4.6223,4.6775,4.6748,4.6499,4.6167,4.5893,4.5714,4.575,4.5727,4.5756,4.5821,4.632,4.6512,4.5677,4.5385,4.5016,4.4261,4.2881,4.1974,4.2074,4.2066,4.2081,4.2134,4.2603,4.3213,4.405,4.4175,4.4999,4.691,4.6079,4.6655,4.9256,4.9986,5.1802,5.4921,5.3873,5.3477,5.3867,5.2677,5.2261,5.2653,5.2676,5.2676,5.2676,5.2676,5.2676,5.2676,5.2676,5.2676,5.2676,5.2676,5.2676,5.2829,5.4122,5.4676,5.486,5.6231,5.6293,5.5684,3.9646,3.958,3.9491,3.9518,3.9667,3.9788,3.9713,3.9908,4.003,3.9967,3.9974,3.9792,3.9407,3.9536,3.965,3.965,3.965,3.9901,4.0502,4.0525,4.0546,4.0601,4.1496,4.2525,4.3693,4.4626,4.4988,4.4747,4.5271,4.5042,4.4202,4.4547,4.452,4.428,4.4436,4.4457,4.4372,4.4767,4.5168,4.5545,4.5996,4.6291,4.6509,4.6509,4.6264,4.6092,4.7235,4.6918,4.6177,4.7589,4.7733,4.728,4.7282,4.7489,4.7616,4.7195,4.6709,4.6394,4.6425,4.5837,4.5133,4.5047,4.5142,4.5191,4.4814,4.5337,4.5917,4.5917,4.6708,4.7323,4.6969,4.6731,4.6237,4.5228,4.3741,4.2599,4.2333,4.1743,4.1593,4.2312,4.2425,4.287,4.3868,4.4678,4.5589,4.6734,4.6759,4.739,4.8964,5.076,5.2819,5.5128,5.4311,5.3794,5.3712,5.2806,5.2609,5.3086,5.3086,5.3369,5.3937,5.3937,5.3937,5.3937,5.3937,5.3937,5.3937,5.3937,5.3691,5.3445,5.4822,5.5076,5.486,5.6293,5.6601,5.6347,4.0224,4.0181,3.9984,3.9666,3.9787,3.9881,3.9695,4.0031,4.037,4.0486,4.0486,4.0401,4.0155,4.0155,4.0155,4.0155,4.0155,4.0315,4.0691,4.116,4.1646,4.2161,4.306,4.4091,4.5242,4.5795,4.6111,4.6131,4.6327,4.6012,4.5271,4.5626,4.5577,4.51,4.5315,4.5342,4.5262,4.5553,4.5792,4.6007,4.635,4.6509,4.6509,4.6376,4.6263,4.6243,4.706,4.6906,4.65,4.7701,4.7896,4.7733,4.7681,4.7517,4.7286,4.6903,4.6498,4.6182,4.6211,4.5223,4.4303,4.4712,4.4865,4.4843,4.464,4.5104,4.5656,4.5859,4.676,4.741,4.7137,4.6823,4.6239,4.52,4.3708,4.254,4.2195,4.1621,4.1545,4.2505,4.2728,4.3285,4.4624,4.5602,4.6537,4.7423,4.7684,4.8265,4.9309,5.1421,5.334,5.4972,5.478,5.4439,5.4044,5.338,5.3186,5.3431,5.3645,5.4082,5.4706,5.4706,5.4706,5.4706,5.4706,5.4753,5.4823,5.4823,5.4468,5.4043,5.5395,5.5549,5.5093,5.6405,5.6875,5.6838,4.0224,3.9918,3.9622,3.9622,3.9165,3.8932,3.9254,3.9316,3.9441,3.9775,3.9806,3.9806,3.9806,3.9806,3.9806,3.9806,3.9806,4.0007,4.0477,4.1954,4.2849,4.2994,4.5113,4.6431,4.6704,4.7703,4.7911,4.7307,4.7307,4.702,4.6527,4.6527,4.6642,4.6922,4.6922,4.6744,4.6433,4.6759,4.6545,4.6034,4.635,4.6509,4.6482,4.6139,4.656,4.7256,4.7072,4.7394,4.7969,4.8384,4.8938,4.9351,4.8709,4.8038,4.739,4.6764,4.5984,4.5427,4.6049,4.5142,4.4298,4.5598,4.5395,4.5075,4.5743,4.5395,4.5104,4.5772,4.6388,4.6558,4.5664,4.5138,4.4542,4.3726,4.2412,4.1537,4.1607,4.1892,4.2306,4.2827,4.3742,4.4931,4.6636,4.7166,4.803,4.9501,4.9046,4.9363,5.0834,5.1988,5.3232,5.4658,5.53,5.5428,5.5001,5.4333,5.3931,5.3722,5.4399,5.4706,5.4737,5.4737,5.4737,5.4737,5.4737,5.4877,5.5132,5.5132,5.4835,5.4563,5.5959,5.6083,5.5632,5.6714,5.7084,5.7084,4.029,4.0203,4.0093,4.0093,4.0156,4.0238,4.0334,4.0558,4.074,4.0835,4.0867,4.0772,4.0526,4.0494,4.0494,4.0494,4.0494,4.0787,4.1519,4.2413,4.317,4.3752,4.539,4.652,4.7057,4.7821,4.8006,4.7591,4.7821,4.7832,4.7704,4.7704,4.7524,4.7188,4.7188,4.693,4.6465,4.6565,4.6516,4.6356,4.646,4.635,4.6139,4.6033,4.6402,4.7,4.7346,4.7662,4.8002,4.8698,4.8747,4.8529,4.8515,4.824,4.7786,4.7193,4.6713,4.6305,4.6066,4.5969,4.5843,4.5314,4.5395,4.5656,4.5859,4.6205,4.6535,4.6527,4.6685,4.6674,4.627,4.5978,4.5452,4.4409,4.3421,4.2632,4.2269,4.1596,4.1653,4.3099,4.3664,4.4621,4.6351,4.7598,4.8684,4.9558,4.9846,5.0602,5.2018,5.2589,5.3576,5.4997,5.5406,5.5373,5.4922,5.4764,5.4775,5.4901,5.5085,5.5517,5.617,5.617,5.617,5.617,5.617,5.6313,5.6495,5.6495,5.6256,5.5936,5.6653,5.6638,5.6279,5.6869,5.7203,5.7424,4.0312,4.0312,4.0312,4.0312,4.0474,4.0582,4.0582,4.0766,4.0896,4.0896,4.0896,4.0831,4.0615,4.0582,4.0582,4.0582,4.0971,4.1447,4.2099,4.3111,4.3911,4.4442,4.5543,4.6396,4.6868,4.7279,4.7558,4.7703,4.7909,4.8055,4.8201,4.8201,4.8015,4.7675,4.7675,4.7362,4.6815,4.6978,4.6881,4.667,4.6759,4.6571,4.6223,4.6436,4.6776,4.7234,4.7824,4.8276,4.8701,4.9189,4.9071,4.871,4.8735,4.8553,4.8226,4.7613,4.7317,4.7114,4.676,4.6911,4.7027,4.6237,4.5976,4.5953,4.6214,4.6269,4.6337,4.6411,4.6355,4.6172,4.5877,4.556,4.501,4.4023,4.3284,4.2669,4.2193,4.1713,4.1991,4.3507,4.4406,4.5523,4.712,4.8454,4.9462,5.0067,5.0459,5.1183,5.2382,5.2781,5.36,5.4972,5.5406,5.5569,5.5488,5.5542,5.5535,5.55,5.5831,5.6241,5.681,5.681,5.681,5.681,5.681,5.6899,5.7108,5.7203,5.7019,5.6636,5.6996,5.7003,5.6806,5.6934,5.7269,5.7684,4.0247,4.0279,4.0312,4.0312,4.0312,4.0312,4.0312,4.0312,4.0312,4.0312,4.0312,4.0312,4.0312,4.0312,4.0312,4.0312,4.1196,4.1943,4.2382,4.3807,4.4676,4.4883,4.5364,4.5828,4.617,4.6331,4.6733,4.7489,4.7622,4.7824,4.8091,4.8146,4.8201,4.8201,4.8201,4.7885,4.7414,4.7703,4.7474,4.7002,4.7228,4.702,4.6623,4.7109,4.7497,4.7849,4.833,4.9005,4.9693,4.9693,4.9693,4.9655,4.926,4.8989,4.8658,4.8043,4.7892,4.7863,4.7805,4.7834,4.7892,4.7892,4.7021,4.6272,4.6772,4.6005,4.5308,4.5866,4.572,4.5373,4.4924,4.441,4.3812,4.3048,4.2507,4.2105,4.1732,4.2224,4.307,4.4236,4.5708,4.7173,4.8594,4.9558,5.032,5.0878,5.0934,5.132,5.2218,5.2755,5.3573,5.4735,5.5325,5.588,5.6397,5.6421,5.6206,5.5807,5.6477,5.681,5.681,5.681,5.681,5.6834,5.6834,5.6947,5.718,5.7448,5.7308,5.6952,5.7095,5.7186,5.7186,5.6904,5.7243,5.7824,3.9822,4.0084,4.0312,4.0312,4.0312,4.0312,4.0312,4.0312,4.0312,4.0312,4.0312,4.0312,4.0312,4.0312,4.0312,4.0312,4.0993,4.191,4.3146,4.3144,4.3373,4.4023,4.3768,4.3856,4.4342,4.569,4.617,4.5664,4.703,4.7529,4.7201,4.7876,4.8201,4.8201,4.8201,4.812,4.7992,4.7861,4.7711,4.7581,4.736,4.7241,4.7136,4.727,4.7733,4.833,4.8456,4.9005,4.9693,4.9693,4.9693,4.9664,4.9621,4.9538,4.9349,4.8711,4.8484,4.842,4.795,4.813,4.8484,4.8484,4.8281,4.799,4.7666,4.7486,4.7188,4.6501,4.5924,4.5442,4.5232,4.4808,4.4207,4.3335,4.315,4.2922,4.2375,4.3002,4.4153,4.5807,4.6898,4.8075,4.9561,5.032,5.0767,5.0906,5.1155,5.1732,5.2781,5.3182,5.4023,5.535,5.5755,5.6077,5.6397,5.6616,5.6645,5.657,5.6693,5.681,5.681,5.681,5.6906,5.7043,5.7043,5.7306,5.7731,5.7778,5.7902,5.7898,5.717,5.7018,5.7186,5.6904,5.7021,5.7362,3.9461,3.9757,4.0083,4.0355,4.0377,4.041,4.0596,4.0475,4.0323,4.0301,4.0312,4.0312,4.0312,4.0312,4.053,4.1109,4.2339,4.3372,4.3965,4.45,4.4743,4.4756,4.4632,4.4568,4.4593,4.5493,4.5791,4.5458,4.6393,4.6997,4.7292,4.7724,4.8055,4.8201,4.8201,4.8041,4.778,4.7927,4.7827,4.7538,4.7365,4.7366,4.7514,4.7619,4.8019,4.8503,4.8562,4.8869,4.9262,4.9606,4.9693,4.9693,4.9693,4.9693,4.9635,4.9262,4.9175,4.9117,4.8793,4.8938,4.9175,4.9175,4.9175,4.9001,4.8362,4.8079,4.7736,4.7072,4.6562,4.5992,4.5278,4.4765,4.4148,4.3275,4.3144,4.3222,4.3338,4.4241,4.5456,4.7156,4.8118,4.9192,5.0517,5.0961,5.1183,5.1321,5.1765,5.2424,5.3366,5.3867,5.4631,5.5755,5.5929,5.6127,5.6397,5.6543,5.6664,5.681,5.681,5.681,5.681,5.6899,5.6995,5.7108,5.7227,5.7472,5.7707,5.7848,5.7965,5.7986,5.6924,5.678,5.7091,5.6293,5.6496,5.7209,3.9111,3.946,3.9895,4.0415,4.0511,4.0621,4.0976,4.0743,4.0492,4.0432,4.0454,4.0454,4.052,4.0651,4.1163,4.2201,4.3904,4.4903,4.4872,4.605,4.6454,4.5784,4.5925,4.5723,4.51,4.507,4.5263,4.5674,4.591,4.6542,4.7489,4.7519,4.7802,4.8201,4.8068,4.7832,4.749,4.7989,4.7911,4.7492,4.761,4.7784,4.7947,4.8344,4.8567,4.8724,4.8846,4.8861,4.8972,4.9519,4.9693,4.9693,4.9693,4.9635,4.9548,4.9548,4.9461,4.9403,4.9519,4.9548,4.9577,4.9664,4.9669,4.9504,4.8929,4.832,4.7728,4.7223,4.7009,4.6567,4.5301,4.4641,4.4045,4.3313,4.3212,4.3554,4.4515,4.5708,4.6989,4.842,4.9362,5.0299,5.1321,5.1431,5.1597,5.1927,5.2321,5.2981,5.3925,5.4428,5.5079,5.5957,5.6064,5.6201,5.647,5.647,5.6567,5.681,5.681,5.681,5.681,5.6971,5.7084,5.718,5.7393,5.7566,5.766,5.7871,5.7965,5.7839,5.6658,5.6536,5.6893,5.5724,5.6103,5.7177,3.8781,3.9351,4.0015,4.0413,4.0791,4.1016,4.1084,4.105,4.0995,4.0998,4.0998,4.1133,4.1469,4.2082,4.2661,4.3112,4.3788,4.4714,4.5844,4.5675,4.5542,4.5534,4.5091,4.4367,4.3366,4.3341,4.3818,4.4773,4.6049,4.6628,4.6572,4.6888,4.7438,4.8172,4.7647,4.7675,4.8068,4.8146,4.8146,4.8155,4.8908,4.903,4.884,4.966,4.9804,4.9547,4.9557,4.9577,4.9577,4.9664,4.9693,4.9693,4.9693,4.9291,4.8832,4.8832,4.8478,4.8183,4.8687,4.8832,4.8948,4.9548,4.9526,4.9326,4.9239,4.872,4.7798,4.6263,4.6319,4.6392,4.5571,4.4961,4.4414,4.4089,4.4283,4.4848,4.5959,4.7407,4.8701,4.9666,5.0602,5.121,5.1376,5.1623,5.1984,5.2545,5.2152,5.2651,5.4333,5.4168,5.4631,5.5953,5.6197,5.647,5.6737,5.6737,5.6761,5.681,5.681,5.681,5.681,5.6834,5.7043,5.7448,5.7495,5.7754,5.8205,5.8228,5.8251,5.8093,5.6726,5.6274,5.6315,5.6125,5.6536,5.7114,3.907,3.9382,3.9761,4.0206,4.0418,4.0529,4.0442,4.0433,4.0501,4.0736,4.0938,4.1214,4.1655,4.2962,4.4038,4.4578,4.538,4.6078,4.6678,4.6893,4.6991,4.7053,4.6987,4.6552,4.5748,4.5447,4.5246,4.5095,4.5443,4.5838,4.6411,4.6685,4.714,4.7673,4.7265,4.7137,4.726,4.726,4.7414,4.7707,4.7902,4.8273,4.8704,4.9145,4.9366,4.9502,4.9644,4.9436,4.9204,4.9577,4.9693,4.9693,4.9693,4.9233,4.8687,4.8687,4.8275,4.7863,4.813,4.8188,4.831,4.8803,4.8831,4.8661,4.8391,4.8374,4.8186,4.7425,4.7091,4.6641,4.5679,4.4758,4.4213,4.4428,4.4894,4.5788,4.7461,4.8665,4.9743,5.0657,5.1291,5.1623,5.1623,5.2041,5.2264,5.2208,5.2911,5.3834,5.4892,5.5033,5.5701,5.697,5.6758,5.6689,5.681,5.681,5.681,5.681,5.681,5.681,5.681,5.6899,5.7163,5.7519,5.766,5.7941,5.8297,5.8297,5.8297,5.8171,5.6748,5.5715,5.5114,5.5926,5.6378,5.6663]},{"header":{"parameterUnit":"m.s-1","parameterCategory":1,"la1":30.6,"la2":28.766,"lo1":-90.7593,"lo2":-88.6598,"dy":0.0162,"dx":0.0183,"nx":116,"ny":114,"refTime":"2023-04-22T18:00:00:Z","depth":0,"parameterNumber":3,"parameterNumberName":"V-component_of_WINDS"},"data":[0.0,0.0,0.0,0.0,0.0,0.0,0.0,0.0,0.0,0.0,0.0,0.0,0.0,0.0,0.0,0.0,0.0,0.0,0.0,0.0,0.0,0.0,0.0,0.0,0.0,0.0,0.0,0.0,0.0,0.0,0.0,0.0,0.0,0.0,0.0,0.0,0.0,0.0,0.0,0.0,0.0,0.0,0.0,0.0,0.0,0.0,0.0,0.0,0.0,0.0,0.0,0.0,0.0,0.0,0.0,0.0,0.0,0.0,0.0,0.0,0.0,0.0,0.0,0.0,0.0,0.0,0.0,0.0,0.0,0.0,0.0,0.0,0.0,0.0,0.0,0.0,0.0,0.0,0.0,0.0,0.0,0.0,0.0,0.0,0.0,0.0,0.0,0.0,0.0,0.0,0.0,0.0,0.0,0.0,0.0,0.0,0.0,0.0,0.0,0.0,0.0,0.0,0.0,0.0,0.0,0.0,0.0,0.0,0.0,0.0,0.0,0.0,0.0,0.0,0.0,0.0,0.0,0.0,0.0,0.0,0.0,0.0,0.0,0.0,0.0,0.0,0.0,0.0,0.0,0.0,0.0,0.0,0.0,0.0,0.0,0.0,0.0,0.0,0.0,0.0,0.0,0.0,0.0,0.0,0.0,0.0,0.0,0.0,0.0,0.0,0.0,0.0,0.0,0.0,0.0,0.0,0.0,0.0,0.0,0.0,0.0,0.0,0.0,0.0,0.0,0.0,0.0,0.0,0.0,0.0,0.0,0.0,0.0,0.0,0.0,0.0,0.0,0.0,0.0,0.0,0.0,0.0,0.0,0.0,0.0,0.0,0.0,0.0,0.0,0.0,0.0,0.0,0.0,0.0,0.0,0.0,0.0,0.0,0.0,0.0,0.0,0.0,0.0,0.0,0.0,0.0,0.0,0.0,0.0,0.0,0.0,0.0,0.0,0.0,0.0,0.0,0.0,0.0,0.0,0.0,0.0,0.0,0.0,0.0,0.0,0.0,0.0,0.0,0.0,0.0,0.0,0.0,0.0,0.0,0.0,0.0,0.0,0.0,0.0,0.0,0.0,0.0,0.0,0.0,0.0,0.0,0.0,0.0,0.0,0.0,0.0,0.0,0.0,0.0,0.0,0.0,0.0,0.0,0.0,0.0,0.0,0.0,0.0,0.0,0.0,0.0,0.0,0.0,0.0,0.0,0.0,0.0,0.0,0.0,0.0,0.0,0.0,0.0,0.0,0.0,0.0,0.0,0.0,0.0,0.0,0.0,0.0,0.0,0.0,0.0,0.0,0.0,0.0,0.0,0.0,0.0,0.0,0.0,0.0,0.0,0.0,0.0,0.0,0.0,0.0,0.0,0.0,0.0,0.0,0.0,0.0,0.0,0.0,0.0,0.0,0.0,0.0,0.0,0.0,0.0,0.0,0.0,0.0,0.0,0.0,0.0,0.0,0.0,0.0,0.0,0.0,0.0,0.0,0.0,0.0,0.0,0.0,0.0,0.0,0.0,0.0,0.0,0.0,0.0,0.0,0.0,0.0,0.0,0.0,0.0,0.0,0.0,0.0,0.0,0.0,0.0,0.0,0.0,0.0,0.0,0.0,0.0,0.0,0.0,0.0,0.0,0.0,0.0,0.0,0.0,0.0,0.0,0.0,0.0,0.0,0.0,0.0,0.0,0.0,0.0,0.0,0.0,0.0,0.0,0.0,0.0,0.0,0.0,0.0,0.0,0.0,0.0,0.0,0.0,0.0,0.0,0.0,0.0,0.0,0.0,0.0,0.0,0.0,0.0,0.0,0.0,0.0,0.0,0.0,0.0,0.0,0.0,0.0,0.0,0.0,0.0,0.0,0.0,0.0,0.0,0.0,0.0,0.0,0.0,0.0,0.0,0.0,0.0,0.0,0.0,0.0,0.0,0.0,0.0,0.0,0.0,0.0,0.0,0.0,0.0,0.0,0.0,0.0,0.0,0.0,0.0,0.0,0.0,0.0,0.0,0.0,0.0,0.0,0.0,0.0,0.0,0.0,0.0,0.0,0.0,0.0,0.0,0.0,0.0,0.0,0.0,0.0,0.0,0.0,0.0,0.0,0.0,0.0,0.0,0.0,0.0,0.0,0.0,0.0,0.0,0.0,0.0,0.0,0.0,0.0,0.0,0.0,0.0,0.0,0.0,0.0,0.0,0.0,0.0,0.0,0.0,0.0,0.0,0.0,0.0,0.0,0.0,0.0,0.0,0.0,0.0,0.0,0.0,0.0,0.0,0.0,0.0,0.0,0.0,0.0,0.0,0.0,0.0,0.0,0.0,0.0,0.0,0.0,0.0,0.0,0.0,0.0,0.0,0.0,0.0,0.0,0.0,0.0,0.0,0.0,0.0,0.0,0.0,0.0,0.0,0.0,0.0,0.0,0.0,0.0,0.0,0.0,0.0,0.0,0.0,0.0,0.0,0.0,0.0,0.0,0.0,0.0,0.0,0.0,0.0,0.0,0.0,0.0,0.0,0.0,0.0,0.0,0.0,0.0,0.0,0.0,0.0,0.0,0.0,0.0,0.0,0.0,0.0,0.0,0.0,0.0,0.0,0.0,0.0,0.0,0.0,0.0,0.0,0.0,0.0,0.0,0.0,0.0,0.0,0.0,0.0,0.0,0.0,0.0,0.0,0.0,0.0,0.0,0.0,0.0,0.0,0.0,0.0,0.0,0.0,0.0,0.0,0.0,0.0,0.0,0.0,0.0,0.0,0.0,0.0,0.0,0.0,0.0,0.0,0.0,0.0,0.0,0.0,0.0,0.0,0.0,0.0,0.0,0.0,0.0,0.0,0.0,0.0,0.0,0.0,0.0,0.0,0.0,0.0,0.0,0.0,0.0,0.0,0.0,0.0,0.0,0.0,0.0,0.0,0.0,0.0,0.0,0.0,0.0,0.0,0.0,0.0,0.0,0.0,0.0,0.0,0.0,0.0,0.0,0.0,0.0,0.0,0.0,0.0,0.0,0.0,0.0,0.0,0.0,0.0,0.0,0.0,0.0,0.0,0.0,0.0,0.0,0.0,0.0,0.0,0.0,0.0,0.0,0.0,0.0,0.0,0.0,0.0,0.0,0.0,0.0,0.0,0.0,0.0,0.0,0.0,0.0,0.0,0.0,0.0,0.0,0.0,0.0,0.0,0.0,0.0,0.0,0.0,0.0,0.0,0.0,0.0,0.0,0.0,0.0,0.0,0.0,0.0,0.0,0.0,0.0,0.0,0.0,0.0,0.0,0.0,0.0,0.0,0.0,0.0,0.0,0.0,0.0,0.0,0.0,0.0,0.0,0.0,0.0,0.0,0.0,0.0,0.0,0.0,0.0,0.0,0.0,0.0,0.0,0.0,0.0,0.0,0.0,0.0,0.0,0.0,0.0,0.0,0.0,0.0,0.0,0.0,0.0,0.0,0.0,0.0,0.0,0.0,0.0,0.0,0.0,0.0,0.0,0.0,0.0,0.0,0.0,0.0,0.0,0.0,0.0,0.0,0.0,0.0,0.0,0.0,0.0,0.0,0.0,0.0,0.0,0.0,0.0,0.0,0.0,0.0,0.0,0.0,0.0,0.0,0.0,0.0,0.0,0.0,0.0,0.0,0.0,0.0,0.0,0.0,0.0,0.0,0.0,0.0,0.0,0.0,0.0,0.0,0.0,0.0,0.0,0.0,0.0,0.0,0.0,0.0,0.0,0.0,0.0,0.0,0.0,0.0,0.0,0.0,0.0,0.0,0.0,0.0,0.0,0.0,0.0,0.0,0.0,0.0,0.0,0.0,0.0,0.0,0.0,0.0,0.0,0.0,0.0,0.0,0.0,0.0,0.0,0.0,0.0,0.0,0.0,0.0,0.0,0.0,0.0,0.0,0.0,0.0,0.0,0.0,0.0,0.0,0.0,0.0,0.0,0.0,0.0,0.0,0.0,0.0,0.0,0.0,0.0,0.0,0.0,0.0,0.0,0.0,0.0,0.0,0.0,0.0,0.0,0.0,0.0,0.0,0.0,0.0,0.0,0.0,0.0,0.0,0.0,0.0,0.0,0.0,0.0,0.0,0.0,0.0,0.0,0.0,0.0,0.0,0.0,0.0,0.0,0.0,0.0,0.0,0.0,0.0,0.0,0.0,0.0,0.0,0.0,0.0,0.0,0.0,0.0,0.0,0.0,0.0,0.0,0.0,0.0,0.0,0.0,0.0,0.0,0.0,0.0,0.0,0.0,0.0,0.0,0.0,0.0,0.0,0.0,0.0,0.0,0.0,0.0,0.0,0.0,0.0,0.0,0.0,0.0,0.0,0.0,0.0,0.0,0.0,0.0,0.0,0.0,0.0,0.0,0.0,0.0,0.0,0.0,0.0,0.0,0.0,0.0,0.0,0.0,0.0,0.0,0.0,0.0,0.0,0.0,0.0,0.0,0.0,0.0,0.0,0.0,0.0,0.0,0.0,0.0,0.0,0.0,0.0,0.0,0.0,0.0,0.0,0.0,0.0,0.0,0.0,0.0,0.0,0.0,0.0,0.0,0.0,0.0,0.0,0.0,0.0,0.0,0.0,0.0,0.0,0.0,0.0,0.0,0.0,0.0,0.0,0.0,0.0,0.0,0.0,0.0,0.0,0.0,0.0,0.0,0.0,0.0,0.0,0.0,0.0,0.0,0.0,0.0,0.0,0.0,0.0,0.0,0.0,0.0,0.0,0.0,0.0,0.0,0.0,0.0,0.0,0.0,0.0,0.0,0.0,0.0,0.0,0.0,0.0,0.0,0.0,0.0,0.0,0.0,0.0,0.0,0.0,0.0,0.0,0.0,0.0,0.0,0.0,0.0,0.0,0.0,0.0,0.0,0.0,0.0,0.0,0.0,0.0,0.0,0.0,0.0,0.0,0.0,0.0,0.0,0.0,0.0,0.0,0.0,0.0,0.0,0.0,0.0,0.0,0.0,0.0,0.0,0.0,0.0,0.0,0.0,0.0,0.0,0.0,0.0,0.0,0.0,0.0,0.0,0.0,0.0,0.0,0.0,0.0,0.0,0.0,0.0,0.0,0.0,0.0,0.0,0.0,0.0,0.0,0.0,0.0,0.0,0.0,0.0,0.0,0.0,0.0,0.0,0.0,0.0,0.0,0.0,0.0,0.0,0.0,0.0,0.0,0.0,0.0,0.0,0.0,0.0,0.0,0.0,0.0,0.0,0.0,0.0,0.0,0.0,0.0,0.0,0.0,0.0,0.0,0.0,0.0,0.0,0.0,0.0,0.0,0.0,0.0,0.0,0.0,0.0,0.0,0.0,0.0,0.0,0.0,0.0,0.0,0.0,0.0,0.0,0.0,0.0,0.0,0.0,0.0,0.0,0.0,0.0,0.0,0.0,0.0,0.0,0.0,0.0,0.0,0.0,0.0,0.0,0.0,0.0,0.0,0.0,0.0,0.0,0.0,0.0,0.0,0.0,0.0,0.0,0.0,0.0,0.0,0.0,0.0,0.0,0.0,0.0,0.0,0.0,0.0,0.0,0.0,0.0,0.0,0.0,0.0,0.0,0.0,0.0,0.0,0.0,0.0,0.0,0.0,0.0,0.0,0.0,0.0,0.0,0.0,0.0,0.0,0.0,0.0,0.0,0.0,0.0,0.0,0.0,0.0,0.0,0.0,0.0,0.0,0.0,0.0,0.0,0.0,0.0,0.0,0.0,0.0,0.0,0.0,0.0,0.0,0.0,0.0,0.0,0.0,0.0,0.0,0.0,0.0,0.0,0.0,0.0,0.0,0.0,0.0,0.0,0.0,0.0,0.0,0.0,0.0,0.0,0.0,0.0,0.0,0.0,0.0,0.0,0.0,0.0,0.0,0.0,0.0,0.0,0.0,0.0,0.0,0.0,0.0,0.0,0.0,0.0,0.0,0.0,0.0,0.0,0.0,0.0,0.0,0.0,0.0,0.0,0.0,0.0,0.0,0.0,0.0,0.0,0.0,0.0,0.0,0.0,0.0,0.0,0.0,0.0,0.0,0.0,0.0,0.0,0.0,0.0,0.0,0.0,0.0,0.0,0.0,0.0,0.0,0.0,0.0,0.0,0.0,0.0,0.0,0.0,0.0,0.0,0.0,0.0,0.0,3.1004,3.0259,0.0,0.0,0.0,0.0,0.0,0.0,0.0,0.0,0.0,0.0,0.0,0.0,0.0,0.0,0.0,0.0,0.0,0.0,0.0,0.0,0.0,0.0,0.0,0.0,0.0,0.0,0.0,0.0,0.0,0.0,0.0,0.0,0.0,0.0,0.0,0.0,0.0,0.0,1.8889,1.9045,1.857,1.8074,1.8114,1.8563,0.0,0.0,0.0,0.0,0.0,0.0,0.0,0.0,0.0,0.0,0.0,0.0,0.0,0.0,0.0,0.0,0.0,0.0,0.0,0.0,0.0,0.0,0.0,0.0,0.0,0.0,0.0,0.0,0.0,0.0,0.0,0.0,0.0,0.0,0.0,0.0,0.0,0.0,0.0,0.0,0.0,0.0,0.0,0.0,0.0,0.0,0.0,0.0,0.0,0.0,0.0,0.0,0.0,0.0,0.0,0.0,0.0,0.0,0.0,0.0,0.0,0.0,0.0,0.0,0.0,0.0,0.0,0.0,0.0,0.0,3.0443,3.0114,0.0,0.0,0.0,0.0,0.0,0.0,0.0,0.0,0.0,0.0,0.0,0.0,0.0,0.0,0.0,0.0,0.0,0.0,0.0,0.0,0.0,0.0,0.0,0.0,1.8192,1.8245,1.8262,0.0,0.0,0.0,0.0,0.0,0.0,0.0,0.0,0.0,0.0,1.8323,1.9001,1.8839,1.7906,1.7179,1.7293,1.8082,1.7152,0.0,0.0,0.0,0.0,0.0,0.0,0.0,0.0,0.0,0.0,0.0,0.0,0.0,0.0,0.0,0.0,0.0,0.0,0.0,0.0,0.0,0.0,0.0,0.0,0.0,0.0,0.0,0.0,0.0,0.0,0.0,0.0,0.0,0.0,0.0,0.0,0.0,0.0,0.0,0.0,0.0,0.0,0.0,0.0,0.0,0.0,0.0,0.0,0.0,0.0,0.0,0.0,0.0,0.0,0.0,0.0,0.0,0.0,0.0,0.0,0.0,0.0,0.0,2.1205,2.2797,2.5927,2.6903,2.7975,2.9109,2.9389,2.9407,2.9019,2.6257,0.0,0.0,0.0,0.0,0.0,0.0,0.0,0.0,0.0,0.0,0.0,0.0,0.0,0.0,0.0,0.0,0.0,0.0,0.0,0.0,0.0,1.7572,1.7852,1.8025,1.8042,1.8025,0.0,0.0,0.0,0.0,0.0,0.0,0.0,1.8086,1.837,1.8052,1.8151,1.8275,1.8384,1.7196,1.6617,1.6552,1.5974,1.5768,1.5822,0.0,0.0,0.0,0.0,0.0,0.0,0.0,0.0,0.0,0.0,0.0,0.0,0.0,0.0,0.0,0.0,0.0,0.0,0.0,0.0,0.0,0.0,0.0,0.0,0.0,0.0,0.0,0.0,0.0,0.0,0.0,0.0,0.0,0.0,0.0,0.0,0.0,0.0,0.0,0.0,0.0,2.4613,2.3798,0.0,0.0,0.0,0.0,0.0,0.0,0.0,0.0,0.0,0.0,0.0,0.0,0.0,1.7978,2.0209,2.0582,2.1585,2.3143,2.2387,2.3082,2.5047,2.5088,2.5994,2.7451,2.6641,0.0,2.8004,2.5472,0.0,0.0,0.0,0.0,0.0,0.0,0.0,0.0,0.0,0.0,0.0,0.0,0.0,0.0,0.0,0.0,0.0,0.0,0.0,0.0,0.0,1.7482,1.7673,1.7873,1.7787,1.7752,1.7818,0.0,0.0,0.0,0.0,1.7699,1.7935,1.8658,1.911,1.9254,1.8659,1.8221,1.7843,1.6845,1.6174,1.5832,1.509,1.4855,1.4996,1.483,0.0,0.0,0.0,0.0,0.0,0.0,0.0,0.0,0.0,0.0,0.0,0.0,0.0,0.0,0.0,0.0,0.0,0.0,0.0,0.0,0.0,0.0,0.0,0.0,0.0,0.0,0.0,0.0,0.0,0.0,0.0,0.0,0.0,0.0,0.0,0.0,0.0,0.0,0.0,2.5478,2.5736,2.4505,2.3402,2.1904,0.0,0.0,0.0,0.0,0.0,0.0,0.0,0.0,0.0,1.3591,1.6767,1.9118,2.0537,2.2017,2.3173,2.3992,2.288,2.3206,2.4789,2.4604,2.503,2.5878,2.5347,2.5286,2.5389,2.3708,2.261,2.1724,0.0,0.0,0.0,0.0,1.2008,1.0959,0.0,0.0,0.0,0.0,0.0,0.0,0.0,0.0,0.0,0.0,0.0,0.0,1.7784,1.7712,1.7687,1.7833,1.7711,1.7577,1.7426,1.7487,0.0,0.0,0.0,1.8124,1.8627,1.9086,1.9553,1.9975,1.8773,1.7893,1.7267,1.6204,1.5462,1.5003,1.4226,1.4079,1.4403,1.436,1.4618,1.516,0.0,0.0,0.0,0.0,0.0,0.0,0.0,0.0,0.0,0.0,0.0,0.0,0.0,0.0,0.0,0.0,0.0,0.0,0.0,0.0,0.0,0.0,0.0,0.0,0.0,0.0,0.0,0.0,0.0,0.0,0.0,0.0,0.0,0.0,0.0,0.0,0.0,2.6317,2.6497,2.5085,2.4253,2.2793,0.0,0.0,0.0,0.0,0.0,0.0,1.0165,1.1276,1.2614,1.415,1.7738,2.0062,2.0901,2.2793,2.3858,2.4061,2.2962,2.3113,2.4284,2.4,2.4106,2.4429,2.3914,2.3402,2.2877,2.2043,2.162,2.1311,1.9088,1.7903,1.7155,1.4626,1.3286,1.2521,0.0,0.0,0.0,0.0,0.0,0.0,0.0,0.0,0.0,0.0,0.0,1.7384,1.8599,1.8275,1.7981,1.7995,1.7988,1.7596,1.6709,1.7299,1.7506,1.7155,1.8288,1.8944,1.8977,1.9067,1.9191,1.9351,1.7626,1.6886,1.6977,1.5161,1.4127,1.376,1.3197,1.35,1.4353,1.3663,1.3868,1.4743,1.6021,0.0,0.0,0.0,0.0,0.0,0.0,0.0,0.0,0.0,0.0,0.0,0.0,0.0,0.0,0.0,0.0,0.0,0.0,0.0,0.0,0.0,0.0,0.0,0.0,0.0,0.0,0.0,0.0,0.0,0.0,0.0,0.0,0.0,0.0,0.0,0.0,0.0,0.0,2.5085,2.3986,0.0,0.0,0.0,0.0,1.4335,1.343,1.2549,1.1628,1.3204,1.4733,1.6021,1.8128,2.0044,2.1721,2.2437,2.2907,2.3165,2.2568,2.2635,2.3165,2.2701,2.2775,2.3202,2.1586,2.1031,2.1217,2.0953,2.0604,2.0154,1.9628,1.8776,1.7641,1.5708,1.4782,1.4254,0.0,0.0,0.0,0.0,0.0,0.0,0.0,0.0,0.0,1.7342,1.7826,1.8238,1.8559,1.8141,1.7661,1.7333,1.6942,1.6607,1.6357,1.6666,1.7223,1.8039,1.8454,1.9057,1.9871,1.981,1.9658,1.949,1.7579,1.6511,1.6249,1.4452,1.3442,1.3067,1.2233,1.2061,1.2434,1.3044,1.3235,1.3277,1.512,1.6158,0.0,0.0,0.0,0.0,0.0,0.0,0.0,0.0,0.0,0.0,0.0,0.0,0.0,0.0,0.0,0.0,0.0,0.0,0.0,0.0,0.0,0.0,0.0,0.0,0.0,0.0,0.0,0.0,0.0,0.0,0.0,0.0,0.0,0.0,0.0,0.0,0.0,2.5752,2.5132,0.0,2.2062,2.0044,1.8002,1.6002,1.502,1.438,1.402,1.5021,1.624,1.7694,2.0418,2.1876,2.2005,2.3491,2.3834,2.2948,2.2355,2.2313,2.2801,2.2183,2.2176,2.2564,2.0697,1.9932,1.9946,1.9354,1.929,1.949,1.9088,1.8703,1.8179,1.6775,1.5828,1.5134,0.0,0.0,0.0,0.0,0.0,0.0,0.0,0.0,1.7021,1.7611,1.8385,1.8871,1.8877,1.8395,1.7817,1.7197,1.6682,1.626,1.6053,1.6786,1.77,1.8688,1.9319,2.0047,2.0941,2.038,1.9709,1.9031,1.717,1.5941,1.5286,1.3598,1.2568,1.2127,1.1136,1.0571,1.0446,1.135,1.1782,1.1994,1.3887,1.4784,1.5074,0.0,0.0,0.0,0.0,0.0,0.0,0.0,0.0,0.0,0.0,0.0,0.0,0.0,0.0,0.0,0.0,0.0,0.0,0.0,0.0,0.0,0.0,0.0,0.0,0.0,0.0,0.0,0.0,0.0,0.0,0.0,0.0,0.0,0.0,2.7132,2.7182,2.5927,2.5424,2.4528,2.281,2.1156,1.9422,1.763,1.706,1.6761,1.6646,1.7627,1.8732,1.9905,2.2408,2.3286,2.2345,2.388,2.3928,2.2487,2.1828,2.1762,2.2188,2.1344,2.1264,2.1666,1.9677,1.8957,1.9144,1.8298,1.8351,1.8938,1.882,1.8668,1.8405,1.7419,1.6588,1.5908,0.0,0.0,0.0,0.0,0.0,0.0,0.0,1.7454,1.7462,1.8217,1.8708,1.9148,1.9543,1.9071,1.842,1.765,1.7259,1.668,1.5823,1.7709,1.8967,1.9104,2.0912,2.1985,2.2106,2.0728,1.9303,1.7902,1.635,1.5094,1.4139,1.2535,1.1461,1.0822,0.9901,0.9159,0.8575,0.8657,0.95,1.0917,1.2332,1.2726,1.2675,0.0,0.0,0.0,0.0,0.0,0.0,0.0,0.0,0.0,0.0,0.0,0.0,0.0,0.0,0.0,0.0,0.0,0.0,0.0,0.0,0.0,0.0,0.0,0.0,0.0,0.0,0.0,0.0,0.0,0.0,0.0,0.0,0.0,2.7914,2.766,2.6979,2.5508,2.4799,2.407,2.3162,2.1435,2.0058,1.9273,1.9587,1.9683,1.9455,2.1053,2.2186,2.2696,2.399,2.4088,2.2856,2.3509,2.3121,2.1719,2.1136,2.0961,2.1171,2.0171,2.0039,2.0503,1.8567,1.8133,1.8732,1.7887,1.7881,1.8435,1.8909,1.8806,1.8326,1.7589,1.7116,1.6661,0.0,0.0,0.0,0.0,0.0,0.0,0.0,1.725,1.7575,1.8421,1.8679,1.8871,1.9132,1.8051,1.7236,1.7157,1.6409,1.6197,1.6811,1.8057,1.9662,2.1677,2.2073,2.2274,2.2268,2.0685,1.9235,1.7972,1.6273,1.4778,1.3448,1.2166,1.1098,1.0207,0.9473,0.8784,0.8165,0.8135,0.8299,0.8719,1.0264,1.1047,1.1439,0.0,0.0,0.0,0.0,0.0,0.0,0.0,0.0,0.0,0.0,0.0,0.0,0.0,0.0,0.0,0.0,0.0,0.0,0.0,0.0,0.0,0.0,0.0,0.0,0.0,0.0,0.0,0.0,0.0,0.0,0.0,2.8937,2.8885,2.7383,2.7713,2.7586,2.625,2.5478,2.4962,2.4757,2.3235,2.2154,2.1881,2.165,2.1846,2.2595,2.308,2.3919,2.5178,2.589,2.5633,2.4267,2.4779,2.4009,2.1988,2.173,2.1533,2.1395,2.0474,2.0304,2.0575,1.8871,1.8381,1.8788,1.8534,1.8344,1.8224,1.86,1.8579,1.8312,1.8159,1.7818,1.7376,0.0,0.0,0.0,0.0,0.0,0.0,0.0,1.7556,1.7879,1.8325,1.8501,1.8504,1.8267,1.7487,1.6896,1.6631,1.6352,1.6698,1.794,1.9525,2.1264,2.3157,2.255,2.2207,2.2309,2.0618,1.9176,1.8033,1.6605,1.5025,1.3333,1.2115,1.1008,0.9999,0.8985,0.8246,0.773,0.7464,0.751,0.7858,0.9098,0.9883,1.0466,1.2069,1.304,1.3669,1.427,1.4849,1.5411,1.5989,0.0,0.0,0.0,0.0,0.0,0.0,0.0,0.0,0.0,0.0,0.0,0.0,0.0,0.0,0.0,0.0,0.0,0.0,0.0,0.0,0.0,0.0,0.0,0.0,3.0397,3.0342,2.7983,2.8112,2.7955,2.6596,2.582,2.5471,2.5715,2.4441,2.3621,2.3567,2.3325,2.359,2.4554,2.4802,2.5437,2.6601,2.702,2.6486,2.4943,2.5315,2.4358,2.2102,2.1821,2.1504,2.1096,2.0386,2.0127,2.0144,1.8925,1.8848,1.9469,1.8849,1.8662,1.878,0.0,0.0,0.0,0.0,1.8268,1.8002,0.0,0.0,0.0,0.0,0.0,0.0,0.0,1.8084,1.8225,1.8057,1.8148,1.7934,1.7196,1.7096,1.6811,1.6194,1.6757,1.7877,1.9515,2.1714,2.3279,2.4106,2.2821,2.2181,2.2371,2.0726,1.9246,1.8037,1.7061,1.5555,1.354,1.2251,1.1095,1.0076,0.8636,0.778,0.7415,0.6909,0.714,0.7906,0.8672,0.9323,1.0019,1.1919,1.2851,1.332,1.4567,1.5112,1.5377,1.6112,0.0,0.0,0.0,0.0,0.0,0.0,0.0,0.0,0.0,0.0,0.0,0.0,0.0,0.0,0.0,0.0,0.0,0.0,0.0,0.0,0.0,0.0,0.0,0.0,3.169,3.1932,2.9211,2.8815,2.8238,2.6701,2.6043,2.5882,2.6352,2.5458,2.4878,2.49,2.4925,2.5207,2.5868,2.6325,0.0,0.0,0.0,2.6922,2.5269,2.5415,2.4359,2.2148,2.1717,2.1204,2.0622,2.0159,1.9835,1.9552,1.903,1.9415,2.0366,1.9066,1.8989,1.9687,1.9424,1.9245,1.9061,1.8751,1.8613,1.8588,0.0,0.0,0.0,0.0,0.0,0.0,0.0,1.7798,1.8041,1.78,1.7385,1.6987,1.6657,1.5696,1.5377,1.6191,1.7119,1.9317,2.3259,2.3673,2.4482,2.6067,2.4244,2.308,2.286,2.1406,1.9695,1.77,1.679,1.5316,1.3341,1.2325,1.131,1.0287,0.9016,0.8185,0.7691,0.7375,0.7556,0.8124,0.914,1.0178,1.1264,1.2462,1.3422,1.4221,1.4849,1.532,1.5718,1.6522,1.6529,1.6234,1.6267,1.6288,0.0,0.0,0.0,0.0,0.0,0.0,0.0,0.0,0.0,0.0,0.0,0.0,0.0,0.0,0.0,0.0,0.0,0.0,0.0,3.1507,3.2324,3.2062,2.9886,2.9596,2.8812,2.6766,2.6757,2.7137,2.7617,2.7368,2.7239,2.7393,2.7392,2.7522,2.7741,2.8067,2.838,2.8656,2.8141,2.7335,2.6242,2.5628,2.4367,2.2437,2.2337,0.0,2.0829,2.0466,2.0264,2.0208,1.9979,1.9998,2.0178,2.0105,1.9943,1.9754,2.0111,2.0328,2.039,2.0053,1.968,1.9301,0.0,0.0,0.0,0.0,0.0,0.0,0.0,1.7962,1.8081,1.7342,1.6773,1.6311,1.5933,1.552,1.5589,1.6427,1.8763,2.1255,2.3737,2.4343,2.46,2.4659,2.3392,2.2481,2.2009,2.0749,1.9421,1.8052,1.6865,1.5428,1.3737,1.2576,1.1557,1.062,0.9671,0.9036,0.864,0.8548,0.8812,0.9371,1.0097,1.1208,1.2461,1.2953,1.3642,1.4428,1.5151,1.5593,1.5997,1.6903,1.6905,1.6596,1.6835,1.6883,1.6859,0.0,0.0,0.0,0.0,0.0,0.0,0.0,0.0,0.0,0.0,0.0,0.0,0.0,0.0,2.8785,3.0195,0.0,3.2654,3.2511,3.2795,3.2294,3.0112,3.0042,2.9554,2.7823,2.795,2.8444,2.9059,2.8723,2.8475,2.8586,2.8163,2.8075,2.852,2.8564,2.8701,2.9036,2.8192,2.7348,2.6504,2.5708,2.4344,2.251,2.251,2.1954,2.0883,2.0734,2.0655,2.0639,2.0536,2.0435,2.0355,2.0392,2.0526,2.0735,2.1,2.0844,2.0469,2.0603,2.0359,1.9962,0.0,0.0,0.0,0.0,0.0,0.0,0.0,1.8251,1.8203,1.7189,1.6352,1.5785,1.5572,1.5792,1.6395,1.7434,2.0686,2.291,2.3507,2.4613,2.4634,2.3216,2.263,2.1937,2.1121,2.0045,1.9068,1.822,1.6969,1.5681,1.4411,1.2989,1.1993,1.1291,1.0502,1.0037,0.9842,0.9817,1.0179,1.0776,1.1012,1.1981,1.3306,1.3376,1.3895,1.4702,1.5521,1.6002,1.6351,1.7111,1.7114,1.6868,1.7229,1.7429,1.7435,1.7056,1.761,0.0,0.0,0.0,0.0,0.0,0.0,0.0,0.0,2.5951,2.6584,2.8289,2.9794,3.1146,3.223,3.3723,3.4365,3.3212,3.3078,3.2413,3.037,3.0424,3.028,2.9254,2.9371,2.9715,3.017,2.9736,2.9396,2.9284,2.8589,2.8411,2.8903,2.8722,2.8763,2.9064,2.7972,2.7095,2.6456,2.5552,2.4177,2.239,2.2476,2.1904,2.0813,2.0867,2.0899,2.0909,2.087,2.081,2.0723,2.05,2.0958,2.1788,2.1906,2.1482,2.0811,2.1015,2.0939,2.0774,0.0,0.0,0.0,0.0,0.0,0.0,0.0,0.0,0.0,1.7995,1.6241,1.5382,1.6255,1.6097,1.7175,2.0245,2.195,2.3415,2.4705,2.5214,2.5355,2.5105,2.4294,2.3124,2.1569,2.0648,1.924,1.7251,1.6728,1.607,1.5237,1.3591,1.2841,1.2792,1.1577,1.1071,1.1085,1.0741,1.099,1.1611,1.125,1.1978,1.3335,1.3638,1.4529,1.5692,1.6096,1.6589,1.7063,1.699,1.694,1.6905,1.7083,1.7336,1.762,1.7806,1.8798,1.9961,2.0448,2.2392,2.4552,2.5744,2.6324,2.7016,0.0,2.9007,2.9583,3.158,3.2906,3.4012,3.4911,3.4839,3.4363,3.3555,3.2922,3.2176,3.1252,3.0996,3.0813,3.067,3.0892,3.0825,3.0261,3.0509,3.0463,2.9875,2.9875,2.9784,2.9442,2.9373,2.925,2.9022,2.7451,2.6516,2.6324,2.4988,2.3556,2.2046,2.2364,2.177,2.0464,2.0756,2.0899,2.0893,2.1087,2.1187,2.1182,2.0947,2.131,2.2102,2.2662,2.3057,2.3149,2.1895,2.1666,2.2002,0.0,0.0,0.0,0.0,0.0,0.0,0.0,0.0,0.0,0.0,1.6834,1.6392,1.6325,1.7504,1.9472,2.2437,2.3186,2.4163,2.5777,2.5476,2.5006,2.4557,2.3766,2.2502,2.0723,2.0066,1.8965,1.7261,1.656,1.5762,1.4894,1.3783,1.3218,1.3136,1.2763,1.25,1.234,1.2209,1.2141,1.2096,1.2165,1.2547,1.3166,1.4091,1.4933,1.5645,1.5863,1.6254,0.0,1.7402,1.7419,1.728,1.7726,1.7684,1.7536,1.7794,1.8881,2.0443,2.2548,2.4829,2.6722,2.7261,2.8602,2.9917,3.0272,3.104,3.2167,3.3939,3.5327,3.6175,3.5903,3.5933,3.5325,3.3261,3.2518,3.1942,3.1182,3.0859,3.0766,3.0882,3.1133,3.1107,3.0646,3.078,3.0668,3.0125,3.0034,3.0148,3.0375,3.0096,2.9758,2.9424,2.7545,2.6291,2.5717,2.4429,2.3175,2.1945,2.2322,2.187,2.0702,2.0836,2.1062,2.1353,2.1237,2.1402,2.1674,2.133,2.1442,2.1931,2.2657,2.2833,2.2595,2.2273,2.2449,2.2835,0.0,0.0,0.0,0.0,0.0,0.0,0.0,0.0,0.0,0.0,1.7432,1.7369,1.7445,1.9685,2.1917,2.3791,2.4179,2.4756,2.5811,2.5252,2.457,2.3848,2.3075,2.1869,2.0161,1.9385,1.8431,1.7209,1.6397,1.5615,1.481,1.4228,1.3847,1.3691,1.3741,1.3649,1.3511,1.3236,1.2929,1.2641,1.2583,1.2753,1.3158,1.4094,1.4764,1.5307,1.5785,1.6392,1.706,1.7765,1.7953,1.7943,1.8106,1.7971,1.7826,1.8179,1.9621,2.1747,2.4822,2.6884,2.8295,2.908,3.0701,3.209,3.203,3.2856,3.4065,3.5658,3.6577,3.6857,3.6027,3.6025,3.5382,3.306,3.2329,3.1875,3.1391,3.0905,3.0652,3.0765,3.0836,3.079,3.0556,3.0717,3.0673,3.0331,3.0193,3.0375,3.1039,3.0385,2.9871,2.9576,2.7467,2.6123,2.5589,2.4343,2.3121,2.1962,2.2219,2.1737,2.0639,2.0804,2.119,2.1683,2.1551,2.1761,2.2127,2.175,2.1783,2.2105,2.2494,2.2533,2.2435,2.2661,2.3067,2.3426,0.0,0.0,0.0,0.0,0.0,0.0,0.0,0.0,0.0,0.0,0.0,0.0,0.0,2.2674,2.4072,2.4088,2.4868,2.507,2.4413,2.4517,2.4314,2.3642,2.2794,2.1747,2.0507,1.8883,1.76,1.6719,1.6304,1.5835,1.5365,1.5151,1.5013,1.4917,1.4352,1.4267,1.4489,1.3384,1.3127,1.3346,1.1996,1.2278,1.3466,1.3302,1.381,1.4795,1.6104,1.7455,1.852,1.7935,1.8394,1.9033,1.788,1.8045,1.8781,1.9373,2.1655,2.456,2.7191,2.8297,2.9248,3.1669,3.2423,3.294,3.429,3.4615,3.5095,3.662,3.6279,3.5606,3.5372,3.4618,3.3809,3.3278,3.2512,3.2085,3.2324,3.1343,3.0578,3.0531,3.0124,2.9761,2.9554,3.019,3.0601,3.0601,3.0578,3.0804,3.1256,3.016,2.9418,2.9228,2.6963,2.5935,2.6345,2.4898,2.3489,2.2093,2.2044,2.1269,1.9948,2.0607,2.119,2.1716,2.2105,2.2392,2.2544,2.2222,2.2479,2.3006,2.2289,2.2695,2.3615,2.3292,2.3407,2.3861,0.0,0.0,0.0,0.0,0.0,0.0,0.0,0.0,0.0,0.0,0.0,0.0,0.0,0.0,0.0,0.0,2.4326,2.4763,2.5319,2.4338,2.3559,2.3144,2.1951,2.0527,1.8879,1.8158,1.7164,1.5829,1.556,1.5217,1.4813,1.492,1.5148,1.5469,1.5666,1.5771,1.5726,1.4577,1.3949,1.3567,1.2201,1.187,1.2232,1.2892,1.3697,1.4717,0.0,1.7294,1.76,1.8631,1.8966,1.8907,1.8537,1.8707,1.9468,2.1613,2.4107,2.6618,2.8743,3.0711,3.2299,3.2867,3.3922,3.4831,3.4793,3.5392,3.5963,3.6052,3.6146,3.5808,3.4601,3.3856,3.3146,3.2286,3.16,3.1126,3.092,3.0778,3.0444,2.9658,3.0259,3.0471,2.9831,3.0006,3.0055,2.9871,3.0326,3.0804,3.1278,3.0756,3.0113,2.9419,2.7778,2.6524,2.5748,2.5166,2.4155,2.2766,2.1958,2.1241,2.0575,2.0813,2.119,2.1716,2.2121,2.2456,2.2681,2.2788,2.2738,2.2596,2.2893,2.3249,2.3736,2.4515,2.502,2.5325,0.0,0.0,0.0,0.0,0.0,0.0,0.0,0.0,0.0,0.0,0.0,0.0,0.0,0.0,0.0,0.0,0.0,2.5202,2.5715,2.4397,2.3338,2.2749,2.149,2.0018,1.8388,1.7767,1.6912,1.5724,1.5532,1.5346,1.5251,1.5569,1.6014,1.6521,1.6787,1.6858,1.6754,1.5387,1.4448,1.3756,1.2391,1.1841,1.1941,1.2802,1.3791,0.0,1.7169,1.7928,1.807,1.9267,1.9486,1.9213,1.8946,1.9689,2.1051,2.327,2.5982,2.863,3.0315,3.2399,3.41,3.4191,3.5125,3.5821,3.5165,3.5494,3.5817,3.5394,3.4882,3.4226,3.3402,3.2718,3.2108,3.146,3.1282,3.0949,3.0136,3.033,3.0162,2.9115,2.998,3.0571,3.0297,3.0256,3.0201,3.0046,3.0637,3.1157,3.153,3.0871,3.0227,2.9632,2.7934,2.6634,2.5829,2.5234,2.4219,2.2806,2.1739,2.1121,2.0899,2.0899,2.1219,2.1802,2.2293,2.259,2.2754,2.3121,2.2975,2.2521,2.294,2.3384,2.3911,2.4959,2.5809,2.6427,0.0,0.0,0.0,0.0,0.0,0.0,0.0,0.0,0.0,0.0,0.0,0.0,0.0,0.0,0.0,0.0,0.0,0.0,2.5512,2.4537,2.3484,2.239,2.1318,2.0187,1.8994,1.7741,1.6822,1.6293,1.6042,1.6133,1.6584,1.6971,1.7485,1.8027,1.7698,1.763,1.7624,1.5919,1.4782,1.4015,1.2584,1.2223,1.2616,1.3127,1.4171,1.5677,1.8072,1.9335,1.9878,1.9923,2.0076,2.0135,1.9338,2.1108,2.3633,2.4539,2.7477,3.068,3.1936,3.3354,3.4649,3.5658,3.5909,3.5838,3.546,3.4983,3.4617,3.4577,3.2596,3.1078,3.1701,3.1175,3.0698,3.0833,3.1414,3.1384,3.0052,3.0029,2.985,2.8978,2.9509,3.0219,3.0862,3.0952,3.0976,3.0979,3.1428,3.1773,3.1986,3.0529,2.972,2.9803,2.7486,2.6383,2.6637,2.5218,2.3791,2.2336,2.1406,2.0947,2.0931,2.0899,2.1254,2.1921,2.258,2.2825,2.2821,2.3194,2.3182,2.2825,2.2574,2.3188,2.4289,2.4814,2.5848,2.7072,0.0,0.0,0.0,0.0,0.0,0.0,0.0,0.0,0.0,0.0,0.0,0.0,0.0,0.0,0.0,0.0,0.0,0.0,2.491,2.3464,2.2329,2.1693,2.0629,1.9546,1.8435,1.7545,1.6778,1.6161,1.5353,1.5337,1.6003,1.647,1.7414,1.8777,1.9369,1.9642,1.9596,1.8319,1.71,1.5913,1.3912,1.3161,1.3378,1.4607,1.5554,1.6674,1.9736,2.0873,2.0982,2.1496,2.2052,2.2636,2.3071,2.4971,2.7296,2.8538,3.0869,3.3131,3.3576,3.4224,3.4935,3.5711,3.5348,3.4865,3.4999,3.4392,3.3341,3.1701,3.1043,3.0467,2.9511,2.9657,2.9956,3.0003,3.0001,2.9831,2.9363,3.0174,3.054,2.9728,3.1286,3.2139,3.1491,3.1782,3.1675,3.0845,3.1434,3.1863,3.1867,3.0478,2.9668,2.9577,2.7972,2.7068,2.7059,2.5516,2.418,2.3122,2.2156,2.156,2.1254,2.101,2.1101,2.148,2.2166,2.2435,2.2452,2.2798,2.3298,2.3744,2.348,2.4509,2.618,2.6357,2.7043,2.7992,0.0,0.0,0.0,0.0,0.0,0.0,0.0,0.0,0.0,0.0,0.0,0.0,0.0,0.0,0.0,0.0,0.0,0.0,0.0,2.3166,2.2229,2.1553,2.0753,1.9795,1.8647,1.8389,1.7789,1.6843,1.6299,1.628,1.6766,1.6847,1.779,1.9423,2.0084,2.0391,2.0366,1.9284,1.8061,0.0,0.0,1.4362,1.4597,1.5803,1.7028,1.8422,2.0945,2.2737,2.4015,2.4868,2.4912,2.4823,2.5906,2.7685,2.9574,3.0654,3.2499,3.4143,3.382,3.4585,3.5328,3.4796,3.4671,3.4499,3.3909,3.3024,3.188,3.0382,2.9692,2.9086,2.8236,2.8886,2.9433,2.9084,2.9486,2.954,2.8729,2.9971,3.0706,3.0039,3.1692,3.2731,3.228,3.2288,3.2066,3.1418,3.1566,3.1593,3.1383,3.0357,2.9656,2.9383,2.8157,2.7068,2.6165,2.5259,2.4261,2.322,2.2546,2.2032,2.1655,2.128,2.1199,2.137,2.2022,2.2333,2.2392,2.2785,2.3368,2.3975,2.4082,2.5219,2.6814,2.7028,2.7634,2.8354,0.0,0.0,0.0,0.0,0.0,0.0,0.0,0.0,0.0,0.0,0.0,0.0,0.0,0.0,0.0,0.0,0.0,0.0,0.0,0.0,0.0,2.1691,2.1132,2.0382,1.9399,1.9583,1.917,1.8147,1.7943,1.7892,1.7972,1.7572,1.8288,1.9894,2.0288,2.0555,2.0636,1.9701,1.8459,1.7007,1.603,1.5771,1.6087,0.0,1.8667,2.0481,2.2293,2.4918,2.768,2.8763,2.8173,2.716,2.82,2.9811,3.1368,3.1868,3.3206,3.4353,3.3479,3.4416,3.5249,3.3526,3.3733,3.3965,3.2394,3.1158,3.0169,2.9578,2.8373,2.747,2.7562,2.8397,2.8902,2.8315,2.9207,2.9559,2.829,2.9656,3.0616,3.0187,3.1647,3.277,3.2988,3.2491,3.2108,3.1963,3.1395,3.095,3.0702,3.0052,2.9447,2.8942,2.807,2.6708,2.4806,2.4806,2.4223,2.3062,2.2684,2.2362,2.2076,2.1661,2.1459,2.1474,2.2038,2.2323,2.2407,2.2842,2.3439,2.4081,2.4539,2.555,2.6806,2.7376,2.7822,2.8178,0.0,0.0,0.0,0.0,0.0,0.0,0.0,0.0,0.0,0.0,2.7085,2.6909,0.0,0.0,0.0,0.0,0.0,0.0,0.0,0.0,0.0,0.0,2.0569,2.0154,2.0272,1.9901,1.9749,1.9862,1.8327,1.7693,1.7906,1.7512,1.8213,1.9866,2.0925,2.1496,2.1703,2.1202,2.0063,1.8543,1.7771,1.7443,1.7655,1.9635,0.0,0.0,2.5185,2.7565,2.9349,3.0412,3.0876,3.0908,3.0494,3.2394,3.4649,3.3758,3.4094,3.462,3.4066,3.3421,3.2924,3.2998,3.2018,3.0961,3.072,2.9201,2.768,2.7179,2.6835,2.6675,2.6917,2.7217,2.7592,2.8114,2.7731,2.7642,2.8546,2.9911,3.0822,3.0826,3.279,3.3726,3.2639,3.2137,3.1506,3.0619,2.9789,2.9595,3.017,2.9122,2.8211,2.7567,2.7696,2.6829,2.4823,2.4806,2.4323,2.3416,2.2795,2.2564,2.2638,2.2083,2.1758,2.1671,2.2003,2.2138,2.2163,2.2256,2.3418,2.5122,2.4991,2.6008,2.7602,2.8244,2.7957,2.7388,0.0,0.0,0.0,0.0,0.0,0.0,0.0,2.7207,2.734,2.821,2.8011,2.7384,2.638,2.6073,2.539,0.0,0.0,0.0,0.0,0.0,0.0,0.0,0.0,0.0,2.0035,1.9945,1.9748,1.9422,0.0,1.6936,1.6645,1.6177,1.6725,1.8191,1.9685,2.0588,2.0957,2.1011,2.0428,1.9434,1.8925,1.8915,1.9388,0.0,0.0,0.0,2.6972,2.8732,3.0125,3.0906,3.1758,3.2485,3.2224,3.3521,3.4912,3.3945,3.3787,3.3842,3.3141,3.2485,3.1857,3.1305,3.0486,2.9489,2.8402,2.6996,2.5849,2.5698,2.5764,2.5948,2.6273,2.6795,2.7146,2.6943,2.6646,2.6905,2.8249,2.9269,3.0215,3.1062,3.2154,3.2642,3.2089,3.1168,3.0485,3.0173,2.8961,2.8467,2.9075,2.8389,2.7751,2.7224,2.753,2.6769,2.4806,2.4944,2.439,2.3247,2.2903,2.2798,2.2863,2.2663,2.2567,2.262,2.2969,2.3081,2.2989,2.2943,2.3713,2.4917,2.4899,2.586,2.7328,2.8101,2.8088,2.7787,0.0,0.0,0.0,0.0,0.0,0.0,0.0,2.8014,2.8063,2.8887,2.8499,2.7651,2.641,2.5863,2.4919,0.0,0.0,0.0,0.0,0.0,0.0,0.0,0.0,0.0,0.0,0.0,0.0,1.873,1.7265,0.0,0.0,0.0,0.0,0.0,1.8147,1.929,1.9983,2.0436,2.0358,0.0,0.0,2.0168,2.0894,0.0,0.0,0.0,0.0,2.9535,3.0576,3.0952,3.1826,3.2735,3.2643,3.347,3.4252,3.3062,3.29,3.291,3.1995,3.1629,3.1149,2.9852,2.9151,2.8251,2.6241,2.5026,2.4385,2.4671,2.4977,2.537,2.5913,2.6612,2.6788,2.5761,2.5675,2.6292,2.7827,2.8537,2.957,3.1248,3.1401,3.1457,3.1548,3.0296,2.9482,2.9601,2.8328,2.7651,2.7957,2.7835,2.7621,2.7308,2.7373,2.6598,2.4889,2.4972,2.4379,2.3106,2.3163,2.3166,2.3097,2.3261,2.3396,2.3472,2.3838,2.3916,2.3769,2.3865,2.4272,2.4834,2.515,2.597,2.7099,2.8114,2.8325,2.8276,0.0,0.0,0.0,0.0,0.0,0.0,0.0,2.861,2.8628,2.8717,2.8052,2.7381,2.6888,2.6455,2.538,0.0,0.0,0.0,0.0,0.0,0.0,0.0,0.0,0.0,0.0,0.0,0.0,1.9149,1.7127,0.0,0.0,0.0,0.0,0.0,0.0,1.8636,1.9844,2.0175,0.0,0.0,0.0,0.0,0.0,0.0,0.0,0.0,0.0,3.0572,3.0969,3.1056,3.1449,3.1686,3.0447,3.1921,3.3666,3.1308,3.1633,3.2575,3.1494,3.0798,3.0302,2.9744,2.8107,2.6288,2.479,2.3752,2.3273,2.4018,2.4525,2.5172,2.6231,2.6277,2.5935,2.5338,2.4761,2.5198,2.748,2.8135,2.9257,3.1666,3.1824,3.1595,3.1177,3.0006,2.8887,2.8083,2.7537,2.7252,2.7289,2.7484,2.7605,2.7567,2.7048,2.6264,2.5165,2.4701,2.4116,2.3444,2.3697,2.3778,2.3714,2.3735,2.3712,2.3663,2.3735,2.3726,2.3751,2.4281,2.5038,2.5921,2.6492,2.7082,2.778,2.9153,2.884,2.8016,0.0,0.0,0.0,0.0,0.0,0.0,2.9692,2.8885,2.8547,2.948,2.8654,2.7833,2.7426,2.6727,2.5775,2.4491,0.0,0.0,0.0,0.0,0.0,0.0,0.0,0.0,0.0,0.0,1.8018,1.7554,1.5866,0.0,0.0,0.0,0.0,0.0,0.0,1.7809,1.9179,1.9805,0.0,0.0,0.0,0.0,0.0,0.0,0.0,0.0,0.0,0.0,2.9984,2.9096,2.922,2.9546,2.8347,2.9074,3.0306,3.0091,3.0577,3.1069,3.0351,2.9919,2.9339,2.7855,2.6463,2.4943,2.3088,2.2001,2.166,2.2638,2.3107,2.373,2.4939,2.5054,2.4862,2.4522,2.4649,2.524,2.6495,2.7438,2.8446,2.9623,2.9828,2.997,3.0191,2.9085,2.8118,2.7482,2.7945,2.7977,2.7243,2.7919,2.8295,2.8277,2.7696,2.6791,2.5625,2.4954,2.4267,2.35,2.4128,2.4516,2.4638,2.475,2.4955,2.5198,2.4954,2.4798,2.4748,2.5107,2.5514,2.5966,2.633,2.7134,2.8165,2.9086,2.9185,2.8941,0.0,0.0,0.0,0.0,0.0,2.955,3.0198,2.925,2.8797,2.9714,2.8831,2.7999,2.7772,2.6871,2.603,2.5411,2.357,0.0,0.0,0.0,0.0,0.0,0.0,0.0,0.0,0.0,1.7243,1.647,1.5019,1.4012,0.0,0.0,1.3214,1.4185,0.0,0.0,0.0,0.0,0.0,0.0,0.0,0.0,0.0,0.0,0.0,0.0,0.0,0.0,0.0,0.0,0.0,2.7558,2.6556,2.669,2.7351,2.8143,2.9035,2.9566,2.8805,2.8603,2.8195,2.6528,2.5125,2.3651,2.1895,2.0962,2.0672,2.1418,2.2012,2.2699,2.3734,2.4138,2.4244,2.4092,2.4485,2.5208,2.6292,2.7012,2.7847,2.8928,2.8747,2.888,2.9757,2.8828,2.8032,2.7757,2.8726,2.8943,2.8049,2.8819,2.8964,2.8331,2.7651,2.6831,2.5863,2.4971,2.4184,2.35,2.4462,2.5027,2.5221,2.5621,2.5991,2.631,2.6006,2.5821,2.5789,2.6079,2.6354,2.6575,2.6888,2.769,2.8773,2.9506,2.9836,2.9909,0.0,0.0,0.0,0.0,0.0,0.0,2.9921,2.9789,2.9601,2.9079,2.8199,2.7683,2.7873,2.6883,2.6067,2.5717,2.4214,0.0,0.0,0.0,0.0,0.0,0.0,0.0,0.0,0.0,1.7206,1.6404,1.5002,1.3913,1.3211,1.2855,1.3315,1.4448,0.0,0.0,0.0,0.0,0.0,0.0,0.0,0.0,0.0,0.0,0.0,0.0,0.0,0.0,0.0,0.0,0.0,0.0,0.0,2.5192,2.5466,2.514,2.6799,2.8386,2.6849,2.6679,2.6798,2.6322,2.4338,2.2273,2.1407,2.09,2.0588,2.0602,2.1583,2.2527,2.2944,2.3714,2.4267,2.4203,2.4092,2.4872,2.7335,2.7077,2.7651,3.0432,2.9368,2.8915,3.0246,2.9538,2.9005,2.8975,2.9661,3.0047,2.9863,3.0197,2.946,2.7471,2.6563,2.5963,2.5697,2.4507,2.3781,2.35,2.4657,2.5193,2.5221,2.6154,2.6591,2.6609,2.6582,2.6582,2.6636,2.7152,2.7668,2.813,2.866,2.916,2.9721,3.0717,3.0906,3.075,0.0,0.0,0.0,0.0,0.0,0.0,0.0,2.9173,2.838,2.8571,2.8137,2.7708,2.7517,2.7152,2.6479,2.5393,2.3689,0.0,0.0,0.0,0.0,0.0,0.0,0.0,0.0,0.0,1.69,1.661,1.5603,1.5057,1.491,1.4326,1.4505,1.5323,1.6206,1.7573,0.0,0.0,0.0,0.0,0.0,0.0,2.5769,0.0,0.0,0.0,0.0,0.0,0.0,0.0,0.0,0.0,0.0,0.0,0.0,2.3449,2.4984,2.6618,2.5155,2.508,2.4914,2.2935,2.1899,2.1093,2.0108,1.9966,2.029,2.1104,2.1587,2.2127,2.3102,2.335,2.3667,2.4431,2.4696,2.5158,2.6134,2.6839,2.7503,2.8069,2.8803,2.929,2.9439,2.967,2.969,2.9427,3.0359,3.0667,3.0066,3.0773,3.0633,2.9348,2.7873,2.7031,2.6798,2.6155,2.5565,2.5076,2.6514,2.7003,2.6718,2.7016,2.7152,2.7125,2.6772,2.6609,2.6682,2.7506,2.7961,2.8195,2.9036,2.9769,3.0407,3.0922,3.1449,3.1776,0.0,0.0,0.0,0.0,0.0,0.0,0.0,2.9195,2.8404,2.8484,2.8153,2.7858,2.7804,2.7445,2.6689,2.5397,2.4027,0.0,0.0,0.0,0.0,0.0,0.0,0.0,1.7781,1.7721,1.7611,1.744,1.6551,1.6205,1.6323,1.5433,1.5473,1.6355,1.6879,1.8,0.0,0.0,0.0,0.0,0.0,0.0,2.5996,0.0,0.0,0.0,0.0,0.0,0.0,0.0,0.0,0.0,0.0,0.0,0.0,0.0,2.3114,2.4207,2.3186,2.3039,2.2758,2.0983,2.0236,1.9813,1.9401,1.9294,1.9679,2.1101,2.1375,2.1732,2.301,2.3342,2.3712,2.4578,2.5165,2.5657,2.618,2.6935,2.7413,2.7287,2.8653,2.9445,2.9042,2.9855,3.0314,3.0088,3.1083,3.1427,3.0771,3.1256,3.1304,3.0723,2.888,2.7598,2.6975,2.6715,2.6321,2.5813,2.7243,2.771,2.7414,2.7782,2.7871,2.7737,2.7717,2.7636,0.0,2.8325,2.8778,2.896,2.9707,3.041,3.0957,3.1271,3.1583,3.1652,0.0,0.0,0.0,0.0,0.0,0.0,0.0,2.9633,2.9359,2.8641,2.8189,2.8086,2.8483,2.7679,2.67,2.5666,0.0,0.0,0.0,0.0,0.0,0.0,0.0,0.0,1.8587,1.897,1.9021,1.8679,1.7664,1.7252,1.7433,1.6221,1.6296,1.7496,1.7775,1.8692,0.0,0.0,0.0,0.0,0.0,0.0,0.0,0.0,0.0,0.0,0.0,0.0,0.0,0.0,0.0,0.0,0.0,0.0,0.0,0.0,0.0,0.0,0.0,2.0777,2.0507,2.0185,1.9278,1.8589,1.9112,1.8856,0.0,2.0818,2.107,2.139,2.2868,2.3644,2.4233,2.4703,2.5414,2.625,2.7171,2.7333,2.7524,2.7932,2.8954,2.9464,2.9097,3.0106,3.0786,3.0786,3.177,3.2156,3.1828,3.1629,3.1513,3.1434,2.9554,2.7951,2.666,2.6654,2.6478,2.607,2.7233,2.7694,2.759,2.8517,2.875,2.8418,2.9246,2.9336,2.9004,2.9461,2.9872,3.0272,3.0596,3.1016,3.1412,3.1643,3.1402,3.0772,0.0,0.0,0.0,0.0,0.0,0.0,0.0,0.0,0.0,0.0,2.8272,2.8235,2.7659,2.7337,2.67,0.0,0.0,0.0,0.0,0.0,0.0,0.0,0.0,0.0,1.9211,1.9006,1.8775,1.8562,1.8033,1.7875,1.8002,1.7438,1.7627,1.8416,1.8786,1.9812,0.0,0.0,0.0,0.0,0.0,0.0,0.0,0.0,0.0,0.0,2.6191,2.5407,0.0,0.0,0.0,0.0,0.0,0.0,0.0,0.0,2.0592,1.9577,1.9341,0.0,1.9416,1.8479,1.817,1.8209,0.0,1.8849,1.9652,2.1611,2.1718,2.2005,2.3881,2.3982,2.3949,2.4439,2.4989,2.5844,2.7125,2.822,2.8866,2.874,2.9239,2.9556,2.9482,3.023,3.0736,3.0736,3.1387,3.1757,3.1631,3.1897,3.1645,3.0836,3.0327,2.9758,2.9063,2.9239,2.9031,2.8498,2.9222,2.9415,2.9111,2.9319,2.9383,2.9305,2.952,2.954,2.9481,2.9883,3.0259,3.0625,3.1018,3.1534,3.1989,3.1305,3.1486,3.1818,0.0,0.0,0.0,0.0,0.0,0.0,0.0,0.0,0.0,0.0,0.0,2.8119,2.7708,2.714,0.0,0.0,0.0,0.0,0.0,0.0,0.0,0.0,0.0,2.0482,2.014,1.9646,1.9392,1.9375,1.8621,1.8409,1.8662,1.8031,1.8179,1.9015,2.0002,2.1212,0.0,0.0,0.0,0.0,2.7383,0.0,0.0,0.0,0.0,0.0,2.6068,2.5335,0.0,2.4753,2.4283,2.3793,0.0,0.0,0.0,0.0,2.0427,1.927,1.8913,1.8736,1.8553,1.7939,1.799,1.8253,1.8567,1.8893,1.9676,2.1581,2.1739,2.2039,2.3728,2.4579,2.5046,2.5085,2.6331,2.7468,2.7991,2.8613,2.8973,2.879,2.8922,2.9133,2.9317,2.9976,3.04,3.04,3.115,3.16,3.16,3.1791,3.1705,3.1364,3.095,3.0346,2.9479,2.987,2.9863,2.947,2.9967,3.0122,3.0008,2.9906,2.985,2.9785,3.0085,3.0059,2.9911,3.0332,3.0681,3.1007,3.137,3.1845,3.2219,3.1681,3.1515,3.1375,0.0,0.0,0.0,0.0,0.0,0.0,0.0,0.0,0.0,0.0,0.0,0.0,0.0,0.0,0.0,0.0,0.0,0.0,0.0,0.0,0.0,0.0,2.1313,2.0997,2.0997,2.0426,2.0232,2.043,1.9322,1.896,1.9224,1.8466,1.8642,1.9608,2.1183,2.2507,0.0,0.0,0.0,0.0,2.82,0.0,0.0,0.0,0.0,0.0,0.0,0.0,0.0,2.5249,2.4695,2.3941,2.409,0.0,0.0,0.0,0.0,0.0,1.9022,1.8593,1.8229,1.8109,1.8305,1.8632,1.9,1.9052,1.9526,2.1377,2.1613,2.1932,2.343,2.5246,2.6418,2.6099,2.8089,2.9508,2.9109,2.9064,2.8924,2.8623,2.856,2.8711,2.9046,2.9695,3.008,3.0141,3.0975,3.1499,3.1499,3.1442,3.1601,3.1983,3.1299,3.0411,2.9361,2.9804,2.9976,2.9766,3.013,3.0362,3.0441,3.0344,3.0259,3.0162,3.0682,3.0693,3.0389,3.0752,3.1112,3.1469,3.1701,3.2018,3.2334,3.2047,3.1358,3.0521,0.0,0.0,0.0,0.0,0.0,0.0,0.0,0.0,0.0,0.0,0.0,0.0,0.0,0.0,0.0,0.0,0.0,0.0,0.0,0.0,0.0,2.3051,2.173,2.0997,2.0997,2.058,2.0386,2.0491,1.9901,1.9578,1.9529,1.9564,1.9966,2.0702,2.1795,2.2939,2.409,2.5463,0.0,0.0,2.8346,0.0,0.0,0.0,0.0,0.0,0.0,0.0,0.0,2.4594,2.4491,2.4323,2.3958,0.0,0.0,0.0,0.0,0.0,1.8822,1.9168,1.9331,1.8545,1.875,1.9298,1.9802,1.9724,2.0115,2.2061,2.2052,2.2432,2.4764,2.5729,2.6266,2.66,2.8292,2.9512,2.9351,3.0348,3.0524,2.9101,2.9232,2.9437,2.9409,2.9713,3.0046,3.0341,3.0771,3.1015,3.1015,3.0986,3.1016,3.1123,3.0957,3.0908,3.0947,3.082,3.0529,3.0138,3.0576,3.0605,3.0259,3.0644,3.0771,3.0761,3.0869,3.0985,3.111,3.0976,3.1402,3.2104,3.1874,3.2133,3.2469,3.0869,3.0555,3.0796,0.0,0.0,0.0,0.0,0.0,0.0,0.0,0.0,0.0,0.0,0.0,0.0,0.0,0.0,0.0,0.0,0.0,0.0,0.0,0.0,2.3913,2.3897,2.2835,2.2092,2.1755,2.0906,2.0511,2.0676,1.9794,1.9383,1.9465,1.9886,2.0566,2.1433,2.2459,2.3621,2.4951,2.6183,2.7246,0.0,0.0,0.0,0.0,0.0,0.0,0.0,0.0,0.0,0.0,0.0,2.4155,2.4303,2.3228,0.0,0.0,0.0,0.0,0.0,1.893,1.9309,1.969,1.9704,2.0086,2.056,2.1078,2.1081,2.1331,2.2559,2.3038,2.366,2.4978,2.6728,2.8439,2.9761,3.0627,3.0913,3.0238,3.0461,3.0258,2.9135,2.9087,2.9264,2.946,3.0082,3.0571,3.0719,3.1034,3.123,3.123,3.1016,3.0898,3.0898,3.0898,3.1025,3.1296,3.0769,3.07,3.1065,3.11,3.111,3.1056,3.0955,3.1133,3.1496,3.1496,3.1722,3.2018,3.1859,3.2232,3.2951,3.2316,3.216,3.21,3.0344,3.003,3.0377,0.0,0.0,0.0,0.0,0.0,0.0,0.0,0.0,0.0,0.0,0.0,0.0,0.0,0.0,0.0,0.0,0.0,0.0,0.0,2.476,2.4617,2.4636,2.4246,2.3611,2.2744,2.1613,2.1101,2.1272,2.0149,1.9589,1.9519,1.9979,2.0779,2.1832,2.2793,2.4077,2.5561,2.6714,2.7613,0.0,0.0,0.0,0.0,0.0,0.0,0.0,0.0,0.0,0.0,0.0,0.0,0.0,0.0,0.0,0.0,2.0409,1.9602,1.9114,1.9226,1.9623,2.021,2.0917,2.134,2.1703,2.2342,2.2569,2.2876,2.3744,2.445,2.5174,2.6151,2.8478,3.0714,3.2166,3.2329,3.1935,3.0936,3.0409,2.9872,2.9216,2.9116,2.9303,2.978,3.0547,3.1076,3.1281,3.151,3.1621,3.1523,3.1211,3.0996,3.0898,3.0966,3.1141,3.1412,3.0873,3.0899,3.154,3.1195,3.1166,3.1397,3.1073,3.126,3.191,3.1969,3.2237,3.2605,3.2553,3.2919,3.3469,3.2735,3.2246,3.1841,3.0502,3.0027,3.0049,0.0,0.0,0.0,0.0,0.0,0.0,0.0,0.0,0.0,0.0,0.0,0.0,0.0,0.0,0.0,0.0,0.0,0.0,0.0,2.5197,2.5521,2.5326,2.5875,2.54,2.3739,2.2999,2.2627,2.2659,2.1811,2.0971,2.0125,1.9992,2.0605,2.1832,2.266,2.3945,2.5561,2.6714,2.7556,2.8112,2.8069,0.0,0.0,0.0,0.0,0.0,0.0,0.0,0.0,0.0,0.0,0.0,0.0,0.0,2.1761,2.0604,1.9982,1.9636,1.9644,2.0459,2.1394,2.1885,2.2029,2.2325,2.3363,2.3914,2.4681,2.6295,2.6334,2.6937,2.9777,3.1287,3.1965,3.1573,3.158,3.1463,3.0878,3.0602,3.0222,2.9546,2.9796,3.0231,3.083,3.0958,3.1301,3.2059,3.2159,3.1983,3.1513,3.1455,3.1289,3.0898,3.1141,3.1412,3.1759,3.169,3.1374,3.0758,3.0425,3.0311,3.0311,3.0732,3.1113,3.1553,3.186,3.2176,3.2433,3.2471,3.2854,3.3401,3.2998,3.2529,3.1969,3.1582,3.0882,3.0173,0.0,0.0,0.0,0.0,0.0,0.0,0.0,0.0,0.0,0.0,0.0,0.0,0.0,0.0,0.0,0.0,0.0,0.0,0.0,2.6079,2.6442,2.6976,2.6779,2.6519,2.6237,2.4551,2.3186,2.2176,2.0539,1.9797,1.9938,1.9793,2.0779,2.2756,2.3401,2.4719,2.6475,2.7112,2.8,2.8945,2.8535,0.0,0.0,0.0,0.0,0.0,0.0,0.0,0.0,0.0,2.3852,2.3992,2.2763,2.2198,2.1743,2.0433,1.9995,1.9987,2.0058,2.1026,2.2188,2.2922,2.3814,0.0,2.5567,2.6094,2.6879,2.8665,2.9203,2.9863,3.1413,3.2127,3.2459,3.2353,3.2119,3.1766,3.1178,3.0869,3.0398,2.9587,2.9966,3.0386,3.0593,3.1051,3.1433,3.1758,3.1758,3.1699,3.1523,3.1269,3.1055,3.0898,3.0995,3.1286,3.1787,3.1133,3.0996,3.1374,3.0781,3.0414,3.0195,3.0371,3.0956,3.185,3.2176,3.2803,3.3588,3.3512,3.3811,3.4166,3.3163,3.2465,3.191,3.113,3.097,3.111,0.0,0.0,0.0,0.0,0.0,0.0,0.0,0.0,0.0,0.0,0.0,0.0,0.0,0.0,0.0,0.0,0.0,0.0,2.6816,2.7023,2.7458,2.798,2.7767,2.7633,2.77,2.5785,2.4013,2.2422,2.0078,1.9197,1.9693,1.9805,2.1111,2.3386,2.395,2.5269,2.7121,2.7339,2.7993,2.8816,2.8427,2.798,0.0,0.0,0.0,0.0,0.0,0.0,0.0,0.0,2.3524,2.3515,2.2605,2.2183,2.1883,2.1116,2.0813,2.0847,2.1351,2.2258,2.3331,2.4438,0.0,2.7084,2.8439,2.8649,2.9022,3.069,3.1767,3.2404,3.2465,3.2906,3.3131,3.2745,3.2405,3.1998,3.1372,3.0849,3.0285,2.9715,3.0098,3.0489,3.0731,3.1199,3.1552,3.1719,3.1719,3.166,3.1523,3.125,3.1035,3.0898,3.0966,3.1228,3.1643,3.0892,3.0941,3.1643,3.0888,3.055,3.0554,3.0554,3.112,3.2156,3.2481,3.3172,3.4084,3.4077,3.4371,3.4683,3.3578,3.2944,3.2533,3.1604,3.1621,3.2129,0.0,0.0,0.0,0.0,0.0,0.0,0.0,0.0,0.0,0.0,0.0,0.0,0.0,0.0,0.0,0.0,0.0,0.0,2.7,2.8023,2.8483,2.8048,2.8925,2.8858,2.7729,2.6561,2.5251,2.3772,2.1033,1.9579,1.9411,2.0085,2.1507,2.3544,2.4126,2.5487,2.7315,2.7315,2.7399,2.7492,2.7496,2.7261,2.6865,0.0,0.0,0.0,0.0,0.0,0.0,0.0,2.3385,2.2651,2.3448,2.2965,2.2233,2.2824,2.2565,2.2413,2.373,2.43,2.4913,2.6512,2.7641,2.9063,3.1874,3.1529,3.1003,3.235,3.3809,3.4403,3.3051,3.385,3.4159,3.248,3.2197,3.1998,3.1401,3.049,2.9892,2.9892,3.0216,3.0712,3.1405,3.1474,3.1699,3.2159,3.2179,3.1973,3.1513,3.1474,3.1328,3.0898,3.117,3.1296,3.1296,3.1296,3.1296,3.1296,3.0554,3.0573,3.1296,3.1296,3.1708,3.2431,3.2754,3.3166,3.3604,3.3962,3.4371,3.4744,3.4268,3.4081,3.3992,3.3335,3.3095,3.3095,0.0,0.0,0.0,0.0,0.0,0.0,0.0,0.0,0.0,0.0,0.0,0.0,0.0,0.0,0.0,0.0,0.0,0.0,2.8812,2.9059,2.9264,2.9284,2.9489,2.8896,2.7369,2.5073,2.3172,2.1685,1.9729,1.9247,2.0163,2.0379,2.1857,2.4343,2.4826,2.5889,2.7332,2.7699,2.7986,2.8142,2.8182,2.785,2.7287,0.0,0.0,0.0,0.0,0.0,0.0,0.0,0.0,0.0,2.4039,2.3684,2.3076,2.3285,2.3347,2.3484,2.4135,2.5189,2.651,2.8174,2.9581,3.1027,3.2805,3.2802,3.2865,3.439,3.5206,3.5228,3.3851,3.3964,3.4011,3.3165,3.2207,3.1661,3.1911,3.0752,2.9981,3.0216,3.0557,3.085,3.1074,3.1074,3.1133,3.1299,3.1299,3.1211,3.1094,3.1074,3.1016,3.0898,3.0966,3.1112,3.1296,3.1112,3.1112,3.1296,3.0887,3.0759,3.0888,3.0888,3.1394,3.2336,3.2452,3.2842,3.3458,3.3575,3.3874,3.4247,3.3791,3.3605,3.3534,3.3012,3.3035,3.3311,0.0,0.0,0.0,0.0,0.0,0.0,0.0,0.0,0.0,0.0,0.0,0.0,0.0,0.0,0.0,0.0,0.0,0.0,0.0,3.0158,3.0019,2.9534,2.9461,2.8414,2.6246,2.3994,2.2278,2.1119,1.9962,1.9841,2.0707,2.1234,2.273,2.4975,2.5504,2.6363,2.739,2.7732,2.785,2.7859,2.8086,2.7846,2.7353,0.0,0.0,0.0,0.0,0.0,0.0,0.0,0.0,0.0,2.4323,2.4151,2.3833,2.4798,2.5062,2.5389,2.6913,2.8091,2.9361,3.1265,3.2386,3.3277,3.4324,3.4356,3.4528,3.5816,3.5864,3.5368,3.4585,3.4343,3.4151,3.3628,3.26,3.192,3.217,3.1121,3.0304,3.0392,3.0704,3.0898,3.0898,3.0898,3.0898,3.0898,3.0898,3.0957,3.1054,3.0957,3.0937,3.1054,3.0957,3.0966,3.1141,3.0966,3.0966,3.1141,3.0966,3.0974,3.1148,3.1148,3.1632,3.2469,3.2662,3.2975,3.3418,3.3605,3.3957,3.4309,3.3667,3.3522,3.3625,3.3141,3.3161,3.3468,0.0,0.0,0.0,0.0,0.0,0.0,0.0,0.0,0.0,0.0,0.0,0.0,0.0,0.0,0.0,0.0,0.0,0.0,0.0,3.125,3.0667,2.9105,2.8805,2.7427,2.4756,2.3362,2.2317,2.1654,2.1181,2.1032,2.1251,2.2509,2.394,2.5469,2.6139,2.6824,2.749,2.7523,2.7306,2.6994,2.7487,2.7391,2.6986,2.7277,0.0,0.0,0.0,0.0,0.0,0.0,0.0,0.0,2.4535,2.4556,2.4637,2.6884,2.7351,2.7778,3.0902,3.1996,3.2756,3.4915,3.5434,3.5522,3.6109,3.5936,3.5864,3.6502,3.5865,3.5178,3.5137,3.4827,3.4435,3.3874,3.3085,3.2481,3.2223,3.1352,3.0694,3.048,3.0704,3.0898,3.0898,3.0898,3.0879,3.084,3.0859,3.0976,3.1178,3.1005,3.0995,3.1267,3.1025,3.0898,3.0898,3.0898,3.0898,3.0898,3.0908,3.1228,3.1787,3.1787,3.2153,3.2719,3.3141,3.3356,3.3377,3.3853,3.4288,3.4578,3.3791,3.3708,3.3978,3.3563,3.3397,3.3547,0.0,0.0,0.0,0.0,0.0,0.0,0.0,0.0,0.0,0.0,0.0,0.0,0.0,0.0,0.0,0.0,0.0,0.0,0.0,3.1989,3.0852,2.8657,2.6955,2.5625,2.4624,2.36,2.2777,2.213,2.1513,2.1776,2.2913,2.3564,2.476,2.6422,2.6577,2.6952,2.7506,2.7673,2.7263,2.661,2.7274,2.6844,2.5914,2.6381,2.6371,0.0,0.0,0.0,0.0,0.0,0.0,0.0,2.5815,2.5911,2.5906,2.7561,2.8689,2.9649,3.0925,3.2328,3.3697,3.4841,3.556,3.6083,3.6311,3.6306,3.6098,3.5647,3.5828,3.5715,3.4677,3.4504,3.4367,3.3885,3.2455,3.1564,3.1999,3.0666,2.992,3.0694,3.0869,3.0898,3.0898,3.0898,3.0742,3.0371,3.0684,3.0752,3.0437,3.0713,3.0928,3.0966,3.0928,3.0898,3.0898,3.0898,3.0898,3.0898,3.1112,3.1412,3.1787,3.1787,3.2153,3.2719,3.2801,3.2843,3.2884,3.3377,3.3605,3.3729,3.3874,3.3791,3.3542,3.3439,3.3593,3.3825,0.0,0.0,0.0,0.0,0.0,0.0,0.0,0.0,0.0,0.0,0.0,0.0,0.0,0.0,0.0,0.0,0.0,0.0,0.0,0.0,3.064,2.8407,2.6746,2.546,2.4574,2.4251,2.3654,2.2692,2.3023,2.3369,2.3676,2.4903,2.5853,2.6577,2.713,2.7412,2.7506,2.7606,2.7239,2.6576,2.6937,2.6492,2.5675,2.5928,2.5911,2.5704,2.5357,0.0,0.0,0.0,0.0,0.0,0.0,0.0,2.7167,2.8994,3.023,3.1401,3.339,3.4559,3.5379,3.6039,3.6497,3.6749,3.6447,3.6121,3.5595,3.4775,3.5116,3.5163,3.3973,3.3817,3.3748,3.3486,3.2194,3.1311,3.1636,3.0361,2.9717,3.0479,3.0566,3.0644,3.0859,3.0898,3.0801,3.0547,3.0937,3.1113,3.0979,3.1258,3.1486,3.1612,3.1269,3.1123,3.1191,3.1123,3.1083,3.1112,3.1383,3.1701,3.2047,3.2162,3.2412,3.2698,3.2698,3.2698,3.276,3.343,3.375,3.3791,3.4396,3.4387,3.4069,3.4186,3.4219,3.4299,0.0,0.0,0.0,0.0,0.0,0.0,0.0,0.0,0.0,0.0,0.0,0.0,0.0,0.0,0.0,0.0,0.0,0.0,0.0,0.0,0.0,2.828,2.7236,2.6074,2.4733,2.5125,2.4751,2.3555,2.4966,2.5287,2.4608,2.6268,2.6997,2.6924,2.7781,2.7971,2.762,2.7458,2.707,2.661,2.6441,2.6046,2.557,2.5506,2.5451,2.5366,2.5328,2.5024,2.4744,2.5301,0.0,0.0,0.0,0.0,2.8247,3.0314,3.1495,3.2749,3.5648,3.6521,3.6763,3.7381,3.7508,3.7257,3.6572,3.5837,3.509,3.4189,3.4267,3.421,3.3234,3.3087,3.3098,3.3098,3.199,3.1202,3.1374,3.0334,2.969,3.0254,3.0312,3.0469,3.0859,3.0937,3.0947,3.0868,3.1231,3.1545,3.1692,3.1769,3.1929,3.2225,3.1592,3.1299,3.1465,3.1377,3.1325,3.1383,3.173,3.2047,3.2363,3.2612,3.2739,3.2822,3.2905,3.2884,3.2884,3.3832,3.4164,3.4173,3.5014,3.5151,3.4895,3.5117,3.5058,3.4982,0.0,0.0,0.0,0.0,0.0,0.0,0.0,0.0,0.0,0.0,0.0,0.0,0.0,0.0,0.0,0.0,0.0,0.0,3.3966,0.0,0.0,2.8324,2.7753,2.6879,2.5653,2.6081,2.6001,2.5341,2.6493,2.7114,2.7281,2.7272,2.785,2.889,2.8543,2.8333,2.8212,2.7225,2.6594,2.6216,2.5696,2.5135,2.4679,2.4658,2.4899,2.5196,2.5031,2.5431,2.606,2.6278,2.6173,0.0,0.0,0.0,2.8635,3.026,3.1862,3.323,3.3881,3.4915,3.6147,3.744,3.7488,3.7079,3.6529,3.6133,3.5525,3.426,3.3815,3.3418,3.2659,3.2845,3.3098,3.3098,3.1602,3.0785,3.1781,3.0338,2.9572,3.0674,3.0801,3.082,3.0879,3.1112,3.1099,3.0752,3.1079,3.1326,3.1354,3.1171,3.1221,3.1623,3.1201,3.1073,3.1336,3.1306,3.1441,3.173,3.2076,3.2383,3.2641,3.2669,3.2905,3.3335,3.375,3.3687,3.3397,3.4309,3.4454,3.4214,3.5369,3.5545,3.5188,3.5486,3.5785,3.5994,0.0,0.0,0.0,0.0,0.0,0.0,0.0,0.0,0.0,0.0,0.0,0.0,0.0,0.0,0.0,3.796,3.5646,3.3481,3.1968,3.0158,2.8964,2.8555,2.8327,2.7599,2.6282,2.704,2.6947,2.5926,2.7347,2.8058,2.8138,2.8518,2.8862,2.9124,2.8952,2.856,2.7884,2.707,2.625,2.5511,2.5353,2.5153,2.4922,2.4733,2.498,2.5377,2.4986,2.5284,2.593,2.6106,2.6545,2.7255,2.8354,0.0,0.0,0.0,3.2764,3.4,3.4918,3.5848,3.6687,3.7085,3.7028,3.6705,3.5908,3.5284,3.4597,3.3545,3.2856,3.2347,3.2009,3.211,3.235,3.266,3.1471,3.0722,3.1498,3.033,2.9664,3.043,3.0508,3.0605,3.0859,3.1141,3.1216,3.1067,3.1589,3.2004,3.2179,3.2062,3.2224,3.2664,3.2033,3.1763,3.1916,3.1879,3.2018,3.2326,3.2716,3.2839,3.2719,3.2975,3.3203,3.3418,3.3625,3.375,3.3853,3.4676,3.4903,3.4837,3.5994,3.6234,3.5921,3.6467,3.6617,3.6682,0.0,0.0,0.0,0.0,0.0,0.0,0.0,0.0,0.0,0.0,0.0,0.0,0.0,0.0,0.0,0.0,3.5005,3.2613,3.002,2.9927,2.9637,2.8936,2.9099,2.8603,2.7348,2.8093,2.7968,2.685,2.8222,2.8803,2.8669,2.9484,2.9571,2.9105,2.953,2.9111,2.802,2.7455,2.6562,2.5565,2.5547,2.5478,2.5363,2.5235,2.5449,2.5806,2.5432,2.554,2.5924,2.6206,2.6916,2.7876,2.9072,3.0077,0.0,0.0,0.0,3.4248,3.5636,3.6371,3.6701,3.6539,3.6498,3.6294,3.5404,3.4624,3.3872,3.3128,3.238,3.1849,3.1849,3.1705,3.1782,3.2306,3.1423,3.0853,3.1402,3.052,2.9962,3.0341,3.0371,3.0537,3.0976,3.1385,3.1589,3.1576,3.2261,3.2819,3.3055,3.2904,3.3008,3.3455,3.263,3.2299,3.252,3.2697,3.2794,3.2863,3.3223,3.3141,3.2719,3.3058,3.3294,3.3418,3.3646,3.3957,3.4339,3.5067,3.5293,3.529,3.6444,3.6728,3.6606,3.7162,3.7245,3.7128,0.0,0.0,0.0,0.0,0.0,0.0,0.0,0.0,0.0,0.0,0.0,0.0,4.0394,3.9019,3.8012,3.7688,3.4716,3.1793,2.93,3.0458,3.067,2.9528,3.0142,0.0,2.926,2.93,2.9201,2.8944,2.9408,2.9518,2.9349,2.9775,2.9775,2.9441,3.0436,3.0314,2.9265,2.8793,2.8008,2.7039,2.6477,2.5972,2.5643,2.6047,2.6349,2.6552,2.6597,2.6618,2.6717,2.7233,2.7382,2.7694,2.991,3.0528,3.0779,0.0,0.0,0.0,3.4658,3.5102,3.533,3.5819,3.6001,3.5893,3.5332,3.4769,3.4194,3.3591,3.2998,3.2556,3.2556,3.2032,3.1782,3.2306,3.149,3.108,3.1844,3.1027,3.0474,3.08,3.0859,3.0976,3.1238,3.1965,3.2396,3.226,3.3064,3.3554,3.3554,3.288,3.2712,3.3125,3.2279,3.2163,3.2872,3.3635,3.3782,3.3377,3.3397,3.3141,3.2698,3.2719,3.2996,3.346,3.433,3.4723,3.4816,3.5579,3.5587,3.529,3.6444,3.6902,3.6911,3.7253,3.7374,3.744,0.0,0.0,0.0,0.0,0.0,0.0,0.0,0.0,0.0,0.0,0.0,0.0,0.0,3.8326,3.7002,3.5795,3.3568,3.1465,2.9737,3.0513,3.0646,2.9782,3.0422,3.0366,2.9409,2.9935,2.9947,2.9282,2.9438,2.9399,2.9229,2.936,2.9007,2.8281,2.9107,2.912,2.846,2.7945,2.7324,2.6609,2.6534,2.6591,2.6747,2.67,2.7184,2.7856,2.752,2.7904,2.8644,2.9232,2.9786,3.0432,3.1471,3.219,3.279,3.3645,3.3514,3.328,3.4189,3.3953,3.3631,3.4468,3.4604,3.4365,3.3774,3.3524,3.3121,3.2222,3.1867,3.1658,3.1474,3.1484,3.1691,3.2185,3.1524,3.1025,3.1244,3.0782,3.041,3.0457,3.0449,3.0662,3.1247,3.1754,3.2235,3.2656,3.3167,3.3614,3.3903,3.3373,3.3129,3.3293,3.269,3.2646,3.3223,3.3815,3.4019,3.3853,3.3853,3.3605,3.3141,3.2822,3.2975,3.3439,3.4318,3.4817,3.5109,3.5896,3.6255,3.634,3.6998,3.7214,3.7275,3.7607,3.7728,3.7794,0.0,0.0,0.0,0.0,0.0,0.0,0.0,0.0,0.0,0.0,0.0,0.0,0.0,0.0,3.6263,3.4164,3.2906,3.1655,3.0341,3.0916,3.1072,3.0537,3.0992,3.0946,3.0244,3.0619,3.0408,2.9599,2.9479,2.9145,2.8697,2.8771,2.8361,2.7573,2.8023,2.8217,2.8217,2.8086,2.7551,2.6818,2.733,2.7555,2.7574,2.7916,2.8692,2.9524,2.9098,2.9478,3.0263,3.0842,3.1146,3.1469,3.2482,3.3265,3.3865,3.4022,3.3471,3.2856,3.3339,3.299,3.268,3.3407,3.3244,3.2882,3.2714,3.2471,3.2104,3.1629,3.1458,3.1391,3.1376,3.1164,3.1196,3.1758,3.1413,3.1,3.0812,3.0622,3.0372,3.0054,2.998,3.0327,3.1153,3.1592,3.2082,3.2793,3.3458,3.3936,3.4081,3.3812,3.3501,3.3161,3.3016,3.3078,3.3397,3.4019,3.4247,3.4102,3.4247,3.3998,3.3397,3.3165,3.3264,3.3614,3.4395,3.4918,3.526,3.6201,3.6698,3.6911,3.7253,3.7465,3.7585,3.7818,3.7968,3.8125,0.0,0.0,0.0,0.0,0.0,0.0,0.0,0.0,0.0,4.1378,0.0,0.0,0.0,0.0,0.0,3.3034,3.2793,3.2301,3.1102,3.1705,3.1983,3.176,3.1941,3.2002,3.1907,3.1311,3.0687,3.0007,2.9579,2.8875,2.7901,2.8079,2.7938,2.749,2.751,2.7955,2.8741,2.9395,2.893,2.7835,2.8968,2.8811,2.8082,2.97,3.0842,3.1517,3.1334,3.1281,3.1436,3.1971,3.1299,3.0599,3.2909,3.3671,3.3662,3.345,3.2846,3.2236,0.0,0.0,0.0,3.2697,3.2041,3.1527,3.2199,3.1739,3.1352,3.203,3.1903,3.186,3.2343,3.1052,3.0214,3.1017,3.1172,3.1012,3.0606,3.0562,3.0323,2.9687,2.9607,3.0007,3.1007,3.1486,3.2026,3.2641,3.3978,3.4567,3.4081,3.4069,3.3646,3.2747,3.317,3.3397,3.3397,3.436,3.4588,3.4152,3.4608,3.4339,3.3447,3.368,3.3854,3.3962,3.4689,3.5096,3.5321,3.6444,3.6902,3.6941,3.7275,3.7616,3.7908,3.7908,3.8118,3.8477,0.0,0.0,0.0,0.0,0.0,0.0,4.0541,4.0256,3.9924,0.0,0.0,0.0,3.8221,3.6488,3.4667,3.2757,3.2568,3.2426,3.211,3.2228,3.2441,3.2783,3.2747,3.2531,3.2135,3.1435,3.0867,3.0423,2.9003,2.8239,2.8099,2.7676,2.7415,2.729,2.7797,2.8219,2.8582,2.8902,2.8998,2.8987,2.9601,3.0005,3.0321,3.0764,3.1606,3.2508,3.2447,3.2475,3.2624,3.3205,3.3166,3.2987,3.39,3.395,3.362,3.3236,3.2479,3.1852,3.2194,0.0,0.0,0.0,0.0,0.0,3.1114,3.0721,3.0389,3.1045,3.0425,2.9962,3.0567,2.9756,2.9307,3.0253,3.012,2.9829,2.9699,2.9658,2.9685,2.9733,2.956,2.9766,3.0593,3.0957,3.1582,3.2628,3.328,3.3563,3.3388,3.3281,3.3247,3.3353,3.3803,3.392,3.368,3.4867,3.5267,3.4879,3.5267,3.5133,3.4572,3.4291,3.418,3.423,3.501,3.557,3.5952,3.6626,3.7032,3.7305,3.7637,3.7818,3.7938,3.8395,3.8604,3.8716,0.0,0.0,0.0,0.0,0.0,3.9588,3.9922,3.9422,3.8969,0.0,0.0,0.0,3.6732,3.5683,3.4521,3.3082,3.3035,3.3052,3.296,3.2791,3.2959,3.3563,3.3298,3.3106,3.2988,3.187,3.1027,3.0566,2.8782,2.7861,2.7777,2.7394,2.7353,2.7615,2.8039,2.8593,2.9257,2.9568,2.9611,2.9625,3.0517,3.1109,3.1514,3.2064,3.3096,3.4175,3.4079,3.4292,3.4658,3.4636,3.426,3.3777,3.3688,3.3537,3.3211,3.2475,3.2043,3.1714,3.1392,3.0812,3.0343,3.0585,0.0,0.0,3.0327,2.9864,2.9571,3.0465,2.9829,2.9332,3.0031,2.9381,2.8923,2.9409,2.922,2.9062,2.9295,2.9404,2.9448,2.941,2.9332,2.9654,3.0493,3.0717,3.1361,3.2685,3.3162,3.3353,3.3303,3.341,3.3416,3.331,3.3955,3.4124,3.3725,3.4837,3.5333,3.5125,3.5494,3.5572,3.5274,3.4952,3.4796,3.4847,3.5446,3.5974,3.6451,3.6928,3.7305,3.7637,3.7818,3.8058,3.8306,3.8663,3.8901,3.9019,0.0,0.0,0.0,3.943,3.9185,3.8929,3.9006,3.9058,3.8965,0.0,3.8209,3.7196,3.5393,3.5297,3.49,3.3716,3.3761,3.3786,3.3768,3.3409,3.3516,3.4197,3.3776,3.3662,3.4,3.229,3.1075,3.0438,2.8682,2.7598,2.721,2.7231,2.7574,2.8199,2.8319,2.9121,3.0398,3.0895,3.0774,3.0372,3.1694,3.2193,3.2255,3.3534,3.487,3.6006,3.5793,3.6194,3.6757,3.5976,3.4825,3.3607,3.3158,3.2988,3.2772,3.1825,3.1788,3.1797,3.0525,3.079,3.1257,3.0474,3.0125,0.0,2.9813,2.9214,2.9009,3.0074,2.9599,2.9243,3.0062,2.9421,2.8765,2.8764,2.8621,2.8759,2.9397,2.9602,2.9551,2.9101,2.9255,2.9715,3.0582,3.068,3.1312,3.2708,3.3274,3.36,3.372,3.4097,3.3927,3.3102,3.4005,3.4254,3.3728,3.4701,3.5171,3.5141,3.5661,3.5832,3.5734,3.5652,3.5561,3.5547,3.5889,3.6268,3.6772,3.7232,3.7602,3.7908,3.7938,3.8306,3.8812,3.8841,3.9049,3.9308,0.0,0.0,3.7025,3.7131,3.7123,3.7249,3.7764,3.8,3.8116,3.8085,3.7458,3.6726,3.5915,3.5159,3.4409,3.3642,3.3434,3.3734,3.4647,3.4223,3.4241,3.5029,3.45,3.4,3.3535,3.1835,3.0621,2.9935,2.8189,2.7292,2.721,2.7371,2.7716,2.8239,2.9067,2.9909,3.0857,3.1919,3.2611,3.3027,3.3045,3.347,3.4146,3.4932,3.5712,3.6412,3.6353,3.6154,3.5937,3.5761,3.5098,3.4419,3.4877,3.4507,3.3728,3.3229,3.287,3.2631,3.263,3.218,3.1564,3.0996,3.0661,0.0,2.9685,2.9123,2.8867,2.9476,2.8265,2.7493,2.8744,2.8108,2.7744,2.8831,2.9163,2.9461,2.9978,2.9872,3.0018,3.0668,3.0602,3.0469,3.0457,3.0644,3.1227,3.2247,3.2977,3.3627,3.4267,3.4426,3.4382,3.4187,3.5149,3.5324,3.4568,3.5771,3.6248,3.5981,3.6703,3.6671,3.5961,3.6143,3.6024,3.5678,3.5963,3.6366,3.6827,3.7346,3.7681,3.7938,3.8201,3.8507,3.8841,3.9078,3.9249,3.9308,0.0,3.693,3.6844,3.6844,3.6752,3.68,3.7115,3.7156,3.7179,3.7202,3.6787,3.6238,3.5475,3.5039,3.4412,3.3481,3.3555,3.3916,3.4518,3.4356,3.4434,3.4821,3.4554,3.4084,3.3407,3.1942,3.0912,3.0343,2.8885,2.808,2.7973,2.8533,2.912,2.9732,3.0437,3.1667,3.321,3.3501,3.409,3.4818,3.456,3.4818,3.5482,3.6216,3.6896,3.7396,3.7099,3.6662,3.6174,3.5959,3.554,3.5056,3.4835,3.4971,3.4994,3.3993,3.3906,3.4017,3.3398,3.3007,3.2543,3.1605,3.1107,0.0,0.0,2.9102,2.8678,2.9147,2.8413,2.7815,2.8374,2.8317,2.8303,2.8698,2.9268,2.9905,3.0516,3.0711,3.0998,3.1565,3.1781,3.179,3.1614,3.173,3.2152,3.2979,3.3857,3.4439,3.4576,3.482,3.4764,3.4356,3.5329,3.5536,3.4912,3.599,3.656,3.656,3.6949,3.7015,3.6801,3.6407,3.6108,3.5892,3.6033,3.638,3.6895,3.7394,3.8044,3.8724,3.8627,3.8805,3.9078,3.9249,3.9308,3.9308,3.629,3.6517,3.6557,3.6557,3.6507,3.645,3.645,3.6469,3.6454,3.6363,3.6092,3.5603,3.4844,3.4723,3.4385,3.3576,3.3909,3.4193,3.428,3.4422,3.4522,3.4481,3.4377,3.4,3.3279,3.2194,3.1412,3.0901,2.9925,2.9345,2.9192,3.0074,3.0812,3.1384,3.2035,3.3389,3.5141,3.4964,3.5322,3.5959,3.6075,3.6182,3.6352,3.7263,3.7844,3.8145,3.7562,3.6988,3.6476,3.6393,3.615,3.5744,3.4992,3.5548,3.6237,3.508,3.5196,3.5458,3.428,3.3911,3.3533,3.2265,3.1512,3.0831,0.0,0.0,0.0,2.8912,2.8676,2.841,2.8391,2.8733,2.8881,2.852,2.9285,3.0216,3.0974,3.1785,3.2272,3.2169,3.2808,3.3184,3.2953,3.3269,3.3691,3.4196,3.5165,3.5522,3.5116,3.5426,3.5278,3.4464,3.5307,3.5601,3.5218,3.6061,3.6687,3.7036,3.7148,3.7282,3.7439,3.669,3.6218,3.6039,3.6123,3.6443,3.6961,3.7434,3.8354,3.9378,3.8955,3.9088,3.9446,3.939,3.9367,3.9308,3.447,3.4492,3.4275,3.4275,3.4774,3.5204,3.5204,3.6109,3.6536,3.5969,3.5239,3.4726,3.4635,3.3853,3.369,3.4561,3.4477,3.4544,3.4959,3.5009,3.4942,3.4756,3.4361,3.3704,3.281,3.2173,3.1561,3.0901,3.0702,3.0675,3.0848,3.1524,3.1907,3.2052,3.3606,3.4175,3.4099,3.5688,3.6288,3.6297,3.7565,3.7443,3.661,3.7823,3.7985,3.754,3.6996,3.6373,3.5953,3.7,3.6958,3.6659,3.7588,3.752,3.7182,3.7581,3.712,3.6501,3.6702,3.5549,3.4022,3.2802,3.1883,3.0885,2.952,0.0,2.8934,2.8545,0.0,2.7644,2.8283,0.0,0.0,2.8544,2.9512,3.0445,3.1229,3.2958,3.3667,3.2502,3.3696,3.4294,3.3593,3.4966,3.5763,3.5418,3.635,3.6777,3.6491,3.6475,3.6077,3.53,3.5793,3.6039,3.5994,3.6553,3.7074,3.7529,3.7999,3.7775,3.6969,3.7115,3.6686,3.5848,3.615,3.6535,3.7033,3.7542,3.8143,3.8722,3.8794,3.9293,3.9988,3.9817,3.9567,3.9397,3.3465,3.3395,0.0,3.3676,3.3895,3.4136,3.4487,3.5144,3.5776,3.6101,3.5219,3.472,3.5181,3.4328,3.4005,3.4679,3.4778,3.49,3.5086,3.5106,3.5065,3.4983,3.4797,3.423,3.33,3.3174,3.2794,3.2111,3.2225,3.2343,3.2505,3.3511,3.4131,3.4477,3.548,3.6221,3.6749,3.7538,3.7653,3.7456,3.924,3.9241,3.8242,3.8781,3.8384,3.7497,3.7049,3.6591,3.6307,3.6947,3.7368,3.7588,3.7419,3.7843,3.8357,3.7901,3.7919,3.8096,3.8253,3.6766,3.4993,3.4341,3.265,3.0899,3.0,2.9563,2.9242,2.8881,0.0,0.0,0.0,0.0,0.0,0.0,3.0118,3.1008,3.1491,3.3156,3.4297,3.4258,3.5366,3.5991,3.5655,3.66,3.6822,3.5854,3.7076,3.7461,3.6564,3.6735,3.6648,3.6168,3.621,3.6218,3.6218,3.6573,3.6906,3.723,3.7485,3.7372,3.6963,3.6807,3.6498,3.6086,3.625,3.6736,3.7494,3.7701,3.8464,3.9452,3.9183,3.9304,3.9666,3.9754,3.9899,4.0078,3.2196,0.0,0.0,3.2905,3.2873,3.3065,3.383,3.4248,3.4754,3.5489,3.4882,3.462,3.5271,3.4938,3.4791,3.5071,3.527,3.5351,3.529,3.527,3.5249,3.5188,3.5038,3.4647,3.3915,3.4016,3.3869,3.3377,3.378,3.4069,3.4279,3.5391,3.6092,3.6447,3.7158,3.7927,3.867,3.9062,3.9035,3.8876,4.0501,4.0572,3.9624,3.9299,3.8423,3.7308,3.7018,3.6774,3.668,3.7152,3.7688,3.8022,3.7338,3.8016,3.8912,3.8212,3.8515,3.9113,3.9218,3.7559,3.5667,3.509,3.3007,3.095,3.0324,2.9936,2.9641,2.9478,2.9683,0.0,0.0,0.0,2.992,2.9704,0.0,3.137,3.1889,3.3389,3.4588,3.518,3.628,3.7021,3.708,3.7913,3.7911,3.6604,3.7935,3.8316,3.713,3.7225,3.7197,3.682,3.6746,3.6757,3.6757,3.6879,3.7076,3.7353,3.7325,3.7229,3.6984,3.6645,3.6484,3.6484,3.6484,3.7155,3.8206,3.8206,3.897,4.008,3.9742,3.9541,3.9485,3.9779,4.0152,4.0497,3.0309,3.1223,3.195,3.1366,3.1437,3.1961,3.3156,3.3501,3.3619,3.3509,3.3851,3.4189,3.4429,3.5278,3.588,3.6033,3.6066,3.5958,3.569,3.5669,3.5588,3.5386,3.4956,3.4626,3.4377,3.4377,3.4377,3.4356,3.5202,3.5823,3.6227,3.7116,3.7395,3.7215,3.8472,3.8733,3.8311,3.9755,4.0348,4.0397,4.1085,4.0963,4.0227,3.9053,3.7847,3.6729,3.6647,3.6599,3.6768,3.7962,3.7995,3.7642,3.8157,3.8374,3.8537,3.9074,3.9108,3.9087,3.9482,3.7832,3.5691,3.4458,3.2769,3.1136,3.0148,3.0097,3.0271,3.0271,3.0629,3.0858,3.0599,3.0354,3.019,0.0,3.0598,0.0,0.0,3.3925,3.4744,3.4386,3.5759,3.6793,3.708,3.882,3.9403,3.8138,3.9213,3.96,3.8769,3.8262,3.7702,3.7116,3.7586,3.7845,3.7845,3.7868,3.8012,3.8245,3.8194,3.7747,3.7007,3.6984,3.6984,3.6984,3.6984,3.7833,3.9262,3.9262,3.959,4.0103,4.0373,4.019,3.9831,4.01,4.0217,4.0305,3.1235,0.0,3.1285,3.0978,3.1226,3.1822,3.3046,3.3678,3.4247,3.4955,3.4734,3.4875,3.5884,3.5748,3.5805,3.6425,3.6385,3.6266,3.6158,3.6158,3.6118,3.6058,3.5918,3.569,3.5467,3.5884,3.6024,3.5856,3.6598,3.7164,3.7567,3.8014,3.8291,3.8491,3.9501,3.9856,3.9755,4.1145,4.1463,4.1096,4.1436,4.1219,4.043,3.8991,3.8201,3.7769,3.7357,3.6937,3.6816,3.8209,3.8145,3.7636,3.8427,3.8825,3.8966,3.8754,3.9222,3.9719,3.9344,3.78,3.6134,3.5568,3.3356,3.136,3.1414,3.1321,3.1182,3.1077,3.1521,3.1807,3.1228,3.1297,3.1521,0.0,0.0,3.2516,0.0,3.5609,3.6972,3.7176,3.7966,3.8626,3.898,3.9869,3.9961,3.8909,3.9697,3.9535,3.8015,3.8328,3.8172,3.7443,3.7788,3.7887,3.7696,3.7483,3.7414,3.7497,3.7469,3.7239,3.6804,3.7174,3.7202,3.703,3.7379,3.8206,3.9308,3.9308,3.979,4.0555,4.0512,4.0548,4.0598,4.0563,4.075,4.1193,3.1691,3.1428,3.1172,3.063,3.1124,3.1846,3.2579,3.3487,3.4446,3.5377,3.5401,3.5643,3.653,3.6421,3.6378,3.669,3.6583,3.6567,3.6709,3.6515,3.6488,3.6709,3.6734,3.6634,3.6468,3.7234,3.7553,3.7368,3.8149,3.8698,3.9003,3.9063,3.9361,3.9913,4.0252,4.0666,4.1145,4.1878,4.2039,4.1831,4.1573,4.1318,4.0977,3.9765,3.8927,3.8323,3.7815,3.7347,3.7115,3.8264,3.8209,3.7764,3.8449,3.9027,3.937,3.8989,3.9316,3.9712,3.9225,3.7717,3.6136,3.5665,3.3832,3.2177,3.216,3.2136,3.2136,3.2081,3.2529,3.2746,3.2159,3.2461,3.2735,0.0,0.0,3.3752,0.0,3.7115,3.8477,3.8809,3.9249,3.9634,3.9934,4.0435,4.0553,4.01,4.0164,3.9647,3.83,3.8591,3.8451,3.7747,3.8192,3.8342,3.8179,3.7667,3.7479,3.7561,3.7372,3.7116,3.6847,3.7087,3.7298,3.7422,3.7711,3.8487,3.9584,3.9767,4.0135,4.0555,4.0841,4.0861,4.0722,4.0684,4.1041,4.1662,3.1766,3.1723,3.161,3.0478,3.1257,3.1964,3.1841,3.3045,3.4175,3.4771,3.5761,3.6393,3.6393,3.7314,3.7593,3.6875,3.678,3.6924,3.7348,3.6809,3.6753,3.7355,3.7403,3.7423,3.7423,3.8418,3.8919,3.8919,3.9809,4.0373,4.0568,4.0294,4.0606,4.1373,4.0775,4.1175,4.2352,4.1903,4.2118,4.2605,4.1501,4.1426,4.1833,4.1196,3.9925,3.8467,3.813,3.7848,3.7718,3.8336,3.8291,3.8057,3.8423,3.9087,3.9727,3.9744,3.9456,3.9093,3.9073,3.7543,3.5738,3.4799,3.4101,3.3434,3.2464,3.2625,3.3047,3.3312,3.359,3.3638,3.3288,3.3644,3.3709,3.2912,0.0,3.5029,3.6859,3.8354,3.9245,3.9163,3.9583,3.9878,3.9928,4.0556,4.1172,4.1646,4.0834,4.0094,3.9688,3.9221,3.8691,3.8104,3.8823,3.9226,3.9223,3.8449,3.8155,3.8387,3.7884,3.7486,3.7167,3.692,3.7343,3.824,3.8004,3.8769,4.0195,4.0594,4.0525,4.0271,4.1345,4.114,4.0281,4.0595,4.1115,4.1736,3.3361,3.3065,3.2781,3.2961,3.2568,3.2573,3.3544,3.4324,3.5014,3.5607,3.6258,3.6893,3.7653,3.7968,3.8149,3.824,3.7863,3.7825,3.8397,3.7854,3.7787,3.8397,3.8895,3.9165,3.9165,4.0028,4.0562,4.0734,4.098,4.1184,4.1392,4.1186,4.1167,4.1403,4.1733,4.1888,4.1883,4.2286,4.2418,4.238,4.2081,4.2018,4.206,4.1585,4.0935,4.0211,3.9991,3.9568,3.9246,4.0024,3.9892,3.9572,4.0316,4.0465,4.0357,4.0379,3.9897,3.9273,3.8752,3.7126,3.5597,3.5354,3.434,3.3574,3.4246,3.4198,3.4102,3.4366,3.4487,3.4315,3.3612,3.3684,3.3836,3.3834,3.5538,3.7271,3.8478,3.9511,4.0177,4.0216,4.0473,4.0582,4.0445,4.0491,4.1133,4.2542,4.1993,4.1334,4.0753,4.1059,4.0645,3.9316,3.9677,3.9759,3.957,3.9104,3.8749,3.8377,3.8452,3.8329,3.8082,3.8355,3.8732,3.9164,3.9273,3.9939,4.0959,4.0485,4.0647,4.1214,4.1205,4.1105,4.0942,4.1028,4.1459,4.2119,3.4693,3.4318,3.4282,3.516,3.4801,3.4437,3.4509,3.5149,3.5809,3.6417,3.6964,3.7562,3.8307,3.8554,3.8867,3.9347,3.8986,3.899,3.9574,3.9434,3.9453,3.9753,4.0409,4.0767,4.0767,4.1885,4.2417,4.2229,4.2719,4.2831,4.2549,4.2258,4.2049,4.2,4.2157,4.2238,4.2295,4.2732,4.2718,4.2411,4.2099,4.1972,0.0,4.1689,4.1373,4.1068,4.0935,4.0437,3.9898,4.0338,4.0531,4.0669,4.1329,4.1439,4.1291,4.1242,4.0414,3.9436,3.9079,3.747,3.5881,3.5939,3.5135,3.4458,3.5065,3.4968,3.4847,3.509,3.4869,3.4497,3.4142,3.4202,3.4524,3.511,3.6703,3.8203,3.9324,4.0207,4.0756,4.076,4.0979,4.1107,4.105,4.102,4.1844,4.379,4.2953,4.2111,4.166,4.1901,4.1409,3.9929,4.0121,4.0257,4.0209,3.9694,3.9333,3.9102,3.9228,3.9179,3.893,3.9078,3.9343,3.9694,3.9919,4.0362,4.0964,4.1119,4.1167,4.1099,4.0939,4.1002,4.1249,4.1466,4.1938,4.2577,3.6086,3.5836,3.6245,3.7217,3.7475,3.7061,3.5659,3.6218,3.6987,3.7533,3.8204,3.8721,3.8948,3.9342,3.9757,4.0194,4.0074,4.024,4.0842,4.1094,4.1219,4.1276,4.1884,4.2223,4.2242,4.3586,4.4029,4.3467,4.4428,4.4505,4.3773,4.3227,4.2908,4.2719,4.2208,4.235,4.2923,4.3061,4.2927,4.2565,4.198,4.1699,4.1593,4.1699,4.1567,4.1363,4.153,4.1068,4.0371,4.0316,4.0796,4.153,4.1885,4.1973,4.1937,4.1891,4.068,3.9433,3.9536,3.8063,3.6432,3.6358,3.5915,3.545,3.5331,3.5235,3.5282,3.5644,3.5083,3.459,3.4735,3.4914,3.5387,3.6554,3.7499,3.8547,3.9801,4.0645,4.1159,4.1169,4.126,0.0,4.1774,4.1922,4.2902,4.5104,4.3883,4.2901,4.2628,4.243,4.1726,4.044,4.056,4.0824,4.1178,4.036,4.0038,4.0178,4.015,3.9958,3.9705,3.9455,3.963,4.0102,4.0332,4.0558,4.0828,4.1942,4.1646,4.0531,4.0639,4.0908,4.1273,4.176,4.2355,4.2995,3.8231,3.8888,3.929,3.9458,3.9689,3.9821,3.9545,3.9404,3.9592,4.0322,4.0928,4.1237,4.101,4.1089,4.1067,4.0945,4.0926,4.1222,4.182,4.1839,4.2138,4.2788,4.3149,4.3402,4.358,4.407,4.4331,4.4349,4.4242,4.4187,4.4181,4.3387,4.2991,4.2921,4.2298,4.2162,4.2432,4.26,4.266,4.2593,4.248,4.2093,4.1671,4.2205,4.207,4.1689,4.2727,4.2871,4.2471,4.1992,4.2066,4.2385,4.2452,4.1578,4.0641,4.1055,4.0103,3.8921,3.8951,3.7859,3.6601,3.6179,3.5493,3.5103,3.5713,3.5513,3.5409,3.6117,3.5767,3.524,3.5052,3.5064,3.5687,3.7593,3.8657,3.961,4.0714,4.1155,4.1525,4.2009,4.1471,4.1587,4.2872,4.304,4.3717,4.5385,4.5459,4.5069,4.4324,4.4093,4.3395,4.2111,4.1688,4.1872,4.263,4.1776,4.1274,4.1068,4.0794,4.0515,4.0258,4.0202,4.049,4.099,4.1197,4.1543,4.1934,4.1464,4.1046,4.0679,4.0671,4.0908,4.1254,4.1556,4.2188,4.3044,4.1515,4.1499,4.1324,4.1459,4.1623,4.1832,4.2122,4.2326,4.2085,4.1076,4.1225,4.1339,4.1052,4.1267,4.1627,4.2254,4.2252,4.2457,4.3145,4.3474,4.3685,4.3738,4.4074,4.4304,4.4409,4.4776,4.466,4.4093,4.3918,4.3484,4.2771,4.2476,4.2097,4.1692,4.2094,4.2358,4.2458,4.2908,4.2902,4.2565,4.2205,4.1699,4.1193,4.184,4.2093,4.2205,4.2795,4.3345,4.3701,4.3085,4.3153,4.3401,4.2721,4.176,4.0826,4.055,3.9782,3.9,3.9219,3.834,3.7367,3.7092,3.6346,3.5726,3.6118,3.6017,3.5939,3.6331,3.5705,3.5032,3.4916,3.5342,3.6279,3.7988,3.8972,3.9802,4.0625,4.1121,4.1535,4.1885,4.1612,4.2129,4.4007,4.4508,4.4768,4.4859,4.5763,4.5569,4.3924,4.4325,4.4058,4.2814,4.2262,4.2346,4.3212,4.2381,4.1894,4.1717,4.1552,4.1242,4.0812,4.0812,4.096,4.122,4.1604,4.1816,4.1852,4.1413,4.1294,4.1348,4.1062,4.1057,4.1278,4.1807,4.2392,4.3049,4.4247,4.3701,4.3138,4.3226,4.3367,4.354,4.3766,4.4489,4.4201,4.1925,4.1658,4.1548,4.1097,4.1519,4.2191,4.3183,4.3388,4.3707,4.427,4.4903,4.5103,4.4716,4.4962,4.5172,4.5327,4.5545,4.5074,4.3806,4.3767,4.3021,4.1653,4.1693,4.1337,4.0715,4.1918,4.2525,4.2621,4.3104,4.2935,4.2317,4.1812,4.1334,4.0969,4.1587,4.2233,4.2818,4.2958,4.3582,4.434,4.3863,4.3919,4.3976,4.2775,4.1871,4.1071,4.0251,3.9532,3.9108,3.9297,3.8693,3.7939,3.7713,3.6934,3.623,3.638,3.6306,3.6205,3.6205,3.5418,3.4831,3.5147,3.5927,3.6996,3.852,3.9239,3.9869,4.0627,4.1042,4.1412,4.1817,4.1909,4.2717,4.4725,4.5635,4.5624,4.4442,4.5708,4.5679,4.37,4.418,4.4081,4.3127,4.2602,4.2765,4.3559,4.2778,4.2332,4.2282,4.2159,4.1798,4.1201,4.1201,4.1201,4.1249,4.1779,4.1849,4.1613,4.1613,4.1713,4.1803,4.149,4.1369,4.1471,4.2268,4.2778,4.3196,4.4788,4.5143,4.5254,4.4473,4.489,4.5064,4.4283,4.5196,4.5592,4.4474,4.4362,4.3875,4.2631,4.3071,4.3292,4.2804,4.3843,4.4583,4.4664,4.5177,4.5714,4.6266,4.5983,4.6083,4.6702,4.6171,4.5415,4.4529,4.4086,4.3393,4.246,4.1938,4.1609,4.1512,4.1905,4.2257,4.2593,4.2677,4.2289,4.1699,4.1643,4.1565,4.1587,4.2233,4.2879,4.3497,4.4059,4.4312,4.4397,4.434,4.4003,4.3439,4.259,4.1423,4.0343,4.0006,3.9445,3.8818,3.8291,3.809,3.7764,3.6783,3.6056,3.5732,3.6281,3.5981,3.5583,3.5583,3.5197,3.5297,3.6642,3.7077,3.7838,3.9869,4.0117,4.0447,4.1602,4.1305,4.1393,4.2536,4.2684,4.3216,4.4504,4.5795,4.6088,4.491,4.5758,4.6094,4.5569,4.4322,4.3539,4.3359,4.307,4.3353,4.4196,4.3355,4.2906,4.2823,4.2332,4.1798,4.1201,4.1201,4.1201,4.1249,4.1779,4.1966,4.1937,4.1937,4.1701,4.1321,4.1755,4.1923,4.2024,4.2821,4.334,4.3738,4.6898,4.6483,4.6153,4.5827,4.5812,4.5716,4.5391,4.6026,4.6086,4.4843,4.4699,4.432,4.3421,4.3531,4.3752,4.3895,4.4383,4.5047,4.5918,4.605,4.6354,4.6879,4.6268,4.6148,4.6711,4.5807,4.4961,4.4237,4.3432,4.2752,4.2284,4.1241,4.0937,4.1287,4.252,4.2968,4.2766,4.2637,4.2452,4.2177,4.1761,4.1593,4.1705,4.2739,4.3497,4.4088,4.4312,4.4626,4.4879,4.4514,4.3924,4.3046,4.1625,4.0659,3.9944,3.9035,3.8843,3.8843,3.8617,3.8266,3.7814,3.706,3.6457,3.6182,3.6758,3.6457,3.6031,3.6031,3.5897,3.6138,3.7219,3.8053,3.9173,4.1043,4.1006,4.083,4.1019,4.119,4.1256,4.1251,4.2142,4.3288,4.4659,4.5764,4.6442,4.6537,4.7139,4.6826,4.5298,4.4681,4.4358,4.4303,4.3258,4.3135,4.404,4.3338,4.289,4.2662,4.2294,4.1859,4.1406,4.1258,4.1201,4.1225,4.1442,4.1538,4.1538,4.1538,4.1394,4.1244,4.1803,4.1995,4.2097,4.2893,4.349,4.3961,4.7904,4.7467,4.7215,4.6884,4.6831,4.6697,4.643,4.6842,4.6687,4.5263,4.5399,4.5159,4.3846,4.4068,4.451,4.4984,4.5205,4.5728,4.674,4.6617,4.6667,4.6985,4.6466,4.6365,4.6672,4.5695,4.4861,4.4185,4.3489,4.2987,4.2629,4.2009,4.1826,4.21,4.3722,4.4055,4.3325,4.3172,4.293,4.2565,4.2093,4.2008,4.2261,4.316,4.3863,4.4401,4.4598,4.4823,4.4967,4.4502,4.3684,4.2635,4.1293,4.0572,4.0022,3.8868,3.8793,3.9095,3.8944,3.8442,3.7914,3.7513,3.6909,3.6532,3.7085,3.6783,3.6351,3.621,3.623,3.6551,3.7361,3.8767,4.0216,4.156,4.1343,4.1018,4.1032,4.1118,4.1125,4.0951,4.2341,4.3728,4.4622,4.5686,4.6578,4.718,4.7854,4.7362,4.5399,4.5056,4.4833,4.4685,4.3519,4.3138,4.3643,4.3217,4.279,4.2397,4.2171,4.1887,4.1463,4.1287,4.1201,4.1201,4.1201,4.1201,4.1201,4.1201,4.1201,4.1273,4.1971,4.2236,4.2338,4.3186,4.382,4.4263,4.7143,4.8008,4.8627,4.759,4.8111,4.8318,4.7243,4.7646,4.7601,4.6153,4.7104,4.6803,4.4004,4.4952,4.5792,4.5773,4.6392,4.6771,4.6803,4.6617,4.6504,4.6504,4.6761,4.6888,4.6919,4.6223,4.5465,4.4599,4.4842,4.4626,4.3992,4.5027,4.5157,4.4515,4.5602,4.543,4.4397,4.4397,4.3694,4.2593,4.2593,4.2935,4.3469,4.3497,4.3863,4.4458,4.5075,4.4907,4.4392,4.4235,4.3237,4.2014,4.1987,4.1495,4.0719,3.9929,3.9672,3.9572,3.9044,3.8442,3.8015,3.799,3.721,3.6532,3.7085,3.6783,3.629,3.5807,3.5872,3.6252,3.7139,3.9152,4.0837,4.1241,4.0861,4.0905,4.2113,4.126,4.1023,4.24,4.3934,4.4736,4.4331,4.5509,4.6304,4.6304,4.7351,4.7572,4.6528,4.5337,4.4518,4.4132,4.394,4.3592,4.3001,4.3015,4.2706,4.211,4.211,4.1798,4.1201,4.1201,4.1201,4.1201,4.1201,4.1201,4.1201,4.1201,4.1201,4.1321,4.238,4.2789,4.291,4.3907,4.4477,4.481,4.8489,4.863,4.873,4.8345,4.8688,4.8756,4.7906,4.825,4.832,4.7415,4.7662,4.7561,4.6658,4.6961,4.7245,4.7245,4.7435,4.7751,4.8193,4.8167,4.8261,4.8596,4.7696,4.7542,4.8314,4.6904,4.6255,4.6448,4.6404,4.5936,4.5149,4.7306,4.711,4.4944,4.6148,4.6177,4.528,4.509,4.4795,4.4429,4.4429,4.4542,4.4766,4.524,4.5521,4.5661,4.5384,4.5188,4.4844,4.3853,4.259,4.1433,4.129,4.0693,3.9981,3.9347,3.9421,3.9572,3.9044,3.8768,3.8492,3.809,3.7739,3.7538,3.7713,3.73,3.6901,3.7033,3.7032,3.7446,3.8889,3.9867,4.0898,4.2105,4.1215,4.0754,4.181,4.1349,4.106,4.1457,4.3024,4.3907,4.3457,4.5047,4.6082,4.6082,4.7703,4.8257,4.7301,4.6179,4.5515,4.5393,4.3779,4.3344,4.4154,4.3394,4.3078,4.3255,4.2481,4.1798,4.1201,4.1201,4.1201,4.1201,4.1201,4.1201,4.1201,4.1201,4.1201,4.1321,4.238,4.2789,4.291,4.3931,4.4378,4.447,4.8792,4.923,4.9475,4.8804,4.932,4.9528,4.8656,4.9018,4.9163,4.837,4.8509,4.8573,4.8288,4.8509,4.8541,4.8288,4.8256,4.8446,4.8876,4.8811,4.8847,4.8946,4.8079,4.7851,4.8462,4.7174,4.6768,4.7299,4.7487,4.725,4.6667,4.8361,4.7925,4.5737,4.6789,4.6849,4.6244,4.6075,4.589,4.5665,4.5665,4.5665,4.5693,4.5858,4.5914,4.5886,4.544,4.4941,4.4383,4.3445,4.2206,4.0997,4.0565,4.0235,3.9898,3.9371,3.9446,3.9622,3.9296,3.9044,3.8869,3.8668,3.8165,3.7663,3.7559,3.7277,3.7254,3.7909,3.8118,3.8548,3.977,4.0492,4.1274,4.2389,4.1369,4.0823,4.1882,4.1352,4.1013,4.1421,4.2763,4.3713,4.3745,4.5071,4.598,4.6202,4.7697,4.8427,4.8071,4.7062,4.6332,4.5947,4.4254,4.365,4.4384,4.3846,4.3607,4.3644,4.247,4.1659,4.1201,4.1201,4.1201,4.1201,4.1201,4.1201,4.1201,4.1201,4.1201,4.1297,4.2164,4.2621,4.2886,4.3691,4.4148,4.4285,4.8479,4.9775,5.0625,4.9093,4.9957,5.0518,4.9426,4.9864,5.0029,4.9149,4.9647,4.9785,4.9192,4.9659,4.9785,4.9192,4.9034,4.8952,4.8952,4.8789,4.8517,4.8048,4.804,4.7933,4.7729,4.7267,4.7169,4.7477,4.8244,4.8489,4.8351,4.8395,4.7804,4.6755,4.7351,4.7451,4.7207,4.7263,4.6954,4.642,4.642,4.6392,4.6279,4.5665,4.5384,4.5276,4.5228,4.4355,4.3169,4.2954,4.1942,4.0718,3.9929,4.0049,4.035,3.9848,3.9722,3.9747,3.9697,3.9346,3.907,3.9521,3.8391,3.7107,3.6863,3.6928,3.7348,3.842,3.9051,3.9528,3.9969,4.0995,4.1864,4.2074,4.1314,4.1078,4.2121,4.1309,4.0993,4.2012,4.309,4.4046,4.4869,4.5404,4.5975,4.6617,4.7491,4.8238,4.88,4.7933,4.6947,4.5943,4.5074,4.4407,4.3894,4.4323,4.4119,4.3279,4.2164,4.1463,4.1201,4.1201,4.1201,4.1201,4.1201,4.1201,4.1201,4.1201,4.1201,4.1244,4.1803,4.2332,4.2862,4.3337,4.3835,4.4285,5.039,5.039,5.0311,5.0178,5.0442,5.0467,4.9828,5.0359,5.0738,5.052,5.1101,5.1428,5.129,5.1417,5.1448,5.129,5.0279,4.9659,4.9659,4.9619,4.9537,4.9438,4.8785,4.8686,4.9111,4.853,4.8537,4.9269,4.9532,4.9332,4.8745,4.8536,4.7916,4.6938,4.7401,4.7451,4.7235,4.7687,4.78,4.7659,4.7659,4.7378,4.6982,4.6789,4.6143,4.5228,4.4674,4.3922,4.3015,4.1804,4.0864,4.015,3.9803,3.9798,3.9873,3.9747,3.9998,4.0224,3.9798,3.9597,3.9421,3.917,3.7937,3.7015,3.7745,3.7603,3.7634,3.8894,3.9739,4.0312,4.0424,4.1027,4.1473,4.1443,4.1026,4.0773,4.1061,4.1371,4.1589,4.1598,4.2948,4.4005,4.4215,4.5278,4.6339,4.7288,4.8355,4.9065,4.925,4.8783,4.7987,4.6839,4.4993,4.4245,4.4786,4.4263,4.3483,4.2396,4.2131,4.1716,4.1201,4.1201,4.1201,4.1201,4.1201,4.1201,4.1201,4.1201,4.1201,4.1244,4.1803,4.2332,4.2862,4.3337,4.3835,4.4244,5.1121,5.1102,5.1105,5.1167,5.1173,5.1037,5.0604,5.0862,5.1222,5.1437,5.1764,5.1891,5.1575,5.1543,5.1417,5.1049,5.0658,5.0405,5.0405,5.007,4.9912,4.9912,4.9355,4.9264,4.9721,4.961,4.9981,5.0881,5.0242,4.9556,4.8863,4.8181,4.7438,4.6737,4.6602,4.67,4.6933,4.7175,4.7434,4.7687,4.7687,4.7659,4.7575,4.7319,4.6616,4.5621,4.459,4.3533,4.2479,4.1297,4.0437,3.9829,3.9751,3.9873,4.0023,3.9772,4.0074,4.0374,3.9848,3.9697,3.9522,3.8843,3.7752,3.7145,3.8228,3.8215,3.8438,4.0177,4.0899,4.1287,4.1397,4.1579,4.1621,4.1424,4.1204,4.1022,4.1024,4.1624,4.2038,4.1994,4.3062,4.4104,4.4831,4.5811,4.6824,4.7851,4.882,4.9614,5.0108,4.9118,4.8107,4.7174,4.5722,4.5138,4.5461,4.4468,4.3457,4.2479,4.2066,4.1631,4.1201,4.1201,4.1201,4.1201,4.1201,4.1201,4.1201,4.1201,4.1201,4.1249,4.1538,4.2116,4.2813,4.3102,4.3505,4.3883,5.1672,5.2041,5.232,5.2196,5.2189,5.2052,5.1614,5.1553,5.1683,5.1975,5.2112,5.1922,5.1216,5.1247,5.1037,5.0449,5.0848,5.1058,5.0836,5.0247,4.9912,4.9912,4.9847,4.991,5.007,5.0501,5.1048,5.1692,5.0227,4.9164,4.852,4.7322,4.657,4.6125,4.5581,4.5729,4.6377,4.6349,4.6645,4.7207,4.7207,4.7491,4.7912,4.7378,4.6841,4.6101,4.4664,4.3301,4.2024,4.1126,4.0338,3.9697,3.9697,4.0074,4.0374,3.9848,4.0074,4.0374,3.9848,3.9647,3.9473,3.8715,3.7915,3.7577,3.8593,3.8767,3.9249,4.1325,4.1829,4.1981,4.2242,4.2154,4.2022,4.1752,4.1773,4.1727,4.1524,4.2134,4.2631,4.2729,4.3519,4.4588,4.5954,4.6761,4.7592,4.8589,4.9238,4.9969,5.0987,4.9246,4.7939,4.7352,4.673,4.6156,4.567,4.459,4.3606,4.2688,4.194,4.1463,4.1201,4.1201,4.1201,4.1201,4.1201,4.1201,4.1201,4.1201,4.1201,4.1225,4.1297,4.1923,4.2789,4.2886,4.3174,4.3505,5.3887,5.3499,5.3199,5.3399,5.3413,5.3271,5.288,5.2817,5.2607,5.208,5.2554,5.2649,5.1922,5.2396,5.2744,5.2597,5.2144,5.1353,5.0133,4.9975,4.9912,4.9912,5.048,5.0796,5.0836,5.0861,5.068,5.0318,4.8826,4.7681,4.686,4.5877,4.5274,4.5084,4.5218,4.538,4.5516,4.6055,4.6645,4.7207,4.7207,4.7263,4.7347,4.7263,4.6841,4.6108,4.4453,4.3417,4.2611,4.1079,4.0178,3.9697,3.9697,4.0074,4.0374,3.9848,4.0074,4.0374,3.9848,3.9524,3.9322,3.9195,3.8697,3.8407,3.9266,3.9236,3.9329,4.0331,4.0962,4.1405,4.1692,4.2124,4.2398,4.2372,4.3064,4.3208,4.2058,4.3405,4.4095,4.3076,4.484,4.6226,4.6476,4.7792,4.9093,5.0341,5.0056,5.0252,5.1125,4.9657,4.8545,4.7985,4.6947,4.5773,4.4473,4.3838,4.2951,4.1785,4.1659,4.1463,4.1201,4.1201,4.1201,4.1201,4.1201,4.1201,4.1201,4.1201,4.1201,4.1249,4.1706,4.226,4.2837,4.3241,4.3433,4.3457,5.5377,5.5247,5.5016,5.5063,5.4629,5.4165,5.3862,5.3408,5.3123,5.3123,5.3439,5.3376,5.266,5.2902,5.2934,5.2554,5.2207,5.1712,5.108,5.1017,5.1017,5.1017,5.1353,5.1537,5.156,5.1138,5.0571,4.988,4.8693,4.7603,4.6625,4.5809,4.5342,4.5167,4.4917,4.5062,4.5519,4.5709,4.6335,4.7207,4.7207,4.7378,4.7659,4.7659,4.7122,4.6084,4.4435,4.3263,4.2216,4.0618,3.9898,3.9697,3.9697,3.9873,4.0023,3.9772,3.9873,4.0023,3.9772,3.9499,3.9271,3.909,3.8716,3.8657,3.9611,3.9699,3.9894,4.1058,4.1746,4.2221,4.2344,4.2558,4.264,4.217,4.2839,4.3069,4.1988,4.3611,4.4821,4.4589,4.5968,4.7094,4.7589,4.8581,4.9525,5.0264,5.0118,5.0345,5.1116,4.9586,4.8681,4.8647,4.6859,4.5368,4.4232,4.3511,4.2627,4.1606,4.1435,4.1316,4.1201,4.1201,4.1201,4.1201,4.1201,4.1201,4.1201,4.1201,4.1201,4.1244,4.1803,4.2332,4.2862,4.3337,4.3505,4.3433,5.651,5.6608,5.648,5.6443,5.5696,5.5005,5.4709,5.3946,5.3503,5.3818,5.3882,5.3597,5.2934,5.2976,5.287,5.2302,5.227,5.2376,5.2691,5.2723,5.2565,5.2249,5.2387,5.252,5.2683,5.1814,5.0917,5.002,4.9151,4.8086,4.694,4.638,4.5982,4.5752,4.5199,4.518,4.5614,4.5564,4.6111,4.701,4.715,4.7547,4.8108,4.8108,4.7519,4.6504,4.4704,4.342,4.2263,4.0466,3.9925,3.9951,3.9748,3.9798,3.9848,3.9747,3.9648,3.9598,3.975,3.9702,3.9523,3.9362,3.9168,3.9298,4.0103,4.0305,4.059,4.1684,4.2397,4.2794,4.2711,4.2735,4.2625,4.2147,4.264,4.2985,4.2554,4.415,4.5518,4.604,4.7092,4.8024,4.8792,4.9581,5.0183,5.0478,5.0324,5.0535,5.1316,4.9408,4.8348,4.8469,4.6389,4.4894,4.409,4.316,4.2303,4.1492,4.1287,4.1201,4.1201,4.1201,4.1201,4.1201,4.1201,4.1201,4.1201,4.1201,4.1201,4.1273,4.1923,4.2428,4.2862,4.3481,4.3595,4.3457,5.7374,5.6985,5.6621,5.7045,5.6487,5.5857,5.5494,5.4772,5.402,5.3271,5.3186,5.2881,5.2154,5.2712,5.3092,5.3028,5.3028,5.3544,5.4808,5.4871,5.4334,5.3071,5.3546,5.4132,5.4776,5.3356,5.1964,5.0733,4.9988,4.8813,4.7365,4.7294,4.7028,4.6594,4.6546,4.6094,4.538,4.597,4.6279,4.642,4.6982,4.7547,4.8108,4.8108,4.8052,4.7681,4.5434,4.4403,4.3762,4.1283,4.0608,4.069,3.9925,4.0049,4.035,3.9848,3.9474,3.9348,3.9905,4.0236,4.0465,4.0666,4.0916,4.1116,4.1193,4.1218,4.1244,4.1348,4.1844,4.2156,4.1855,4.1999,4.2393,4.307,4.3351,4.3799,4.4726,4.5907,4.6685,4.6743,4.826,4.9493,4.9954,5.0986,5.1822,5.2271,5.1232,5.1027,5.2075,4.9282,4.7312,4.6546,4.5305,4.4378,4.3718,4.2704,4.185,4.123,4.1201,4.1201,4.1201,4.1201,4.1201,4.1201,4.1201,4.1201,4.1201,4.1201,4.1201,4.1321,4.2332,4.2765,4.291,4.3883,4.3931,4.3505,5.8777,5.868,5.841,5.8109,5.7581,5.7022,5.6454,5.5885,5.5413,5.5073,5.5019,5.4958,5.4803,5.5046,5.5205,5.5205,5.5205,5.5362,5.5746,5.5778,5.5424,5.4558,5.457,5.4368,5.3836,5.3066,5.2039,5.0745,5.0278,4.9642,4.8823,4.8508,4.8161,4.7745,4.7599,4.7311,4.6963,4.7072,4.7338,4.768,4.7734,4.7884,4.8108,4.8108,4.7856,4.7315,4.5614,4.4475,4.3439,4.1414,4.0588,4.0336,3.9851,3.9848,3.9999,3.9954,3.9982,4.0108,4.049,4.0154,3.9712,3.981,4.0291,4.0646,4.0306,4.0776,4.1299,4.1299,4.2056,4.2657,4.2524,4.2728,4.2975,4.3249,4.3598,4.4064,4.4805,4.6411,4.7795,4.8568,4.94,5.0305,5.125,5.117,5.1303,5.1904,5.1196,5.0987,5.1598,4.9665,4.782,4.6361,4.5573,4.479,4.4031,4.3288,4.2602,4.1943,4.1943,4.2026,4.2188,4.2188,4.2188,4.2188,4.2188,4.2188,4.2188,4.2188,4.1995,4.1803,4.2832,4.3078,4.291,4.3931,4.4172,4.3925,5.9565,5.95,5.9209,5.8669,5.8162,5.7623,5.7087,5.6708,5.6467,5.6433,5.6433,5.6445,5.6621,5.6621,5.6621,5.6621,5.6621,5.665,5.6718,5.6717,5.641,5.5634,5.5238,5.457,5.362,5.3148,5.2406,5.129,5.1114,5.0767,5.0278,4.9956,4.963,4.9272,4.9075,4.8837,4.8591,4.8319,4.8308,4.8481,4.8207,4.8108,4.8108,4.8182,4.7802,4.7058,4.5794,4.4658,4.3552,4.1879,4.1179,4.0948,4.0589,4.036,4.0208,4.0236,4.0287,4.0412,4.0794,4.0142,3.9412,3.9776,4.0132,4.0332,4.015,4.0567,4.1064,4.1247,4.2056,4.2735,4.2629,4.2859,4.326,4.384,4.4236,4.4877,4.5947,4.7564,4.9021,5.0153,5.0528,5.113,5.2248,5.1657,5.1345,5.1753,5.1247,5.0861,5.0617,4.9657,4.8292,4.6486,4.5864,4.5176,4.4304,4.3759,4.3069,4.2263,4.2433,4.2635,4.2789,4.2789,4.2789,4.2789,4.2789,4.273,4.264,4.264,4.2269,4.1797,4.2795,4.2914,4.261,4.3723,4.4137,4.4058,5.9565,5.9112,5.8605,5.8605,5.8065,5.7515,5.7249,5.7206,5.712,5.6936,5.6914,5.6914,5.6914,5.6914,5.6914,5.6914,5.6914,5.7202,5.7875,5.7878,5.7316,5.603,5.54,5.4968,5.4684,5.3919,5.321,5.2597,5.2597,5.2278,5.1617,5.1617,5.1461,5.1206,5.1206,5.0733,4.9903,4.9598,4.9101,4.8509,4.8207,4.8108,4.8134,4.8409,4.8004,4.7153,4.6006,4.5222,4.4439,4.2759,4.2541,4.29,4.2388,4.185,4.1286,4.0696,4.0282,4.0146,4.0741,4.0291,3.9886,4.1012,4.0829,4.0541,4.1142,4.0829,4.0567,4.1168,4.1768,4.2105,4.1752,4.2092,4.306,4.4984,4.5481,4.6386,4.8609,4.9649,5.0474,5.1209,5.1613,5.2088,5.2829,5.2671,5.2416,5.222,5.1628,5.0673,4.9197,4.912,4.8353,4.6734,4.6095,4.5388,4.4489,4.3949,4.314,4.2019,4.2549,4.2789,4.2813,4.2813,4.2813,4.2813,4.2813,4.2634,4.2304,4.2304,4.1792,4.1116,4.212,4.2214,4.1969,4.3322,4.3802,4.3802,5.9662,5.9533,5.9371,5.9371,5.9045,5.8753,5.8687,5.8532,5.8453,5.8387,5.8364,5.8431,5.8554,5.8576,5.8576,5.8576,5.8576,5.8182,5.7277,5.6862,5.5944,5.4392,5.4819,5.4891,5.4432,5.3815,5.3492,5.3497,5.3344,5.3123,5.2923,5.2923,5.2665,5.2178,5.2178,5.178,5.1042,5.0154,4.9665,4.9386,4.848,4.8207,4.8409,4.8456,4.8103,4.7464,4.673,4.5677,4.4519,4.3464,4.2938,4.2653,4.2313,4.2212,4.2138,4.157,4.1464,4.1511,4.1251,4.13,4.1323,4.0801,4.0829,4.1064,4.1247,4.133,4.1488,4.1847,4.2081,4.221,4.2306,4.3252,4.4422,4.5737,4.6462,4.7503,4.9327,5.0404,5.1266,5.2051,5.2037,5.2302,5.3028,5.2229,5.1809,5.2166,5.1673,5.0713,4.9202,4.8879,4.8029,4.6456,4.6029,4.5393,4.4525,4.4347,4.3961,4.3426,4.3572,4.3717,4.3835,4.3835,4.3835,4.3835,4.3835,4.3651,4.335,4.335,4.2827,4.215,4.308,4.2971,4.2409,4.344,4.3646,4.342,5.9694,5.9694,5.9694,5.9694,5.9584,5.9464,5.9464,5.9385,5.9296,5.9296,5.9296,5.934,5.9441,5.9464,5.9464,5.9464,5.9197,5.8578,5.7482,5.6629,5.5514,5.4032,5.4336,5.4382,5.3975,5.3616,5.3578,5.3919,5.3736,5.3605,5.3474,5.3474,5.3326,5.2949,5.2949,5.2601,5.1936,5.1155,5.066,5.0322,4.949,4.913,4.9029,4.8773,4.8122,4.7286,4.669,4.5712,4.4626,4.4145,4.375,4.3333,4.2833,4.2862,4.2996,4.245,4.2371,4.2422,4.2056,4.2239,4.2343,4.1586,4.1351,4.1376,4.1611,4.1433,4.1357,4.1743,4.1922,4.2124,4.2502,4.3805,4.5256,4.6594,4.7809,4.9085,5.0619,5.1167,5.1797,5.2778,5.228,5.2195,5.3026,5.2131,5.1555,5.1677,5.1404,5.0628,4.933,4.8844,4.7945,4.6486,4.6029,4.5401,4.4633,4.4627,4.4323,4.3802,4.4014,4.4188,4.4285,4.4285,4.4285,4.4285,4.4285,4.4106,4.3771,4.3646,4.3114,4.2388,4.2755,4.2615,4.2226,4.2903,4.3107,4.3075,5.9738,5.9716,5.9694,5.9694,5.9694,5.9694,5.9694,5.9694,5.9694,5.9694,5.9694,5.9694,5.9694,5.9694,5.9694,5.9694,5.904,5.8464,5.8001,5.6834,5.5603,5.4326,5.3823,5.348,5.3288,5.3356,5.3524,5.3795,5.3886,5.3759,5.3469,5.3471,5.3474,5.3474,5.3474,5.3181,5.2659,5.2344,5.1866,5.1238,5.0924,5.0423,4.9779,4.9211,4.8071,4.6663,4.6165,4.5448,4.4695,4.4695,4.4695,4.4562,4.3773,4.3724,4.386,4.3258,4.3075,4.3049,4.2997,4.3023,4.3075,4.3075,4.2292,4.1664,4.216,4.1377,4.075,4.1298,4.1575,4.1896,4.2492,4.3977,4.5716,4.7601,4.9278,5.0794,5.2056,5.191,5.2074,5.3188,5.2292,5.1876,5.2799,5.2166,5.1486,5.0934,5.0878,5.0432,4.9445,4.8873,4.7974,4.6645,4.6065,4.5453,4.481,4.4779,4.4359,4.3601,4.4075,4.4285,4.4285,4.4285,4.4285,4.4254,4.4254,4.4044,4.3678,4.3389,4.2794,4.2094,4.1768,4.1644,4.1644,4.1963,4.2358,4.269,6.0022,5.9848,5.9694,5.9694,5.9694,5.9694,5.9694,5.9694,5.9694,5.9694,5.9694,5.9694,5.9694,5.9694,5.9694,5.9694,5.9229,5.815,5.6356,5.547,5.4345,5.2756,5.2103,5.1977,5.2437,5.3084,5.3288,5.3054,5.3627,5.3604,5.3059,5.3347,5.3474,5.3474,5.3474,5.3442,5.3242,5.2518,5.2125,5.1926,5.1121,5.0163,4.9185,4.9057,4.7837,4.6165,4.6033,4.5448,4.4695,4.4695,4.4695,4.4669,4.4483,4.4458,4.4434,4.3859,4.3703,4.3598,4.3127,4.3337,4.3703,4.3703,4.352,4.3258,4.2918,4.2476,4.2163,4.2285,4.1989,4.2052,4.3301,4.4906,4.6635,4.8499,4.9858,5.0926,5.1635,5.1877,5.1983,5.1946,5.1914,5.195,5.2055,5.1486,5.1045,5.0906,5.0711,5.0066,4.8844,4.8466,4.7586,4.6035,4.5605,4.5208,4.481,4.4532,4.4306,4.4148,4.4244,4.4285,4.4285,4.4285,4.4161,4.3919,4.3919,4.3576,4.3012,4.2949,4.265,4.2259,4.2063,4.1807,4.1644,4.1963,4.2001,4.1867,6.026,6.0066,5.9989,6.0324,6.0357,6.0335,6.0257,6.0291,6.0205,5.9749,5.9694,5.9694,5.9694,5.9694,5.9736,5.9813,5.8949,5.795,5.691,5.5944,5.4946,5.3873,5.3367,5.3114,5.3144,5.356,5.3614,5.3283,5.3664,5.3708,5.3396,5.3587,5.3605,5.3474,5.3474,5.3355,5.3065,5.2879,5.2654,5.2336,5.186,5.0849,4.958,4.8882,4.755,4.5927,4.5236,4.4731,4.4356,4.4616,4.4695,4.4695,4.4695,4.4695,4.4643,4.4356,4.4278,4.4225,4.3885,4.4016,4.4278,4.4278,4.4278,4.4121,4.3546,4.3101,4.284,4.2992,4.2854,4.3123,4.4543,4.6154,4.7707,4.9075,5.0738,5.1796,5.1648,5.1856,5.189,5.1574,5.1375,5.1219,5.1183,5.0906,5.0628,5.0488,5.0593,4.9966,4.8262,4.829,4.7543,4.5605,4.5392,4.5147,4.481,4.4625,4.447,4.4285,4.4285,4.4285,4.4285,4.4106,4.3982,4.3771,4.3615,4.3357,4.3043,4.2854,4.2696,4.2469,4.1738,4.1538,4.1575,4.1276,4.133,4.1612,6.0442,6.0401,6.0489,6.0988,6.1206,6.1227,6.1037,6.1193,6.1031,6.0226,6.0117,6.0117,6.0073,5.9984,5.9823,5.9575,5.8527,5.7863,5.7887,5.6804,5.5916,5.5355,5.5035,5.4491,5.3688,5.3713,5.3704,5.3714,5.3872,5.3896,5.3795,5.3769,5.3675,5.3474,5.3384,5.3123,5.2801,5.3297,5.321,5.2746,5.2587,5.158,5.0031,4.8661,4.7158,4.5635,4.4466,4.4043,4.4095,4.4538,4.4695,4.4695,4.4695,4.4643,4.4564,4.4564,4.4486,4.4434,4.4538,4.4564,4.459,4.4669,4.4722,4.4671,4.4201,4.3651,4.3258,4.3462,4.3693,4.4335,4.5848,4.7299,4.8596,4.9716,5.1498,5.2485,5.1776,5.172,5.1674,5.136,5.0782,5.0464,5.0488,5.0431,5.0318,5.0146,5.0525,5.0003,4.8342,4.8366,4.7564,4.5668,4.5349,4.5055,4.4717,4.4717,4.4594,4.4285,4.4285,4.4285,4.4285,4.4013,4.3802,4.3678,4.3396,4.3232,4.3106,4.2822,4.2696,4.2603,4.1307,4.1076,4.1383,4.0532,4.0808,4.1589,6.0654,6.1031,6.1252,6.113,6.1629,6.2042,6.1998,6.202,6.201,6.1867,6.1867,6.1778,6.1553,6.1087,6.0015,5.7997,5.8174,5.8009,5.712,5.6404,5.5555,5.4446,5.3797,5.2875,5.1624,5.1594,5.2163,5.3299,5.4215,5.4234,5.3457,5.3231,5.3267,5.35,5.2975,5.2949,5.3384,5.3471,5.3471,5.3306,5.2562,5.105,4.916,4.8219,4.6596,4.4857,4.467,4.459,4.459,4.4669,4.4695,4.4695,4.4695,4.4382,4.4017,4.4017,4.365,4.3336,4.3886,4.4017,4.4121,4.4564,4.4937,4.51,4.5021,4.4546,4.3991,4.352,4.3859,4.48,4.6678,4.7535,4.8735,5.1111,5.1563,5.1591,5.155,5.1397,5.104,5.0321,5.0381,5.0489,5.0487,5.0234,5.0255,5.0743,5.0363,5.0238,5.0445,4.8773,4.7543,4.6898,4.5558,4.4717,4.4378,4.4378,4.4347,4.4285,4.4285,4.4285,4.4285,4.4254,4.3919,4.3389,4.3326,4.298,4.2434,4.2402,4.2371,4.2256,4.1214,4.0839,4.0915,4.0778,4.1076,4.1543,6.1997,6.1892,6.1742,6.206,6.2387,6.2409,6.1906,6.1818,6.1774,6.1619,6.1485,6.1536,6.1757,6.1428,6.0613,5.9291,5.9074,5.8779,5.8354,5.7779,5.7195,5.6638,5.6184,5.5478,5.4521,5.4162,5.3922,5.3743,5.3858,5.3729,5.339,5.3824,5.3635,5.3004,5.2898,5.2697,5.243,5.243,5.2659,5.2868,5.1257,5.0152,4.9185,4.7459,4.6035,4.4964,4.4749,4.4513,4.4304,4.459,4.4695,4.4695,4.4695,4.433,4.3886,4.3886,4.3467,4.3049,4.3337,4.3389,4.3546,4.4281,4.4599,4.4785,4.5076,4.5208,4.5181,4.4906,4.5425,4.6387,4.7822,4.8738,4.9809,5.1335,5.1758,5.1754,5.14,5.1451,5.123,5.0381,5.0239,5.0234,5.0234,5.0365,5.0471,5.0417,5.1095,5.0864,4.9371,4.8743,4.7678,4.6031,4.5046,4.444,4.4285,4.4285,4.4285,4.4285,4.4285,4.4285,4.4285,4.4106,4.3764,4.3295,4.3106,4.2728,4.2307,4.2307,4.2307,4.2215,4.1183,4.0479,4.0043,4.0586,4.0961,4.1168]}]]